<?xml version="1.0" encoding="UTF-8" standalone="no" ?>
<gpx xmlns="http://www.topografix.com/GPX/1/1" xmlns:xsi="http://www.w3.org/2001/XMLSchema-instance" xsi:schemaLocation="http://www.topografix.com/GPX/1/1 http://www.topografix.com/GPX/1/1/gpx.xsd" version="1.1" creator="VisuGPX - https://www.visugpx.com">
  <metadata>
    <name>Caunes - Sentier du Facteur - Castanviel</name>
    <desc><![CDATA[Caunes - Sentier du Facteur, Castanviel]]></desc>
  </metadata>
  <trk>
    <name><![CDATA[Caunes - Sentier du Facteur - Castanviel_1]]></name>
    <trkseg>
      <trkpt lat="43.32575" lon="2.53199">
        <ele>231.4</ele>
        <time>2017-02-25T12:30:16Z</time>
      </trkpt>
      <trkpt lat="43.32575" lon="2.532">
        <ele>231.2</ele>
        <time>2017-02-25T12:30:17Z</time>
      </trkpt>
      <trkpt lat="43.32574" lon="2.53197">
        <ele>223.2</ele>
        <time>2017-02-25T12:30:24Z</time>
      </trkpt>
      <trkpt lat="43.32575" lon="2.53197">
        <ele>211.8</ele>
        <time>2017-02-25T12:30:31Z</time>
      </trkpt>
      <trkpt lat="43.32575" lon="2.53201">
        <ele>210.2</ele>
        <time>2017-02-25T12:30:38Z</time>
      </trkpt>
      <trkpt lat="43.3258" lon="2.53204">
        <ele>210</ele>
        <time>2017-02-25T12:30:45Z</time>
      </trkpt>
      <trkpt lat="43.32583" lon="2.53202">
        <ele>209.1</ele>
        <time>2017-02-25T12:30:52Z</time>
      </trkpt>
      <trkpt lat="43.32589" lon="2.53199">
        <ele>205.9</ele>
        <time>2017-02-25T12:30:59Z</time>
      </trkpt>
      <trkpt lat="43.32595" lon="2.53195">
        <ele>203.4</ele>
        <time>2017-02-25T12:31:05Z</time>
      </trkpt>
      <trkpt lat="43.32601" lon="2.53189">
        <ele>201.9</ele>
        <time>2017-02-25T12:31:12Z</time>
      </trkpt>
      <trkpt lat="43.32605" lon="2.53179">
        <ele>200.5</ele>
        <time>2017-02-25T12:31:19Z</time>
      </trkpt>
      <trkpt lat="43.32609" lon="2.53171">
        <ele>199.4</ele>
        <time>2017-02-25T12:31:26Z</time>
      </trkpt>
      <trkpt lat="43.32613" lon="2.53161">
        <ele>198.6</ele>
        <time>2017-02-25T12:31:32Z</time>
      </trkpt>
      <trkpt lat="43.32619" lon="2.53152">
        <ele>198.2</ele>
        <time>2017-02-25T12:31:39Z</time>
      </trkpt>
      <trkpt lat="43.32624" lon="2.53144">
        <ele>197.3</ele>
        <time>2017-02-25T12:31:45Z</time>
      </trkpt>
      <trkpt lat="43.3263" lon="2.53137">
        <ele>196.1</ele>
        <time>2017-02-25T12:31:51Z</time>
      </trkpt>
      <trkpt lat="43.32635" lon="2.5313">
        <ele>195.2</ele>
        <time>2017-02-25T12:31:57Z</time>
      </trkpt>
      <trkpt lat="43.32641" lon="2.53126">
        <ele>194.4</ele>
        <time>2017-02-25T12:32:04Z</time>
      </trkpt>
      <trkpt lat="43.32648" lon="2.5312">
        <ele>193.8</ele>
        <time>2017-02-25T12:32:10Z</time>
      </trkpt>
      <trkpt lat="43.32655" lon="2.53115">
        <ele>194</ele>
        <time>2017-02-25T12:32:17Z</time>
      </trkpt>
      <trkpt lat="43.32662" lon="2.53111">
        <ele>194.2</ele>
        <time>2017-02-25T12:32:24Z</time>
      </trkpt>
      <trkpt lat="43.32668" lon="2.5311">
        <ele>193.9</ele>
        <time>2017-02-25T12:32:31Z</time>
      </trkpt>
      <trkpt lat="43.32676" lon="2.53108">
        <ele>194.2</ele>
        <time>2017-02-25T12:32:37Z</time>
      </trkpt>
      <trkpt lat="43.32683" lon="2.5311">
        <ele>194.5</ele>
        <time>2017-02-25T12:32:42Z</time>
      </trkpt>
      <trkpt lat="43.32689" lon="2.53112">
        <ele>195.8</ele>
        <time>2017-02-25T12:32:49Z</time>
      </trkpt>
      <trkpt lat="43.32697" lon="2.53114">
        <ele>195.4</ele>
        <time>2017-02-25T12:32:55Z</time>
      </trkpt>
      <trkpt lat="43.32706" lon="2.53116">
        <ele>195.1</ele>
        <time>2017-02-25T12:33:02Z</time>
      </trkpt>
      <trkpt lat="43.32713" lon="2.5312">
        <ele>194.9</ele>
        <time>2017-02-25T12:33:08Z</time>
      </trkpt>
      <trkpt lat="43.3272" lon="2.53123">
        <ele>194.4</ele>
        <time>2017-02-25T12:33:15Z</time>
      </trkpt>
      <trkpt lat="43.32727" lon="2.53126">
        <ele>194</ele>
        <time>2017-02-25T12:33:21Z</time>
      </trkpt>
      <trkpt lat="43.32735" lon="2.53125">
        <ele>194.9</ele>
        <time>2017-02-25T12:33:27Z</time>
      </trkpt>
      <trkpt lat="43.32742" lon="2.53123">
        <ele>196.3</ele>
        <time>2017-02-25T12:33:32Z</time>
      </trkpt>
      <trkpt lat="43.32749" lon="2.53116">
        <ele>197.4</ele>
        <time>2017-02-25T12:33:38Z</time>
      </trkpt>
      <trkpt lat="43.32753" lon="2.53108">
        <ele>198.6</ele>
        <time>2017-02-25T12:33:45Z</time>
      </trkpt>
      <trkpt lat="43.32755" lon="2.53097">
        <ele>200.1</ele>
        <time>2017-02-25T12:33:52Z</time>
      </trkpt>
      <trkpt lat="43.32757" lon="2.53086">
        <ele>201.5</ele>
        <time>2017-02-25T12:33:59Z</time>
      </trkpt>
      <trkpt lat="43.32758" lon="2.53074">
        <ele>202.8</ele>
        <time>2017-02-25T12:34:06Z</time>
      </trkpt>
      <trkpt lat="43.32759" lon="2.53066">
        <ele>204.1</ele>
        <time>2017-02-25T12:34:13Z</time>
      </trkpt>
      <trkpt lat="43.32758" lon="2.53055">
        <ele>203.2</ele>
        <time>2017-02-25T12:34:20Z</time>
      </trkpt>
      <trkpt lat="43.32762" lon="2.53046">
        <ele>203.8</ele>
        <time>2017-02-25T12:34:26Z</time>
      </trkpt>
      <trkpt lat="43.32764" lon="2.53034">
        <ele>204.3</ele>
        <time>2017-02-25T12:34:32Z</time>
      </trkpt>
      <trkpt lat="43.32765" lon="2.53024">
        <ele>204.6</ele>
        <time>2017-02-25T12:34:38Z</time>
      </trkpt>
      <trkpt lat="43.32766" lon="2.53013">
        <ele>204.5</ele>
        <time>2017-02-25T12:34:44Z</time>
      </trkpt>
      <trkpt lat="43.32767" lon="2.53002">
        <ele>204.6</ele>
        <time>2017-02-25T12:34:51Z</time>
      </trkpt>
      <trkpt lat="43.32768" lon="2.52991">
        <ele>204.9</ele>
        <time>2017-02-25T12:34:58Z</time>
      </trkpt>
      <trkpt lat="43.32769" lon="2.52981">
        <ele>206.1</ele>
        <time>2017-02-25T12:35:03Z</time>
      </trkpt>
      <trkpt lat="43.32767" lon="2.5297">
        <ele>208.5</ele>
        <time>2017-02-25T12:35:09Z</time>
      </trkpt>
      <trkpt lat="43.3277" lon="2.52962">
        <ele>207.7</ele>
        <time>2017-02-25T12:35:16Z</time>
      </trkpt>
      <trkpt lat="43.32773" lon="2.52955">
        <ele>207.8</ele>
        <time>2017-02-25T12:35:23Z</time>
      </trkpt>
      <trkpt lat="43.32774" lon="2.52949">
        <ele>207.9</ele>
        <time>2017-02-25T12:35:30Z</time>
      </trkpt>
      <trkpt lat="43.32774" lon="2.52943">
        <ele>208</ele>
        <time>2017-02-25T12:35:37Z</time>
      </trkpt>
      <trkpt lat="43.3277" lon="2.52942">
        <ele>208.5</ele>
        <time>2017-02-25T12:35:44Z</time>
      </trkpt>
      <trkpt lat="43.32768" lon="2.52952">
        <ele>208.5</ele>
        <time>2017-02-25T12:35:50Z</time>
      </trkpt>
      <trkpt lat="43.32767" lon="2.52959">
        <ele>208.9</ele>
        <time>2017-02-25T12:35:57Z</time>
      </trkpt>
      <trkpt lat="43.32772" lon="2.52964">
        <ele>209</ele>
        <time>2017-02-25T12:36:04Z</time>
      </trkpt>
      <trkpt lat="43.32779" lon="2.52965">
        <ele>209.1</ele>
        <time>2017-02-25T12:36:10Z</time>
      </trkpt>
      <trkpt lat="43.32786" lon="2.5297">
        <ele>209.2</ele>
        <time>2017-02-25T12:36:16Z</time>
      </trkpt>
      <trkpt lat="43.32792" lon="2.52968">
        <ele>210.1</ele>
        <time>2017-02-25T12:36:23Z</time>
      </trkpt>
      <trkpt lat="43.32796" lon="2.52967">
        <ele>210.8</ele>
        <time>2017-02-25T12:36:30Z</time>
      </trkpt>
      <trkpt lat="43.328" lon="2.52961">
        <ele>211.2</ele>
        <time>2017-02-25T12:36:37Z</time>
      </trkpt>
      <trkpt lat="43.32803" lon="2.52951">
        <ele>212</ele>
        <time>2017-02-25T12:36:44Z</time>
      </trkpt>
      <trkpt lat="43.3281" lon="2.52947">
        <ele>214.3</ele>
        <time>2017-02-25T12:36:50Z</time>
      </trkpt>
      <trkpt lat="43.32815" lon="2.52944">
        <ele>214.9</ele>
        <time>2017-02-25T12:36:57Z</time>
      </trkpt>
      <trkpt lat="43.32821" lon="2.52944">
        <ele>215.2</ele>
        <time>2017-02-25T12:37:04Z</time>
      </trkpt>
      <trkpt lat="43.32826" lon="2.52943">
        <ele>215.7</ele>
        <time>2017-02-25T12:37:11Z</time>
      </trkpt>
      <trkpt lat="43.32828" lon="2.52944">
        <ele>217.2</ele>
        <time>2017-02-25T12:37:18Z</time>
      </trkpt>
      <trkpt lat="43.32835" lon="2.52943">
        <ele>219.6</ele>
        <time>2017-02-25T12:37:31Z</time>
      </trkpt>
      <trkpt lat="43.32841" lon="2.52945">
        <ele>220</ele>
        <time>2017-02-25T12:37:38Z</time>
      </trkpt>
      <trkpt lat="43.32848" lon="2.52947">
        <ele>219.5</ele>
        <time>2017-02-25T12:37:45Z</time>
      </trkpt>
      <trkpt lat="43.32853" lon="2.52951">
        <ele>219.8</ele>
        <time>2017-02-25T12:37:52Z</time>
      </trkpt>
      <trkpt lat="43.32859" lon="2.52952">
        <ele>220</ele>
        <time>2017-02-25T12:37:59Z</time>
      </trkpt>
      <trkpt lat="43.32862" lon="2.52953">
        <ele>220.2</ele>
        <time>2017-02-25T12:38:06Z</time>
      </trkpt>
      <trkpt lat="43.32868" lon="2.52951">
        <ele>221.1</ele>
        <time>2017-02-25T12:38:13Z</time>
      </trkpt>
      <trkpt lat="43.32876" lon="2.52948">
        <ele>222.2</ele>
        <time>2017-02-25T12:38:18Z</time>
      </trkpt>
      <trkpt lat="43.32883" lon="2.52945">
        <ele>223.9</ele>
        <time>2017-02-25T12:38:24Z</time>
      </trkpt>
      <trkpt lat="43.3289" lon="2.52937">
        <ele>224.6</ele>
        <time>2017-02-25T12:38:30Z</time>
      </trkpt>
      <trkpt lat="43.32896" lon="2.52932">
        <ele>225.4</ele>
        <time>2017-02-25T12:38:36Z</time>
      </trkpt>
      <trkpt lat="43.32904" lon="2.52927">
        <ele>226.8</ele>
        <time>2017-02-25T12:38:43Z</time>
      </trkpt>
      <trkpt lat="43.32911" lon="2.52923">
        <ele>228.6</ele>
        <time>2017-02-25T12:38:50Z</time>
      </trkpt>
      <trkpt lat="43.32919" lon="2.52921">
        <ele>230</ele>
        <time>2017-02-25T12:38:57Z</time>
      </trkpt>
      <trkpt lat="43.32926" lon="2.52916">
        <ele>232.7</ele>
        <time>2017-02-25T12:39:04Z</time>
      </trkpt>
      <trkpt lat="43.32932" lon="2.5291">
        <ele>234.2</ele>
        <time>2017-02-25T12:39:10Z</time>
      </trkpt>
      <trkpt lat="43.32939" lon="2.52905">
        <ele>235.8</ele>
        <time>2017-02-25T12:39:17Z</time>
      </trkpt>
      <trkpt lat="43.32947" lon="2.52904">
        <ele>238.2</ele>
        <time>2017-02-25T12:39:24Z</time>
      </trkpt>
      <trkpt lat="43.32955" lon="2.52902">
        <ele>240.2</ele>
        <time>2017-02-25T12:39:30Z</time>
      </trkpt>
      <trkpt lat="43.32962" lon="2.52899">
        <ele>242</ele>
        <time>2017-02-25T12:39:36Z</time>
      </trkpt>
      <trkpt lat="43.32969" lon="2.52896">
        <ele>243</ele>
        <time>2017-02-25T12:39:41Z</time>
      </trkpt>
      <trkpt lat="43.32976" lon="2.52893">
        <ele>244.1</ele>
        <time>2017-02-25T12:39:46Z</time>
      </trkpt>
      <trkpt lat="43.32983" lon="2.52891">
        <ele>245.4</ele>
        <time>2017-02-25T12:39:53Z</time>
      </trkpt>
      <trkpt lat="43.3299" lon="2.52887">
        <ele>247.1</ele>
        <time>2017-02-25T12:39:58Z</time>
      </trkpt>
      <trkpt lat="43.32998" lon="2.52884">
        <ele>248.1</ele>
        <time>2017-02-25T12:40:05Z</time>
      </trkpt>
      <trkpt lat="43.33005" lon="2.52881">
        <ele>249.2</ele>
        <time>2017-02-25T12:40:11Z</time>
      </trkpt>
      <trkpt lat="43.3301" lon="2.52879">
        <ele>250.4</ele>
        <time>2017-02-25T12:40:18Z</time>
      </trkpt>
      <trkpt lat="43.33017" lon="2.52874">
        <ele>251.2</ele>
        <time>2017-02-25T12:40:25Z</time>
      </trkpt>
      <trkpt lat="43.33023" lon="2.52869">
        <ele>251.7</ele>
        <time>2017-02-25T12:40:31Z</time>
      </trkpt>
      <trkpt lat="43.3303" lon="2.52867">
        <ele>253</ele>
        <time>2017-02-25T12:40:38Z</time>
      </trkpt>
      <trkpt lat="43.33036" lon="2.52862">
        <ele>253.4</ele>
        <time>2017-02-25T12:40:44Z</time>
      </trkpt>
      <trkpt lat="43.33041" lon="2.52856">
        <ele>254.4</ele>
        <time>2017-02-25T12:40:50Z</time>
      </trkpt>
      <trkpt lat="43.33047" lon="2.52848">
        <ele>255.4</ele>
        <time>2017-02-25T12:40:57Z</time>
      </trkpt>
      <trkpt lat="43.33051" lon="2.52838">
        <ele>255.5</ele>
        <time>2017-02-25T12:41:03Z</time>
      </trkpt>
      <trkpt lat="43.33054" lon="2.52827">
        <ele>254.7</ele>
        <time>2017-02-25T12:41:09Z</time>
      </trkpt>
      <trkpt lat="43.33057" lon="2.52817">
        <ele>254.5</ele>
        <time>2017-02-25T12:41:15Z</time>
      </trkpt>
      <trkpt lat="43.33059" lon="2.52806">
        <ele>255</ele>
        <time>2017-02-25T12:41:21Z</time>
      </trkpt>
      <trkpt lat="43.3306" lon="2.52796">
        <ele>255.5</ele>
        <time>2017-02-25T12:41:27Z</time>
      </trkpt>
      <trkpt lat="43.33062" lon="2.52786">
        <ele>256.1</ele>
        <time>2017-02-25T12:41:33Z</time>
      </trkpt>
      <trkpt lat="43.33062" lon="2.52776">
        <ele>256.7</ele>
        <time>2017-02-25T12:41:39Z</time>
      </trkpt>
      <trkpt lat="43.33062" lon="2.52764">
        <ele>257.2</ele>
        <time>2017-02-25T12:41:46Z</time>
      </trkpt>
      <trkpt lat="43.33065" lon="2.52755">
        <ele>257</ele>
        <time>2017-02-25T12:41:52Z</time>
      </trkpt>
      <trkpt lat="43.33066" lon="2.52749">
        <ele>257</ele>
        <time>2017-02-25T12:41:59Z</time>
      </trkpt>
      <trkpt lat="43.3307" lon="2.5274">
        <ele>250.8</ele>
        <time>2017-02-25T12:43:26Z</time>
      </trkpt>
      <trkpt lat="43.33071" lon="2.5273">
        <ele>250.5</ele>
        <time>2017-02-25T12:43:33Z</time>
      </trkpt>
      <trkpt lat="43.33074" lon="2.52722">
        <ele>250.2</ele>
        <time>2017-02-25T12:43:40Z</time>
      </trkpt>
      <trkpt lat="43.33079" lon="2.52719">
        <ele>250</ele>
        <time>2017-02-25T12:43:47Z</time>
      </trkpt>
      <trkpt lat="43.33083" lon="2.52719">
        <ele>249.9</ele>
        <time>2017-02-25T12:43:54Z</time>
      </trkpt>
      <trkpt lat="43.33091" lon="2.52722">
        <ele>249.7</ele>
        <time>2017-02-25T12:44:01Z</time>
      </trkpt>
      <trkpt lat="43.33097" lon="2.52727">
        <ele>249.9</ele>
        <time>2017-02-25T12:44:07Z</time>
      </trkpt>
      <trkpt lat="43.33105" lon="2.52731">
        <ele>249.7</ele>
        <time>2017-02-25T12:44:14Z</time>
      </trkpt>
      <trkpt lat="43.33113" lon="2.52736">
        <ele>249.6</ele>
        <time>2017-02-25T12:44:21Z</time>
      </trkpt>
      <trkpt lat="43.33118" lon="2.52738">
        <ele>249.6</ele>
        <time>2017-02-25T12:44:28Z</time>
      </trkpt>
      <trkpt lat="43.33126" lon="2.52742">
        <ele>249.5</ele>
        <time>2017-02-25T12:44:35Z</time>
      </trkpt>
      <trkpt lat="43.33134" lon="2.52746">
        <ele>249.5</ele>
        <time>2017-02-25T12:44:42Z</time>
      </trkpt>
      <trkpt lat="43.33142" lon="2.52751">
        <ele>249.4</ele>
        <time>2017-02-25T12:44:49Z</time>
      </trkpt>
      <trkpt lat="43.33149" lon="2.52756">
        <ele>249.5</ele>
        <time>2017-02-25T12:44:56Z</time>
      </trkpt>
      <trkpt lat="43.33156" lon="2.5276">
        <ele>249.5</ele>
        <time>2017-02-25T12:45:03Z</time>
      </trkpt>
      <trkpt lat="43.33164" lon="2.52764">
        <ele>249.7</ele>
        <time>2017-02-25T12:45:10Z</time>
      </trkpt>
      <trkpt lat="43.3317" lon="2.52769">
        <ele>249.9</ele>
        <time>2017-02-25T12:45:17Z</time>
      </trkpt>
      <trkpt lat="43.33177" lon="2.52775">
        <ele>250.2</ele>
        <time>2017-02-25T12:45:24Z</time>
      </trkpt>
      <trkpt lat="43.33184" lon="2.52779">
        <ele>250.9</ele>
        <time>2017-02-25T12:45:30Z</time>
      </trkpt>
      <trkpt lat="43.3319" lon="2.52784">
        <ele>251.4</ele>
        <time>2017-02-25T12:45:37Z</time>
      </trkpt>
      <trkpt lat="43.33197" lon="2.5279">
        <ele>251.7</ele>
        <time>2017-02-25T12:45:43Z</time>
      </trkpt>
      <trkpt lat="43.33204" lon="2.52794">
        <ele>252.1</ele>
        <time>2017-02-25T12:45:49Z</time>
      </trkpt>
      <trkpt lat="43.33212" lon="2.52797">
        <ele>253.9</ele>
        <time>2017-02-25T12:45:56Z</time>
      </trkpt>
      <trkpt lat="43.3322" lon="2.52799">
        <ele>256.5</ele>
        <time>2017-02-25T12:46:03Z</time>
      </trkpt>
      <trkpt lat="43.33228" lon="2.52799">
        <ele>259.9</ele>
        <time>2017-02-25T12:46:10Z</time>
      </trkpt>
      <trkpt lat="43.33236" lon="2.52798">
        <ele>264.5</ele>
        <time>2017-02-25T12:46:17Z</time>
      </trkpt>
      <trkpt lat="43.33241" lon="2.52795">
        <ele>267.8</ele>
        <time>2017-02-25T12:46:24Z</time>
      </trkpt>
      <trkpt lat="43.33249" lon="2.52792">
        <ele>269.4</ele>
        <time>2017-02-25T12:46:31Z</time>
      </trkpt>
      <trkpt lat="43.33256" lon="2.52787">
        <ele>272.7</ele>
        <time>2017-02-25T12:46:38Z</time>
      </trkpt>
      <trkpt lat="43.33263" lon="2.52784">
        <ele>273.8</ele>
        <time>2017-02-25T12:46:44Z</time>
      </trkpt>
      <trkpt lat="43.3327" lon="2.52782">
        <ele>274.5</ele>
        <time>2017-02-25T12:46:51Z</time>
      </trkpt>
      <trkpt lat="43.33277" lon="2.52779">
        <ele>275.8</ele>
        <time>2017-02-25T12:46:58Z</time>
      </trkpt>
      <trkpt lat="43.33285" lon="2.52776">
        <ele>277.1</ele>
        <time>2017-02-25T12:47:05Z</time>
      </trkpt>
      <trkpt lat="43.33292" lon="2.52773">
        <ele>278.4</ele>
        <time>2017-02-25T12:47:11Z</time>
      </trkpt>
      <trkpt lat="43.33299" lon="2.52772">
        <ele>280.1</ele>
        <time>2017-02-25T12:47:18Z</time>
      </trkpt>
      <trkpt lat="43.33307" lon="2.5277">
        <ele>280.2</ele>
        <time>2017-02-25T12:47:25Z</time>
      </trkpt>
      <trkpt lat="43.33315" lon="2.5277">
        <ele>277.8</ele>
        <time>2017-02-25T12:47:31Z</time>
      </trkpt>
      <trkpt lat="43.33322" lon="2.52767">
        <ele>276.3</ele>
        <time>2017-02-25T12:47:37Z</time>
      </trkpt>
      <trkpt lat="43.3333" lon="2.52763">
        <ele>275.3</ele>
        <time>2017-02-25T12:47:44Z</time>
      </trkpt>
      <trkpt lat="43.33337" lon="2.52761">
        <ele>274.1</ele>
        <time>2017-02-25T12:47:50Z</time>
      </trkpt>
      <trkpt lat="43.33343" lon="2.52758">
        <ele>275</ele>
        <time>2017-02-25T12:47:57Z</time>
      </trkpt>
      <trkpt lat="43.33352" lon="2.52756">
        <ele>275.2</ele>
        <time>2017-02-25T12:48:03Z</time>
      </trkpt>
      <trkpt lat="43.33359" lon="2.52753">
        <ele>275.3</ele>
        <time>2017-02-25T12:48:10Z</time>
      </trkpt>
      <trkpt lat="43.33367" lon="2.5275">
        <ele>275.6</ele>
        <time>2017-02-25T12:48:16Z</time>
      </trkpt>
      <trkpt lat="43.33375" lon="2.52746">
        <ele>276.2</ele>
        <time>2017-02-25T12:48:22Z</time>
      </trkpt>
      <trkpt lat="43.33383" lon="2.52744">
        <ele>278.1</ele>
        <time>2017-02-25T12:48:29Z</time>
      </trkpt>
      <trkpt lat="43.33384" lon="2.52743">
        <ele>278.6</ele>
        <time>2017-02-25T12:48:36Z</time>
      </trkpt>
      <trkpt lat="43.33391" lon="2.52736">
        <ele>281</ele>
        <time>2017-02-25T12:48:07Z</time>
      </trkpt>
      <trkpt lat="43.33398" lon="2.52733">
        <ele>282.4</ele>
        <time>2017-02-25T12:49:19Z</time>
      </trkpt>
      <trkpt lat="43.33406" lon="2.52729">
        <ele>283.5</ele>
        <time>2017-02-25T12:49:26Z</time>
      </trkpt>
      <trkpt lat="43.33415" lon="2.52726">
        <ele>284.2</ele>
        <time>2017-02-25T12:49:33Z</time>
      </trkpt>
      <trkpt lat="43.3342" lon="2.52732">
        <ele>285.7</ele>
        <time>2017-02-25T12:49:40Z</time>
      </trkpt>
      <trkpt lat="43.33425" lon="2.52741">
        <ele>286.1</ele>
        <time>2017-02-25T12:49:47Z</time>
      </trkpt>
      <trkpt lat="43.33427" lon="2.52751">
        <ele>287.5</ele>
        <time>2017-02-25T12:49:54Z</time>
      </trkpt>
      <trkpt lat="43.33428" lon="2.52762">
        <ele>288.7</ele>
        <time>2017-02-25T12:50:01Z</time>
      </trkpt>
      <trkpt lat="43.33433" lon="2.52771">
        <ele>289.7</ele>
        <time>2017-02-25T12:50:07Z</time>
      </trkpt>
      <trkpt lat="43.33438" lon="2.52779">
        <ele>289.8</ele>
        <time>2017-02-25T12:50:13Z</time>
      </trkpt>
      <trkpt lat="43.33444" lon="2.52786">
        <ele>290</ele>
        <time>2017-02-25T12:50:19Z</time>
      </trkpt>
      <trkpt lat="43.33451" lon="2.52791">
        <ele>290</ele>
        <time>2017-02-25T12:50:25Z</time>
      </trkpt>
      <trkpt lat="43.33456" lon="2.528">
        <ele>290</ele>
        <time>2017-02-25T12:50:32Z</time>
      </trkpt>
      <trkpt lat="43.33457" lon="2.52807">
        <ele>291</ele>
        <time>2017-02-25T12:50:39Z</time>
      </trkpt>
      <trkpt lat="43.33459" lon="2.52814">
        <ele>291.9</ele>
        <time>2017-02-25T12:50:46Z</time>
      </trkpt>
      <trkpt lat="43.33458" lon="2.52825">
        <ele>293</ele>
        <time>2017-02-25T12:50:53Z</time>
      </trkpt>
      <trkpt lat="43.33458" lon="2.52835">
        <ele>293.7</ele>
        <time>2017-02-25T12:50:59Z</time>
      </trkpt>
      <trkpt lat="43.33458" lon="2.52845">
        <ele>294.8</ele>
        <time>2017-02-25T12:51:06Z</time>
      </trkpt>
      <trkpt lat="43.33458" lon="2.52853">
        <ele>295.8</ele>
        <time>2017-02-25T12:51:13Z</time>
      </trkpt>
      <trkpt lat="43.33457" lon="2.52862">
        <ele>296.7</ele>
        <time>2017-02-25T12:51:20Z</time>
      </trkpt>
      <trkpt lat="43.33459" lon="2.52869">
        <ele>297.5</ele>
        <time>2017-02-25T12:51:27Z</time>
      </trkpt>
      <trkpt lat="43.33459" lon="2.52877">
        <ele>297.8</ele>
        <time>2017-02-25T12:51:34Z</time>
      </trkpt>
      <trkpt lat="43.3346" lon="2.52886">
        <ele>298.2</ele>
        <time>2017-02-25T12:51:41Z</time>
      </trkpt>
      <trkpt lat="43.3346" lon="2.52897">
        <ele>297.7</ele>
        <time>2017-02-25T12:51:47Z</time>
      </trkpt>
      <trkpt lat="43.3346" lon="2.52907">
        <ele>297.3</ele>
        <time>2017-02-25T12:51:52Z</time>
      </trkpt>
      <trkpt lat="43.33461" lon="2.52917">
        <ele>297.8</ele>
        <time>2017-02-25T12:51:59Z</time>
      </trkpt>
      <trkpt lat="43.33464" lon="2.52926">
        <ele>298.2</ele>
        <time>2017-02-25T12:52:06Z</time>
      </trkpt>
      <trkpt lat="43.33467" lon="2.52936">
        <ele>298</ele>
        <time>2017-02-25T12:52:13Z</time>
      </trkpt>
      <trkpt lat="43.33469" lon="2.52943">
        <ele>297.8</ele>
        <time>2017-02-25T12:52:20Z</time>
      </trkpt>
      <trkpt lat="43.33477" lon="2.52946">
        <ele>297.1</ele>
        <time>2017-02-25T12:52:24Z</time>
      </trkpt>
      <trkpt lat="43.33486" lon="2.52947">
        <ele>297.1</ele>
        <time>2017-02-25T12:52:28Z</time>
      </trkpt>
      <trkpt lat="43.33493" lon="2.52946">
        <ele>297.3</ele>
        <time>2017-02-25T12:52:32Z</time>
      </trkpt>
      <trkpt lat="43.33501" lon="2.52943">
        <ele>297.8</ele>
        <time>2017-02-25T12:52:37Z</time>
      </trkpt>
      <trkpt lat="43.33508" lon="2.52939">
        <ele>298.9</ele>
        <time>2017-02-25T12:52:43Z</time>
      </trkpt>
      <trkpt lat="43.33514" lon="2.52931">
        <ele>300</ele>
        <time>2017-02-25T12:52:50Z</time>
      </trkpt>
      <trkpt lat="43.3352" lon="2.52924">
        <ele>300.3</ele>
        <time>2017-02-25T12:52:55Z</time>
      </trkpt>
      <trkpt lat="43.33526" lon="2.52918">
        <ele>300.6</ele>
        <time>2017-02-25T12:53:00Z</time>
      </trkpt>
      <trkpt lat="43.33532" lon="2.52912">
        <ele>300.5</ele>
        <time>2017-02-25T12:53:06Z</time>
      </trkpt>
      <trkpt lat="43.3354" lon="2.52908">
        <ele>300</ele>
        <time>2017-02-25T12:53:13Z</time>
      </trkpt>
      <trkpt lat="43.33547" lon="2.52907">
        <ele>300.5</ele>
        <time>2017-02-25T12:53:19Z</time>
      </trkpt>
      <trkpt lat="43.33556" lon="2.52906">
        <ele>300.4</ele>
        <time>2017-02-25T12:53:25Z</time>
      </trkpt>
      <trkpt lat="43.33563" lon="2.52902">
        <ele>302.1</ele>
        <time>2017-02-25T12:53:31Z</time>
      </trkpt>
      <trkpt lat="43.3357" lon="2.529">
        <ele>303.5</ele>
        <time>2017-02-25T12:53:36Z</time>
      </trkpt>
      <trkpt lat="43.33577" lon="2.52894">
        <ele>303.4</ele>
        <time>2017-02-25T12:53:41Z</time>
      </trkpt>
      <trkpt lat="43.33583" lon="2.52889">
        <ele>304.9</ele>
        <time>2017-02-25T12:53:47Z</time>
      </trkpt>
      <trkpt lat="43.33588" lon="2.52884">
        <ele>305.6</ele>
        <time>2017-02-25T12:53:54Z</time>
      </trkpt>
      <trkpt lat="43.33595" lon="2.5288">
        <ele>307.4</ele>
        <time>2017-02-25T12:54:01Z</time>
      </trkpt>
      <trkpt lat="43.33603" lon="2.52877">
        <ele>309.1</ele>
        <time>2017-02-25T12:54:07Z</time>
      </trkpt>
      <trkpt lat="43.33611" lon="2.52876">
        <ele>311.3</ele>
        <time>2017-02-25T12:54:12Z</time>
      </trkpt>
      <trkpt lat="43.33617" lon="2.52869">
        <ele>313.4</ele>
        <time>2017-02-25T12:54:19Z</time>
      </trkpt>
      <trkpt lat="43.33622" lon="2.52861">
        <ele>314</ele>
        <time>2017-02-25T12:54:25Z</time>
      </trkpt>
      <trkpt lat="43.33627" lon="2.52853">
        <ele>313</ele>
        <time>2017-02-25T12:54:30Z</time>
      </trkpt>
      <trkpt lat="43.33632" lon="2.52846">
        <ele>313.1</ele>
        <time>2017-02-25T12:54:37Z</time>
      </trkpt>
      <trkpt lat="43.33639" lon="2.52841">
        <ele>313.1</ele>
        <time>2017-02-25T12:54:43Z</time>
      </trkpt>
      <trkpt lat="43.33646" lon="2.52836">
        <ele>313.2</ele>
        <time>2017-02-25T12:54:49Z</time>
      </trkpt>
      <trkpt lat="43.33653" lon="2.52831">
        <ele>313.2</ele>
        <time>2017-02-25T12:54:55Z</time>
      </trkpt>
      <trkpt lat="43.3366" lon="2.52828">
        <ele>312.9</ele>
        <time>2017-02-25T12:55:02Z</time>
      </trkpt>
      <trkpt lat="43.33668" lon="2.52829">
        <ele>312.6</ele>
        <time>2017-02-25T12:55:08Z</time>
      </trkpt>
      <trkpt lat="43.33676" lon="2.52828">
        <ele>313</ele>
        <time>2017-02-25T12:55:14Z</time>
      </trkpt>
      <trkpt lat="43.33684" lon="2.52827">
        <ele>315.4</ele>
        <time>2017-02-25T12:55:21Z</time>
      </trkpt>
      <trkpt lat="43.33689" lon="2.52828">
        <ele>319.1</ele>
        <time>2017-02-25T12:55:28Z</time>
      </trkpt>
      <trkpt lat="43.33695" lon="2.5283">
        <ele>321</ele>
        <time>2017-02-25T12:55:35Z</time>
      </trkpt>
      <trkpt lat="43.33703" lon="2.5283">
        <ele>322.4</ele>
        <time>2017-02-25T12:55:41Z</time>
      </trkpt>
      <trkpt lat="43.33709" lon="2.52834">
        <ele>324.1</ele>
        <time>2017-02-25T12:55:48Z</time>
      </trkpt>
      <trkpt lat="43.33717" lon="2.52837">
        <ele>324.6</ele>
        <time>2017-02-25T12:55:54Z</time>
      </trkpt>
      <trkpt lat="43.33723" lon="2.52841">
        <ele>324.1</ele>
        <time>2017-02-25T12:56:00Z</time>
      </trkpt>
      <trkpt lat="43.33731" lon="2.52844">
        <ele>325</ele>
        <time>2017-02-25T12:56:06Z</time>
      </trkpt>
      <trkpt lat="43.33738" lon="2.52846">
        <ele>326.7</ele>
        <time>2017-02-25T12:56:13Z</time>
      </trkpt>
      <trkpt lat="43.33746" lon="2.5285">
        <ele>327.8</ele>
        <time>2017-02-25T12:56:20Z</time>
      </trkpt>
      <trkpt lat="43.33754" lon="2.52852">
        <ele>328.5</ele>
        <time>2017-02-25T12:56:27Z</time>
      </trkpt>
      <trkpt lat="43.33762" lon="2.52853">
        <ele>328.4</ele>
        <time>2017-02-25T12:56:34Z</time>
      </trkpt>
      <trkpt lat="43.3377" lon="2.52854">
        <ele>329</ele>
        <time>2017-02-25T12:56:40Z</time>
      </trkpt>
      <trkpt lat="43.33778" lon="2.52859">
        <ele>330</ele>
        <time>2017-02-25T12:56:47Z</time>
      </trkpt>
      <trkpt lat="43.33785" lon="2.52858">
        <ele>331.2</ele>
        <time>2017-02-25T12:56:52Z</time>
      </trkpt>
      <trkpt lat="43.33793" lon="2.52858">
        <ele>332.5</ele>
        <time>2017-02-25T12:56:59Z</time>
      </trkpt>
      <trkpt lat="43.338" lon="2.52855">
        <ele>333.4</ele>
        <time>2017-02-25T12:57:06Z</time>
      </trkpt>
      <trkpt lat="43.33806" lon="2.5285">
        <ele>334</ele>
        <time>2017-02-25T12:57:12Z</time>
      </trkpt>
      <trkpt lat="43.33813" lon="2.52844">
        <ele>334.3</ele>
        <time>2017-02-25T12:57:18Z</time>
      </trkpt>
      <trkpt lat="43.33815" lon="2.52835">
        <ele>335.1</ele>
        <time>2017-02-25T12:57:25Z</time>
      </trkpt>
      <trkpt lat="43.33816" lon="2.52827">
        <ele>336.3</ele>
        <time>2017-02-25T12:57:32Z</time>
      </trkpt>
      <trkpt lat="43.33821" lon="2.52819">
        <ele>337</ele>
        <time>2017-02-25T12:57:39Z</time>
      </trkpt>
      <trkpt lat="43.33828" lon="2.52813">
        <ele>337.6</ele>
        <time>2017-02-25T12:57:45Z</time>
      </trkpt>
      <trkpt lat="43.33835" lon="2.52808">
        <ele>338.4</ele>
        <time>2017-02-25T12:57:52Z</time>
      </trkpt>
      <trkpt lat="43.33842" lon="2.52805">
        <ele>339.3</ele>
        <time>2017-02-25T12:57:59Z</time>
      </trkpt>
      <trkpt lat="43.33849" lon="2.52804">
        <ele>340.1</ele>
        <time>2017-02-25T12:58:04Z</time>
      </trkpt>
      <trkpt lat="43.33856" lon="2.528">
        <ele>341.2</ele>
        <time>2017-02-25T12:58:11Z</time>
      </trkpt>
      <trkpt lat="43.33863" lon="2.52795">
        <ele>342.3</ele>
        <time>2017-02-25T12:58:18Z</time>
      </trkpt>
      <trkpt lat="43.3387" lon="2.52791">
        <ele>343.4</ele>
        <time>2017-02-25T12:58:24Z</time>
      </trkpt>
      <trkpt lat="43.33878" lon="2.52788">
        <ele>344.4</ele>
        <time>2017-02-25T12:58:30Z</time>
      </trkpt>
      <trkpt lat="43.33886" lon="2.52787">
        <ele>345.5</ele>
        <time>2017-02-25T12:58:37Z</time>
      </trkpt>
      <trkpt lat="43.33893" lon="2.52786">
        <ele>346.7</ele>
        <time>2017-02-25T12:58:44Z</time>
      </trkpt>
      <trkpt lat="43.33899" lon="2.52786">
        <ele>347.9</ele>
        <time>2017-02-25T12:58:51Z</time>
      </trkpt>
      <trkpt lat="43.33907" lon="2.52786">
        <ele>348.7</ele>
        <time>2017-02-25T12:58:56Z</time>
      </trkpt>
      <trkpt lat="43.33916" lon="2.52784">
        <ele>349.6</ele>
        <time>2017-02-25T12:59:03Z</time>
      </trkpt>
      <trkpt lat="43.33923" lon="2.52783">
        <ele>349.7</ele>
        <time>2017-02-25T12:59:09Z</time>
      </trkpt>
      <trkpt lat="43.3393" lon="2.52781">
        <ele>349.3</ele>
        <time>2017-02-25T12:59:14Z</time>
      </trkpt>
      <trkpt lat="43.33938" lon="2.52779">
        <ele>348.7</ele>
        <time>2017-02-25T12:59:21Z</time>
      </trkpt>
      <trkpt lat="43.33946" lon="2.52777">
        <ele>348.4</ele>
        <time>2017-02-25T12:59:26Z</time>
      </trkpt>
      <trkpt lat="43.33952" lon="2.52774">
        <ele>348</ele>
        <time>2017-02-25T12:59:33Z</time>
      </trkpt>
      <trkpt lat="43.33959" lon="2.52771">
        <ele>346.9</ele>
        <time>2017-02-25T12:59:39Z</time>
      </trkpt>
      <trkpt lat="43.33967" lon="2.52767">
        <ele>345.6</ele>
        <time>2017-02-25T12:59:46Z</time>
      </trkpt>
      <trkpt lat="43.33971" lon="2.5276">
        <ele>344.1</ele>
        <time>2017-02-25T12:59:53Z</time>
      </trkpt>
      <trkpt lat="43.33977" lon="2.52752">
        <ele>342.5</ele>
        <time>2017-02-25T12:59:59Z</time>
      </trkpt>
      <trkpt lat="43.33982" lon="2.52743">
        <ele>341.4</ele>
        <time>2017-02-25T13:00:06Z</time>
      </trkpt>
      <trkpt lat="43.33985" lon="2.52735">
        <ele>341.2</ele>
        <time>2017-02-25T13:00:13Z</time>
      </trkpt>
      <trkpt lat="43.33988" lon="2.52729">
        <ele>341.1</ele>
        <time>2017-02-25T13:00:20Z</time>
      </trkpt>
      <trkpt lat="43.33992" lon="2.52719">
        <ele>340.2</ele>
        <time>2017-02-25T13:00:36Z</time>
      </trkpt>
      <trkpt lat="43.33997" lon="2.52713">
        <ele>339.6</ele>
        <time>2017-02-25T13:00:43Z</time>
      </trkpt>
      <trkpt lat="43.33998" lon="2.5271">
        <ele>339.7</ele>
        <time>2017-02-25T13:00:50Z</time>
      </trkpt>
      <trkpt lat="43.34" lon="2.52705">
        <ele>339.5</ele>
        <time>2017-02-25T13:00:57Z</time>
      </trkpt>
      <trkpt lat="43.34005" lon="2.52697">
        <ele>337.6</ele>
        <time>2017-02-25T13:01:03Z</time>
      </trkpt>
      <trkpt lat="43.34011" lon="2.52694">
        <ele>337.3</ele>
        <time>2017-02-25T13:01:10Z</time>
      </trkpt>
      <trkpt lat="43.34017" lon="2.52697">
        <ele>336.9</ele>
        <time>2017-02-25T13:01:17Z</time>
      </trkpt>
      <trkpt lat="43.34021" lon="2.52703">
        <ele>336.6</ele>
        <time>2017-02-25T13:01:24Z</time>
      </trkpt>
      <trkpt lat="43.34027" lon="2.5271">
        <ele>336.2</ele>
        <time>2017-02-25T13:01:30Z</time>
      </trkpt>
      <trkpt lat="43.34032" lon="2.52718">
        <ele>335.4</ele>
        <time>2017-02-25T13:01:37Z</time>
      </trkpt>
      <trkpt lat="43.34037" lon="2.52724">
        <ele>334.7</ele>
        <time>2017-02-25T13:01:43Z</time>
      </trkpt>
      <trkpt lat="43.34045" lon="2.5273">
        <ele>334.1</ele>
        <time>2017-02-25T13:01:49Z</time>
      </trkpt>
      <trkpt lat="43.34052" lon="2.52735">
        <ele>333.5</ele>
        <time>2017-02-25T13:01:55Z</time>
      </trkpt>
      <trkpt lat="43.34059" lon="2.5274">
        <ele>332.7</ele>
        <time>2017-02-25T13:02:01Z</time>
      </trkpt>
      <trkpt lat="43.34065" lon="2.52744">
        <ele>331.7</ele>
        <time>2017-02-25T13:02:08Z</time>
      </trkpt>
      <trkpt lat="43.34072" lon="2.52749">
        <ele>330.7</ele>
        <time>2017-02-25T13:02:13Z</time>
      </trkpt>
      <trkpt lat="43.34079" lon="2.52752">
        <ele>329.8</ele>
        <time>2017-02-25T13:02:17Z</time>
      </trkpt>
      <trkpt lat="43.34086" lon="2.52756">
        <ele>329</ele>
        <time>2017-02-25T13:02:21Z</time>
      </trkpt>
      <trkpt lat="43.34094" lon="2.5276">
        <ele>328.3</ele>
        <time>2017-02-25T13:02:26Z</time>
      </trkpt>
      <trkpt lat="43.34102" lon="2.52759">
        <ele>328.3</ele>
        <time>2017-02-25T13:02:31Z</time>
      </trkpt>
      <trkpt lat="43.34109" lon="2.5276">
        <ele>327.7</ele>
        <time>2017-02-25T13:02:37Z</time>
      </trkpt>
      <trkpt lat="43.34117" lon="2.5276">
        <ele>327.1</ele>
        <time>2017-02-25T13:02:44Z</time>
      </trkpt>
      <trkpt lat="43.34125" lon="2.5276">
        <ele>327.3</ele>
        <time>2017-02-25T13:02:50Z</time>
      </trkpt>
      <trkpt lat="43.34133" lon="2.5276">
        <ele>327.2</ele>
        <time>2017-02-25T13:02:57Z</time>
      </trkpt>
      <trkpt lat="43.34141" lon="2.52758">
        <ele>327.2</ele>
        <time>2017-02-25T13:03:04Z</time>
      </trkpt>
      <trkpt lat="43.34149" lon="2.52756">
        <ele>326.5</ele>
        <time>2017-02-25T13:03:10Z</time>
      </trkpt>
      <trkpt lat="43.34151" lon="2.52756">
        <ele>325.8</ele>
        <time>2017-02-25T13:03:17Z</time>
      </trkpt>
      <trkpt lat="43.34158" lon="2.52754">
        <ele>324.5</ele>
        <time>2017-02-25T13:03:25Z</time>
      </trkpt>
      <trkpt lat="43.34166" lon="2.52753">
        <ele>325.3</ele>
        <time>2017-02-25T13:03:32Z</time>
      </trkpt>
      <trkpt lat="43.34174" lon="2.52751">
        <ele>326.4</ele>
        <time>2017-02-25T13:03:39Z</time>
      </trkpt>
      <trkpt lat="43.34182" lon="2.52748">
        <ele>327.2</ele>
        <time>2017-02-25T13:03:46Z</time>
      </trkpt>
      <trkpt lat="43.34187" lon="2.52746">
        <ele>326.3</ele>
        <time>2017-02-25T13:03:53Z</time>
      </trkpt>
      <trkpt lat="43.34194" lon="2.52745">
        <ele>325.8</ele>
        <time>2017-02-25T13:04:00Z</time>
      </trkpt>
      <trkpt lat="43.34202" lon="2.52742">
        <ele>325.6</ele>
        <time>2017-02-25T13:04:06Z</time>
      </trkpt>
      <trkpt lat="43.3421" lon="2.52738">
        <ele>324.8</ele>
        <time>2017-02-25T13:04:13Z</time>
      </trkpt>
      <trkpt lat="43.34218" lon="2.52735">
        <ele>324</ele>
        <time>2017-02-25T13:04:18Z</time>
      </trkpt>
      <trkpt lat="43.34226" lon="2.52731">
        <ele>323.7</ele>
        <time>2017-02-25T13:04:25Z</time>
      </trkpt>
      <trkpt lat="43.34234" lon="2.52728">
        <ele>322.8</ele>
        <time>2017-02-25T13:04:31Z</time>
      </trkpt>
      <trkpt lat="43.34242" lon="2.52727">
        <ele>321.6</ele>
        <time>2017-02-25T13:04:37Z</time>
      </trkpt>
      <trkpt lat="43.34249" lon="2.52723">
        <ele>321</ele>
        <time>2017-02-25T13:04:44Z</time>
      </trkpt>
      <trkpt lat="43.34257" lon="2.52723">
        <ele>320.1</ele>
        <time>2017-02-25T13:04:49Z</time>
      </trkpt>
      <trkpt lat="43.34264" lon="2.5272">
        <ele>318.5</ele>
        <time>2017-02-25T13:04:56Z</time>
      </trkpt>
      <trkpt lat="43.34272" lon="2.52718">
        <ele>318.6</ele>
        <time>2017-02-25T13:05:01Z</time>
      </trkpt>
      <trkpt lat="43.3428" lon="2.52716">
        <ele>318.6</ele>
        <time>2017-02-25T13:05:06Z</time>
      </trkpt>
      <trkpt lat="43.34288" lon="2.52714">
        <ele>317.9</ele>
        <time>2017-02-25T13:05:11Z</time>
      </trkpt>
      <trkpt lat="43.34294" lon="2.5271">
        <ele>317.1</ele>
        <time>2017-02-25T13:05:17Z</time>
      </trkpt>
      <trkpt lat="43.34303" lon="2.52708">
        <ele>316.5</ele>
        <time>2017-02-25T13:05:23Z</time>
      </trkpt>
      <trkpt lat="43.3431" lon="2.52705">
        <ele>316.4</ele>
        <time>2017-02-25T13:05:30Z</time>
      </trkpt>
      <trkpt lat="43.34316" lon="2.527">
        <ele>316.8</ele>
        <time>2017-02-25T13:05:37Z</time>
      </trkpt>
      <trkpt lat="43.34322" lon="2.52692">
        <ele>316.5</ele>
        <time>2017-02-25T13:05:44Z</time>
      </trkpt>
      <trkpt lat="43.34327" lon="2.52686">
        <ele>315</ele>
        <time>2017-02-25T13:05:49Z</time>
      </trkpt>
      <trkpt lat="43.34331" lon="2.52678">
        <ele>313.7</ele>
        <time>2017-02-25T13:05:55Z</time>
      </trkpt>
      <trkpt lat="43.34338" lon="2.52672">
        <ele>311.9</ele>
        <time>2017-02-25T13:06:00Z</time>
      </trkpt>
      <trkpt lat="43.34344" lon="2.52663">
        <ele>310.9</ele>
        <time>2017-02-25T13:06:07Z</time>
      </trkpt>
      <trkpt lat="43.34347" lon="2.52655">
        <ele>310.2</ele>
        <time>2017-02-25T13:06:12Z</time>
      </trkpt>
      <trkpt lat="43.3435" lon="2.52645">
        <ele>309.8</ele>
        <time>2017-02-25T13:06:18Z</time>
      </trkpt>
      <trkpt lat="43.34355" lon="2.52638">
        <ele>309.7</ele>
        <time>2017-02-25T13:06:24Z</time>
      </trkpt>
      <trkpt lat="43.34362" lon="2.52631">
        <ele>308.7</ele>
        <time>2017-02-25T13:06:30Z</time>
      </trkpt>
      <trkpt lat="43.34369" lon="2.52626">
        <ele>308.4</ele>
        <time>2017-02-25T13:06:36Z</time>
      </trkpt>
      <trkpt lat="43.34375" lon="2.52619">
        <ele>307.5</ele>
        <time>2017-02-25T13:06:43Z</time>
      </trkpt>
      <trkpt lat="43.3438" lon="2.52611">
        <ele>305.8</ele>
        <time>2017-02-25T13:06:49Z</time>
      </trkpt>
      <trkpt lat="43.34384" lon="2.52603">
        <ele>304.9</ele>
        <time>2017-02-25T13:06:55Z</time>
      </trkpt>
      <trkpt lat="43.34387" lon="2.52601">
        <ele>304.1</ele>
        <time>2017-02-25T13:07:02Z</time>
      </trkpt>
      <trkpt lat="43.3438" lon="2.52599">
        <ele>303.3</ele>
        <time>2017-02-25T13:07:09Z</time>
      </trkpt>
      <trkpt lat="43.34374" lon="2.52601">
        <ele>302.5</ele>
        <time>2017-02-25T13:07:16Z</time>
      </trkpt>
      <trkpt lat="43.34368" lon="2.52603">
        <ele>301.4</ele>
        <time>2017-02-25T13:07:23Z</time>
      </trkpt>
      <trkpt lat="43.3436" lon="2.52606">
        <ele>300.9</ele>
        <time>2017-02-25T13:07:30Z</time>
      </trkpt>
      <trkpt lat="43.34352" lon="2.52607">
        <ele>300</ele>
        <time>2017-02-25T13:07:37Z</time>
      </trkpt>
      <trkpt lat="43.34345" lon="2.52609">
        <ele>297.8</ele>
        <time>2017-02-25T13:07:42Z</time>
      </trkpt>
      <trkpt lat="43.34337" lon="2.52611">
        <ele>295.8</ele>
        <time>2017-02-25T13:07:48Z</time>
      </trkpt>
      <trkpt lat="43.3433" lon="2.52612">
        <ele>294.2</ele>
        <time>2017-02-25T13:07:55Z</time>
      </trkpt>
      <trkpt lat="43.34323" lon="2.52617">
        <ele>293.5</ele>
        <time>2017-02-25T13:08:01Z</time>
      </trkpt>
      <trkpt lat="43.34315" lon="2.52623">
        <ele>292.5</ele>
        <time>2017-02-25T13:08:08Z</time>
      </trkpt>
      <trkpt lat="43.34311" lon="2.52626">
        <ele>291.9</ele>
        <time>2017-02-25T13:08:15Z</time>
      </trkpt>
      <trkpt lat="43.34305" lon="2.52633">
        <ele>290.3</ele>
        <time>2017-02-25T13:08:21Z</time>
      </trkpt>
      <trkpt lat="43.34299" lon="2.52639">
        <ele>288.8</ele>
        <time>2017-02-25T13:08:25Z</time>
      </trkpt>
      <trkpt lat="43.34293" lon="2.52644">
        <ele>287.5</ele>
        <time>2017-02-25T13:08:31Z</time>
      </trkpt>
      <trkpt lat="43.34291" lon="2.5264">
        <ele>285.8</ele>
        <time>2017-02-25T13:08:38Z</time>
      </trkpt>
      <trkpt lat="43.3429" lon="2.52635">
        <ele>285.3</ele>
        <time>2017-02-25T13:08:45Z</time>
      </trkpt>
      <trkpt lat="43.3429" lon="2.52625">
        <ele>285.8</ele>
        <time>2017-02-25T13:09:04Z</time>
      </trkpt>
      <trkpt lat="43.34291" lon="2.52617">
        <ele>285.3</ele>
        <time>2017-02-25T13:09:11Z</time>
      </trkpt>
      <trkpt lat="43.34295" lon="2.52609">
        <ele>285.2</ele>
        <time>2017-02-25T13:09:18Z</time>
      </trkpt>
      <trkpt lat="43.34297" lon="2.526">
        <ele>284.9</ele>
        <time>2017-02-25T13:09:25Z</time>
      </trkpt>
      <trkpt lat="43.34302" lon="2.52592">
        <ele>284.5</ele>
        <time>2017-02-25T13:09:32Z</time>
      </trkpt>
      <trkpt lat="43.34307" lon="2.52591">
        <ele>284.2</ele>
        <time>2017-02-25T13:09:39Z</time>
      </trkpt>
      <trkpt lat="43.34314" lon="2.52588">
        <ele>283.1</ele>
        <time>2017-02-25T13:09:46Z</time>
      </trkpt>
      <trkpt lat="43.34321" lon="2.52584">
        <ele>281.8</ele>
        <time>2017-02-25T13:09:52Z</time>
      </trkpt>
      <trkpt lat="43.34329" lon="2.52582">
        <ele>279.7</ele>
        <time>2017-02-25T13:09:58Z</time>
      </trkpt>
      <trkpt lat="43.34336" lon="2.52579">
        <ele>278.2</ele>
        <time>2017-02-25T13:10:02Z</time>
      </trkpt>
      <trkpt lat="43.34343" lon="2.52573">
        <ele>276.2</ele>
        <time>2017-02-25T13:10:08Z</time>
      </trkpt>
      <trkpt lat="43.34345" lon="2.52566">
        <ele>274.8</ele>
        <time>2017-02-25T13:10:15Z</time>
      </trkpt>
      <trkpt lat="43.34351" lon="2.52559">
        <ele>273.6</ele>
        <time>2017-02-25T13:10:22Z</time>
      </trkpt>
      <trkpt lat="43.34356" lon="2.52552">
        <ele>272.3</ele>
        <time>2017-02-25T13:10:28Z</time>
      </trkpt>
      <trkpt lat="43.34361" lon="2.52544">
        <ele>270.9</ele>
        <time>2017-02-25T13:10:35Z</time>
      </trkpt>
      <trkpt lat="43.34367" lon="2.52535">
        <ele>269.5</ele>
        <time>2017-02-25T13:10:41Z</time>
      </trkpt>
      <trkpt lat="43.34371" lon="2.52526">
        <ele>268.4</ele>
        <time>2017-02-25T13:10:47Z</time>
      </trkpt>
      <trkpt lat="43.34375" lon="2.52519">
        <ele>267.4</ele>
        <time>2017-02-25T13:10:53Z</time>
      </trkpt>
      <trkpt lat="43.3438" lon="2.52509">
        <ele>266.6</ele>
        <time>2017-02-25T13:11:00Z</time>
      </trkpt>
      <trkpt lat="43.34383" lon="2.52501">
        <ele>265.9</ele>
        <time>2017-02-25T13:11:07Z</time>
      </trkpt>
      <trkpt lat="43.34386" lon="2.52484">
        <ele>271.5</ele>
        <time>2017-02-25T13:13:53Z</time>
      </trkpt>
      <trkpt lat="43.34388" lon="2.52474">
        <ele>271.1</ele>
        <time>2017-02-25T13:14:00Z</time>
      </trkpt>
      <trkpt lat="43.3439" lon="2.52463">
        <ele>270.7</ele>
        <time>2017-02-25T13:14:06Z</time>
      </trkpt>
      <trkpt lat="43.34398" lon="2.52457">
        <ele>269.8</ele>
        <time>2017-02-25T13:14:13Z</time>
      </trkpt>
      <trkpt lat="43.34405" lon="2.52452">
        <ele>269.4</ele>
        <time>2017-02-25T13:14:19Z</time>
      </trkpt>
      <trkpt lat="43.34412" lon="2.52449">
        <ele>268.9</ele>
        <time>2017-02-25T13:14:25Z</time>
      </trkpt>
      <trkpt lat="43.3442" lon="2.52452">
        <ele>268.3</ele>
        <time>2017-02-25T13:14:31Z</time>
      </trkpt>
      <trkpt lat="43.34427" lon="2.52454">
        <ele>267.7</ele>
        <time>2017-02-25T13:14:37Z</time>
      </trkpt>
      <trkpt lat="43.34435" lon="2.52452">
        <ele>267.6</ele>
        <time>2017-02-25T13:14:43Z</time>
      </trkpt>
      <trkpt lat="43.34442" lon="2.52451">
        <ele>268.2</ele>
        <time>2017-02-25T13:14:50Z</time>
      </trkpt>
      <trkpt lat="43.34448" lon="2.52446">
        <ele>267.7</ele>
        <time>2017-02-25T13:14:55Z</time>
      </trkpt>
      <trkpt lat="43.34456" lon="2.52442">
        <ele>267.2</ele>
        <time>2017-02-25T13:15:00Z</time>
      </trkpt>
      <trkpt lat="43.34464" lon="2.5244">
        <ele>268</ele>
        <time>2017-02-25T13:15:05Z</time>
      </trkpt>
      <trkpt lat="43.34471" lon="2.52438">
        <ele>268.7</ele>
        <time>2017-02-25T13:15:10Z</time>
      </trkpt>
      <trkpt lat="43.34478" lon="2.52436">
        <ele>268.8</ele>
        <time>2017-02-25T13:15:17Z</time>
      </trkpt>
      <trkpt lat="43.34484" lon="2.52435">
        <ele>267.9</ele>
        <time>2017-02-25T13:15:24Z</time>
      </trkpt>
      <trkpt lat="43.34493" lon="2.52433">
        <ele>268.5</ele>
        <time>2017-02-25T13:15:31Z</time>
      </trkpt>
      <trkpt lat="43.345" lon="2.52432">
        <ele>267.5</ele>
        <time>2017-02-25T13:15:38Z</time>
      </trkpt>
      <trkpt lat="43.34509" lon="2.52433">
        <ele>267.4</ele>
        <time>2017-02-25T13:15:44Z</time>
      </trkpt>
      <trkpt lat="43.34518" lon="2.52432">
        <ele>267.8</ele>
        <time>2017-02-25T13:15:49Z</time>
      </trkpt>
      <trkpt lat="43.34525" lon="2.52432">
        <ele>267.1</ele>
        <time>2017-02-25T13:15:54Z</time>
      </trkpt>
      <trkpt lat="43.34533" lon="2.52433">
        <ele>266.3</ele>
        <time>2017-02-25T13:15:59Z</time>
      </trkpt>
      <trkpt lat="43.34541" lon="2.52435">
        <ele>265.2</ele>
        <time>2017-02-25T13:16:04Z</time>
      </trkpt>
      <trkpt lat="43.34549" lon="2.52437">
        <ele>264.2</ele>
        <time>2017-02-25T13:16:10Z</time>
      </trkpt>
      <trkpt lat="43.34557" lon="2.52438">
        <ele>265.1</ele>
        <time>2017-02-25T13:16:15Z</time>
      </trkpt>
      <trkpt lat="43.34566" lon="2.52438">
        <ele>264.3</ele>
        <time>2017-02-25T13:16:22Z</time>
      </trkpt>
      <trkpt lat="43.34573" lon="2.52439">
        <ele>262.5</ele>
        <time>2017-02-25T13:16:29Z</time>
      </trkpt>
      <trkpt lat="43.34581" lon="2.52438">
        <ele>262.7</ele>
        <time>2017-02-25T13:16:35Z</time>
      </trkpt>
      <trkpt lat="43.34588" lon="2.52434">
        <ele>262.4</ele>
        <time>2017-02-25T13:16:41Z</time>
      </trkpt>
      <trkpt lat="43.34595" lon="2.52429">
        <ele>261.9</ele>
        <time>2017-02-25T13:16:48Z</time>
      </trkpt>
      <trkpt lat="43.346" lon="2.52425">
        <ele>259.6</ele>
        <time>2017-02-25T13:16:55Z</time>
      </trkpt>
      <trkpt lat="43.34608" lon="2.52421">
        <ele>258.5</ele>
        <time>2017-02-25T13:17:02Z</time>
      </trkpt>
      <trkpt lat="43.34615" lon="2.52418">
        <ele>257.7</ele>
        <time>2017-02-25T13:17:07Z</time>
      </trkpt>
      <trkpt lat="43.34623" lon="2.52413">
        <ele>256.8</ele>
        <time>2017-02-25T13:17:12Z</time>
      </trkpt>
      <trkpt lat="43.34629" lon="2.52408">
        <ele>256.4</ele>
        <time>2017-02-25T13:17:18Z</time>
      </trkpt>
      <trkpt lat="43.34631" lon="2.52407">
        <ele>255.9</ele>
        <time>2017-02-25T13:17:25Z</time>
      </trkpt>
      <trkpt lat="43.34635" lon="2.52398">
        <ele>257.5</ele>
        <time>2017-02-25T13:17:32Z</time>
      </trkpt>
      <trkpt lat="43.34639" lon="2.5239">
        <ele>256.6</ele>
        <time>2017-02-25T13:17:39Z</time>
      </trkpt>
      <trkpt lat="43.34645" lon="2.52383">
        <ele>256.2</ele>
        <time>2017-02-25T13:17:46Z</time>
      </trkpt>
      <trkpt lat="43.34652" lon="2.52377">
        <ele>253.9</ele>
        <time>2017-02-25T13:17:53Z</time>
      </trkpt>
      <trkpt lat="43.34658" lon="2.52373">
        <ele>252.7</ele>
        <time>2017-02-25T13:18:00Z</time>
      </trkpt>
      <trkpt lat="43.34663" lon="2.52369">
        <ele>251.4</ele>
        <time>2017-02-25T13:18:07Z</time>
      </trkpt>
      <trkpt lat="43.3467" lon="2.52365">
        <ele>248.6</ele>
        <time>2017-02-25T13:18:12Z</time>
      </trkpt>
      <trkpt lat="43.34679" lon="2.5236">
        <ele>246.6</ele>
        <time>2017-02-25T13:18:16Z</time>
      </trkpt>
      <trkpt lat="43.34686" lon="2.52358">
        <ele>246.2</ele>
        <time>2017-02-25T13:18:20Z</time>
      </trkpt>
      <trkpt lat="43.34696" lon="2.52356">
        <ele>246.3</ele>
        <time>2017-02-25T13:18:24Z</time>
      </trkpt>
      <trkpt lat="43.34704" lon="2.52355">
        <ele>244.8</ele>
        <time>2017-02-25T13:18:30Z</time>
      </trkpt>
      <trkpt lat="43.34709" lon="2.52352">
        <ele>241.5</ele>
        <time>2017-02-25T13:18:37Z</time>
      </trkpt>
      <trkpt lat="43.34715" lon="2.5235">
        <ele>240.8</ele>
        <time>2017-02-25T13:18:44Z</time>
      </trkpt>
      <trkpt lat="43.34722" lon="2.52345">
        <ele>240.4</ele>
        <time>2017-02-25T13:18:51Z</time>
      </trkpt>
      <trkpt lat="43.34727" lon="2.52339">
        <ele>240</ele>
        <time>2017-02-25T13:18:58Z</time>
      </trkpt>
      <trkpt lat="43.34732" lon="2.52332">
        <ele>239.8</ele>
        <time>2017-02-25T13:19:05Z</time>
      </trkpt>
      <trkpt lat="43.34738" lon="2.52331">
        <ele>239.8</ele>
        <time>2017-02-25T13:19:12Z</time>
      </trkpt>
      <trkpt lat="43.34743" lon="2.52322">
        <ele>239.5</ele>
        <time>2017-02-25T13:19:18Z</time>
      </trkpt>
      <trkpt lat="43.34742" lon="2.52311">
        <ele>239.1</ele>
        <time>2017-02-25T13:19:25Z</time>
      </trkpt>
      <trkpt lat="43.34743" lon="2.523">
        <ele>239.3</ele>
        <time>2017-02-25T13:19:32Z</time>
      </trkpt>
      <trkpt lat="43.34747" lon="2.52291">
        <ele>239.1</ele>
        <time>2017-02-25T13:19:38Z</time>
      </trkpt>
      <trkpt lat="43.3475" lon="2.52282">
        <ele>238.4</ele>
        <time>2017-02-25T13:19:43Z</time>
      </trkpt>
      <trkpt lat="43.34754" lon="2.52272">
        <ele>238.9</ele>
        <time>2017-02-25T13:19:49Z</time>
      </trkpt>
      <trkpt lat="43.34758" lon="2.52262">
        <ele>238.4</ele>
        <time>2017-02-25T13:19:55Z</time>
      </trkpt>
      <trkpt lat="43.34763" lon="2.52254">
        <ele>238.1</ele>
        <time>2017-02-25T13:20:01Z</time>
      </trkpt>
      <trkpt lat="43.34767" lon="2.52246">
        <ele>238.2</ele>
        <time>2017-02-25T13:20:06Z</time>
      </trkpt>
      <trkpt lat="43.34772" lon="2.52236">
        <ele>238.4</ele>
        <time>2017-02-25T13:20:12Z</time>
      </trkpt>
      <trkpt lat="43.34777" lon="2.52228">
        <ele>238.4</ele>
        <time>2017-02-25T13:20:18Z</time>
      </trkpt>
      <trkpt lat="43.34782" lon="2.5222">
        <ele>238</ele>
        <time>2017-02-25T13:20:24Z</time>
      </trkpt>
      <trkpt lat="43.34788" lon="2.52214">
        <ele>237.5</ele>
        <time>2017-02-25T13:20:31Z</time>
      </trkpt>
      <trkpt lat="43.34795" lon="2.52206">
        <ele>237.7</ele>
        <time>2017-02-25T13:20:37Z</time>
      </trkpt>
      <trkpt lat="43.348" lon="2.52199">
        <ele>237.2</ele>
        <time>2017-02-25T13:20:42Z</time>
      </trkpt>
      <trkpt lat="43.34806" lon="2.52191">
        <ele>237.1</ele>
        <time>2017-02-25T13:20:48Z</time>
      </trkpt>
      <trkpt lat="43.34813" lon="2.52185">
        <ele>237.5</ele>
        <time>2017-02-25T13:20:55Z</time>
      </trkpt>
      <trkpt lat="43.34819" lon="2.5218">
        <ele>236.6</ele>
        <time>2017-02-25T13:21:02Z</time>
      </trkpt>
      <trkpt lat="43.34824" lon="2.52174">
        <ele>236.5</ele>
        <time>2017-02-25T13:21:09Z</time>
      </trkpt>
      <trkpt lat="43.34825" lon="2.52164">
        <ele>237.3</ele>
        <time>2017-02-25T13:21:16Z</time>
      </trkpt>
      <trkpt lat="43.34822" lon="2.52159">
        <ele>237.2</ele>
        <time>2017-02-25T13:21:23Z</time>
      </trkpt>
      <trkpt lat="43.34824" lon="2.5215">
        <ele>237.7</ele>
        <time>2017-02-25T13:21:30Z</time>
      </trkpt>
      <trkpt lat="43.34829" lon="2.52159">
        <ele>241.2</ele>
        <time>2017-02-25T13:22:01Z</time>
      </trkpt>
      <trkpt lat="43.34836" lon="2.5216">
        <ele>241.6</ele>
        <time>2017-02-25T13:22:08Z</time>
      </trkpt>
      <trkpt lat="43.34842" lon="2.52158">
        <ele>242.3</ele>
        <time>2017-02-25T13:22:15Z</time>
      </trkpt>
      <trkpt lat="43.34848" lon="2.52156">
        <ele>243.6</ele>
        <time>2017-02-25T13:22:22Z</time>
      </trkpt>
      <trkpt lat="43.34854" lon="2.52154">
        <ele>245.4</ele>
        <time>2017-02-25T13:22:29Z</time>
      </trkpt>
      <trkpt lat="43.3486" lon="2.52154">
        <ele>247</ele>
        <time>2017-02-25T13:22:36Z</time>
      </trkpt>
      <trkpt lat="43.34863" lon="2.52154">
        <ele>249.5</ele>
        <time>2017-02-25T13:22:43Z</time>
      </trkpt>
      <trkpt lat="43.3487" lon="2.52155">
        <ele>250.8</ele>
        <time>2017-02-25T13:22:50Z</time>
      </trkpt>
      <trkpt lat="43.34876" lon="2.52153">
        <ele>251.7</ele>
        <time>2017-02-25T13:22:57Z</time>
      </trkpt>
      <trkpt lat="43.34884" lon="2.52152">
        <ele>253.5</ele>
        <time>2017-02-25T13:23:04Z</time>
      </trkpt>
      <trkpt lat="43.34891" lon="2.52152">
        <ele>254.3</ele>
        <time>2017-02-25T13:23:11Z</time>
      </trkpt>
      <trkpt lat="43.34898" lon="2.5215">
        <ele>256.5</ele>
        <time>2017-02-25T13:23:18Z</time>
      </trkpt>
      <trkpt lat="43.34906" lon="2.52149">
        <ele>258.6</ele>
        <time>2017-02-25T13:23:25Z</time>
      </trkpt>
      <trkpt lat="43.34912" lon="2.52147">
        <ele>260.2</ele>
        <time>2017-02-25T13:23:32Z</time>
      </trkpt>
      <trkpt lat="43.34916" lon="2.52147">
        <ele>261.8</ele>
        <time>2017-02-25T13:23:39Z</time>
      </trkpt>
      <trkpt lat="43.34919" lon="2.52151">
        <ele>263.7</ele>
        <time>2017-02-25T13:23:46Z</time>
      </trkpt>
      <trkpt lat="43.34923" lon="2.52154">
        <ele>265.2</ele>
        <time>2017-02-25T13:23:53Z</time>
      </trkpt>
      <trkpt lat="43.34927" lon="2.52157">
        <ele>266.5</ele>
        <time>2017-02-25T13:24:00Z</time>
      </trkpt>
      <trkpt lat="43.34929" lon="2.52165">
        <ele>268.5</ele>
        <time>2017-02-25T13:24:07Z</time>
      </trkpt>
      <trkpt lat="43.34931" lon="2.5217">
        <ele>270.3</ele>
        <time>2017-02-25T13:24:14Z</time>
      </trkpt>
      <trkpt lat="43.34933" lon="2.52175">
        <ele>272</ele>
        <time>2017-02-25T13:24:21Z</time>
      </trkpt>
      <trkpt lat="43.34937" lon="2.5218">
        <ele>273.8</ele>
        <time>2017-02-25T13:24:28Z</time>
      </trkpt>
      <trkpt lat="43.34941" lon="2.52185">
        <ele>275.2</ele>
        <time>2017-02-25T13:24:35Z</time>
      </trkpt>
      <trkpt lat="43.34946" lon="2.52188">
        <ele>277</ele>
        <time>2017-02-25T13:24:42Z</time>
      </trkpt>
      <trkpt lat="43.34952" lon="2.52192">
        <ele>278.9</ele>
        <time>2017-02-25T13:24:49Z</time>
      </trkpt>
      <trkpt lat="43.34959" lon="2.52197">
        <ele>279.8</ele>
        <time>2017-02-25T13:24:56Z</time>
      </trkpt>
      <trkpt lat="43.34967" lon="2.522">
        <ele>280.6</ele>
        <time>2017-02-25T13:25:03Z</time>
      </trkpt>
      <trkpt lat="43.34971" lon="2.52203">
        <ele>281.6</ele>
        <time>2017-02-25T13:25:10Z</time>
      </trkpt>
      <trkpt lat="43.34975" lon="2.52206">
        <ele>283</ele>
        <time>2017-02-25T13:25:17Z</time>
      </trkpt>
      <trkpt lat="43.34979" lon="2.52209">
        <ele>284.5</ele>
        <time>2017-02-25T13:25:24Z</time>
      </trkpt>
      <trkpt lat="43.34988" lon="2.52211">
        <ele>285.3</ele>
        <time>2017-02-25T13:25:30Z</time>
      </trkpt>
      <trkpt lat="43.34995" lon="2.52214">
        <ele>287.2</ele>
        <time>2017-02-25T13:25:37Z</time>
      </trkpt>
      <trkpt lat="43.35001" lon="2.52218">
        <ele>287.8</ele>
        <time>2017-02-25T13:25:44Z</time>
      </trkpt>
      <trkpt lat="43.35009" lon="2.52224">
        <ele>288.1</ele>
        <time>2017-02-25T13:25:51Z</time>
      </trkpt>
      <trkpt lat="43.35017" lon="2.52227">
        <ele>290</ele>
        <time>2017-02-25T13:25:58Z</time>
      </trkpt>
      <trkpt lat="43.35025" lon="2.52228">
        <ele>291</ele>
        <time>2017-02-25T13:26:05Z</time>
      </trkpt>
      <trkpt lat="43.35032" lon="2.52227">
        <ele>292.4</ele>
        <time>2017-02-25T13:26:11Z</time>
      </trkpt>
      <trkpt lat="43.35039" lon="2.52226">
        <ele>295</ele>
        <time>2017-02-25T13:26:18Z</time>
      </trkpt>
      <trkpt lat="43.35046" lon="2.52225">
        <ele>296.9</ele>
        <time>2017-02-25T13:26:25Z</time>
      </trkpt>
      <trkpt lat="43.3505" lon="2.52222">
        <ele>298.3</ele>
        <time>2017-02-25T13:26:32Z</time>
      </trkpt>
      <trkpt lat="43.35057" lon="2.52217">
        <ele>299.7</ele>
        <time>2017-02-25T13:26:39Z</time>
      </trkpt>
      <trkpt lat="43.35064" lon="2.52214">
        <ele>300.5</ele>
        <time>2017-02-25T13:26:46Z</time>
      </trkpt>
      <trkpt lat="43.35069" lon="2.5221">
        <ele>300.9</ele>
        <time>2017-02-25T13:26:53Z</time>
      </trkpt>
      <trkpt lat="43.35076" lon="2.52207">
        <ele>300.4</ele>
        <time>2017-02-25T13:26:59Z</time>
      </trkpt>
      <trkpt lat="43.35083" lon="2.52202">
        <ele>301</ele>
        <time>2017-02-25T13:27:06Z</time>
      </trkpt>
      <trkpt lat="43.3509" lon="2.52198">
        <ele>302.2</ele>
        <time>2017-02-25T13:27:13Z</time>
      </trkpt>
      <trkpt lat="43.35098" lon="2.52193">
        <ele>303.5</ele>
        <time>2017-02-25T13:27:20Z</time>
      </trkpt>
      <trkpt lat="43.35104" lon="2.52188">
        <ele>305.3</ele>
        <time>2017-02-25T13:27:27Z</time>
      </trkpt>
      <trkpt lat="43.35111" lon="2.52182">
        <ele>306.7</ele>
        <time>2017-02-25T13:27:34Z</time>
      </trkpt>
      <trkpt lat="43.35116" lon="2.52177">
        <ele>307.6</ele>
        <time>2017-02-25T13:27:41Z</time>
      </trkpt>
      <trkpt lat="43.35121" lon="2.52172">
        <ele>308.5</ele>
        <time>2017-02-25T13:27:48Z</time>
      </trkpt>
      <trkpt lat="43.35127" lon="2.52168">
        <ele>310.2</ele>
        <time>2017-02-25T13:27:55Z</time>
      </trkpt>
      <trkpt lat="43.35134" lon="2.52162">
        <ele>311.4</ele>
        <time>2017-02-25T13:27:59Z</time>
      </trkpt>
      <trkpt lat="43.35141" lon="2.52155">
        <ele>314.4</ele>
        <time>2017-02-25T13:28:05Z</time>
      </trkpt>
      <trkpt lat="43.35148" lon="2.52154">
        <ele>316.8</ele>
        <time>2017-02-25T13:28:12Z</time>
      </trkpt>
      <trkpt lat="43.35156" lon="2.52154">
        <ele>318.7</ele>
        <time>2017-02-25T13:28:19Z</time>
      </trkpt>
      <trkpt lat="43.35163" lon="2.52153">
        <ele>321.1</ele>
        <time>2017-02-25T13:28:26Z</time>
      </trkpt>
      <trkpt lat="43.3517" lon="2.52153">
        <ele>323.2</ele>
        <time>2017-02-25T13:28:33Z</time>
      </trkpt>
      <trkpt lat="43.35178" lon="2.52152">
        <ele>323.9</ele>
        <time>2017-02-25T13:28:40Z</time>
      </trkpt>
      <trkpt lat="43.35184" lon="2.52148">
        <ele>325.4</ele>
        <time>2017-02-25T13:28:47Z</time>
      </trkpt>
      <trkpt lat="43.35191" lon="2.52145">
        <ele>327.3</ele>
        <time>2017-02-25T13:28:53Z</time>
      </trkpt>
      <trkpt lat="43.35197" lon="2.52142">
        <ele>329.2</ele>
        <time>2017-02-25T13:29:00Z</time>
      </trkpt>
      <trkpt lat="43.35203" lon="2.52142">
        <ele>331.7</ele>
        <time>2017-02-25T13:29:07Z</time>
      </trkpt>
      <trkpt lat="43.35209" lon="2.52139">
        <ele>333</ele>
        <time>2017-02-25T13:29:14Z</time>
      </trkpt>
      <trkpt lat="43.35216" lon="2.52138">
        <ele>334.4</ele>
        <time>2017-02-25T13:29:21Z</time>
      </trkpt>
      <trkpt lat="43.35224" lon="2.52135">
        <ele>336.3</ele>
        <time>2017-02-25T13:29:28Z</time>
      </trkpt>
      <trkpt lat="43.35229" lon="2.52127">
        <ele>338.4</ele>
        <time>2017-02-25T13:29:33Z</time>
      </trkpt>
      <trkpt lat="43.35236" lon="2.52123">
        <ele>340.4</ele>
        <time>2017-02-25T13:29:40Z</time>
      </trkpt>
      <trkpt lat="43.35244" lon="2.52123">
        <ele>341.6</ele>
        <time>2017-02-25T13:29:46Z</time>
      </trkpt>
      <trkpt lat="43.35251" lon="2.5212">
        <ele>343.6</ele>
        <time>2017-02-25T13:29:53Z</time>
      </trkpt>
      <trkpt lat="43.35258" lon="2.52119">
        <ele>344.6</ele>
        <time>2017-02-25T13:30:00Z</time>
      </trkpt>
      <trkpt lat="43.3526" lon="2.52126">
        <ele>336.3</ele>
        <time>2017-02-25T13:31:12Z</time>
      </trkpt>
      <trkpt lat="43.35263" lon="2.52127">
        <ele>333.3</ele>
        <time>2017-02-25T13:31:38Z</time>
      </trkpt>
      <trkpt lat="43.35266" lon="2.52136">
        <ele>332.6</ele>
        <time>2017-02-25T13:31:45Z</time>
      </trkpt>
      <trkpt lat="43.35269" lon="2.52143">
        <ele>332.4</ele>
        <time>2017-02-25T13:31:52Z</time>
      </trkpt>
      <trkpt lat="43.35277" lon="2.52147">
        <ele>332</ele>
        <time>2017-02-25T13:31:58Z</time>
      </trkpt>
      <trkpt lat="43.35282" lon="2.52148">
        <ele>332.1</ele>
        <time>2017-02-25T13:32:05Z</time>
      </trkpt>
      <trkpt lat="43.3529" lon="2.52149">
        <ele>331.9</ele>
        <time>2017-02-25T13:32:11Z</time>
      </trkpt>
      <trkpt lat="43.35296" lon="2.52149">
        <ele>331.9</ele>
        <time>2017-02-25T13:32:18Z</time>
      </trkpt>
      <trkpt lat="43.35304" lon="2.52143">
        <ele>331.9</ele>
        <time>2017-02-25T13:32:30Z</time>
      </trkpt>
      <trkpt lat="43.35306" lon="2.52142">
        <ele>332</ele>
        <time>2017-02-25T13:32:37Z</time>
      </trkpt>
      <trkpt lat="43.35298" lon="2.52144">
        <ele>330.7</ele>
        <time>2017-02-25T13:33:25Z</time>
      </trkpt>
      <trkpt lat="43.353" lon="2.52145">
        <ele>330.4</ele>
        <time>2017-02-25T13:33:32Z</time>
      </trkpt>
      <trkpt lat="43.35309" lon="2.52143">
        <ele>330.5</ele>
        <time>2017-02-25T13:33:41Z</time>
      </trkpt>
      <trkpt lat="43.35311" lon="2.52142">
        <ele>330.5</ele>
        <time>2017-02-25T13:33:48Z</time>
      </trkpt>
      <trkpt lat="43.35315" lon="2.52123">
        <ele>332</ele>
        <time>2017-02-25T13:37:43Z</time>
      </trkpt>
      <trkpt lat="43.35312" lon="2.52116">
        <ele>332.3</ele>
        <time>2017-02-25T13:37:50Z</time>
      </trkpt>
      <trkpt lat="43.35308" lon="2.52111">
        <ele>332.3</ele>
        <time>2017-02-25T13:37:57Z</time>
      </trkpt>
      <trkpt lat="43.35306" lon="2.52103">
        <ele>332.3</ele>
        <time>2017-02-25T13:38:04Z</time>
      </trkpt>
      <trkpt lat="43.35302" lon="2.52097">
        <ele>332</ele>
        <time>2017-02-25T13:38:11Z</time>
      </trkpt>
      <trkpt lat="43.35302" lon="2.52089">
        <ele>331.5</ele>
        <time>2017-02-25T13:38:18Z</time>
      </trkpt>
      <trkpt lat="43.35301" lon="2.52081">
        <ele>332</ele>
        <time>2017-02-25T13:38:25Z</time>
      </trkpt>
      <trkpt lat="43.35302" lon="2.52072">
        <ele>331.9</ele>
        <time>2017-02-25T13:38:32Z</time>
      </trkpt>
      <trkpt lat="43.35301" lon="2.52065">
        <ele>332.8</ele>
        <time>2017-02-25T13:38:39Z</time>
      </trkpt>
      <trkpt lat="43.35302" lon="2.52069">
        <ele>334.1</ele>
        <time>2017-02-25T13:38:46Z</time>
      </trkpt>
      <trkpt lat="43.35302" lon="2.52076">
        <ele>335.4</ele>
        <time>2017-02-25T13:38:53Z</time>
      </trkpt>
      <trkpt lat="43.35306" lon="2.52084">
        <ele>335.9</ele>
        <time>2017-02-25T13:39:00Z</time>
      </trkpt>
      <trkpt lat="43.3531" lon="2.52091">
        <ele>335.8</ele>
        <time>2017-02-25T13:39:07Z</time>
      </trkpt>
      <trkpt lat="43.35315" lon="2.52098">
        <ele>335.4</ele>
        <time>2017-02-25T13:39:14Z</time>
      </trkpt>
      <trkpt lat="43.35322" lon="2.52103">
        <ele>334.5</ele>
        <time>2017-02-25T13:39:21Z</time>
      </trkpt>
      <trkpt lat="43.35327" lon="2.52101">
        <ele>333.9</ele>
        <time>2017-02-25T13:39:28Z</time>
      </trkpt>
      <trkpt lat="43.35331" lon="2.52099">
        <ele>334.5</ele>
        <time>2017-02-25T13:39:35Z</time>
      </trkpt>
      <trkpt lat="43.35337" lon="2.52099">
        <ele>334.9</ele>
        <time>2017-02-25T13:39:42Z</time>
      </trkpt>
      <trkpt lat="43.35343" lon="2.52103">
        <ele>334.6</ele>
        <time>2017-02-25T13:39:49Z</time>
      </trkpt>
      <trkpt lat="43.35351" lon="2.521">
        <ele>335.8</ele>
        <time>2017-02-25T13:39:51Z</time>
      </trkpt>
      <trkpt lat="43.35359" lon="2.52099">
        <ele>336.6</ele>
        <time>2017-02-25T13:39:54Z</time>
      </trkpt>
      <trkpt lat="43.35365" lon="2.521">
        <ele>337.5</ele>
        <time>2017-02-25T13:40:01Z</time>
      </trkpt>
      <trkpt lat="43.35368" lon="2.521">
        <ele>338.9</ele>
        <time>2017-02-25T13:40:08Z</time>
      </trkpt>
      <trkpt lat="43.35373" lon="2.52106">
        <ele>340.6</ele>
        <time>2017-02-25T13:40:33Z</time>
      </trkpt>
      <trkpt lat="43.3538" lon="2.52108">
        <ele>341.5</ele>
        <time>2017-02-25T13:40:40Z</time>
      </trkpt>
      <trkpt lat="43.35389" lon="2.52107">
        <ele>342.6</ele>
        <time>2017-02-25T13:40:44Z</time>
      </trkpt>
      <trkpt lat="43.35398" lon="2.52106">
        <ele>344.1</ele>
        <time>2017-02-25T13:40:49Z</time>
      </trkpt>
      <trkpt lat="43.35404" lon="2.52109">
        <ele>345.6</ele>
        <time>2017-02-25T13:40:56Z</time>
      </trkpt>
      <trkpt lat="43.35408" lon="2.52115">
        <ele>345.5</ele>
        <time>2017-02-25T13:41:03Z</time>
      </trkpt>
      <trkpt lat="43.35414" lon="2.52119">
        <ele>345</ele>
        <time>2017-02-25T13:41:10Z</time>
      </trkpt>
      <trkpt lat="43.3542" lon="2.52124">
        <ele>344.3</ele>
        <time>2017-02-25T13:41:17Z</time>
      </trkpt>
      <trkpt lat="43.35426" lon="2.52129">
        <ele>345.2</ele>
        <time>2017-02-25T13:41:24Z</time>
      </trkpt>
      <trkpt lat="43.35433" lon="2.5213">
        <ele>346.9</ele>
        <time>2017-02-25T13:41:31Z</time>
      </trkpt>
      <trkpt lat="43.35439" lon="2.5213">
        <ele>347.2</ele>
        <time>2017-02-25T13:41:38Z</time>
      </trkpt>
      <trkpt lat="43.35446" lon="2.52132">
        <ele>347.3</ele>
        <time>2017-02-25T13:41:45Z</time>
      </trkpt>
      <trkpt lat="43.35453" lon="2.52132">
        <ele>347.7</ele>
        <time>2017-02-25T13:41:51Z</time>
      </trkpt>
      <trkpt lat="43.35461" lon="2.52132">
        <ele>347.8</ele>
        <time>2017-02-25T13:41:58Z</time>
      </trkpt>
      <trkpt lat="43.35468" lon="2.52129">
        <ele>348.4</ele>
        <time>2017-02-25T13:42:03Z</time>
      </trkpt>
      <trkpt lat="43.35474" lon="2.52125">
        <ele>349.8</ele>
        <time>2017-02-25T13:42:09Z</time>
      </trkpt>
      <trkpt lat="43.35482" lon="2.52121">
        <ele>349.9</ele>
        <time>2017-02-25T13:42:16Z</time>
      </trkpt>
      <trkpt lat="43.35487" lon="2.5212">
        <ele>350.1</ele>
        <time>2017-02-25T13:42:23Z</time>
      </trkpt>
      <trkpt lat="43.35494" lon="2.52116">
        <ele>351.3</ele>
        <time>2017-02-25T13:42:29Z</time>
      </trkpt>
      <trkpt lat="43.35502" lon="2.52113">
        <ele>352.1</ele>
        <time>2017-02-25T13:42:36Z</time>
      </trkpt>
      <trkpt lat="43.35508" lon="2.52108">
        <ele>351.5</ele>
        <time>2017-02-25T13:42:40Z</time>
      </trkpt>
      <trkpt lat="43.35513" lon="2.521">
        <ele>350.4</ele>
        <time>2017-02-25T13:42:47Z</time>
      </trkpt>
      <trkpt lat="43.35518" lon="2.52092">
        <ele>349.2</ele>
        <time>2017-02-25T13:42:53Z</time>
      </trkpt>
      <trkpt lat="43.35523" lon="2.52087">
        <ele>349.2</ele>
        <time>2017-02-25T13:43:00Z</time>
      </trkpt>
      <trkpt lat="43.35525" lon="2.52087">
        <ele>351.7</ele>
        <time>2017-02-25T13:43:07Z</time>
      </trkpt>
      <trkpt lat="43.35522" lon="2.52078">
        <ele>350</ele>
        <time>2017-02-25T13:43:22Z</time>
      </trkpt>
      <trkpt lat="43.35528" lon="2.5207">
        <ele>351.3</ele>
        <time>2017-02-25T13:43:29Z</time>
      </trkpt>
      <trkpt lat="43.35532" lon="2.5206">
        <ele>350.4</ele>
        <time>2017-02-25T13:43:36Z</time>
      </trkpt>
      <trkpt lat="43.35535" lon="2.52051">
        <ele>351.6</ele>
        <time>2017-02-25T13:43:43Z</time>
      </trkpt>
      <trkpt lat="43.35539" lon="2.52043">
        <ele>351.7</ele>
        <time>2017-02-25T13:43:50Z</time>
      </trkpt>
      <trkpt lat="43.35545" lon="2.52037">
        <ele>353.4</ele>
        <time>2017-02-25T13:43:55Z</time>
      </trkpt>
      <trkpt lat="43.35549" lon="2.52039">
        <ele>353.5</ele>
        <time>2017-02-25T13:44:02Z</time>
      </trkpt>
      <trkpt lat="43.35556" lon="2.52043">
        <ele>354</ele>
        <time>2017-02-25T13:44:09Z</time>
      </trkpt>
      <trkpt lat="43.35564" lon="2.52042">
        <ele>353.7</ele>
        <time>2017-02-25T13:44:15Z</time>
      </trkpt>
      <trkpt lat="43.35573" lon="2.52039">
        <ele>355</ele>
        <time>2017-02-25T13:44:21Z</time>
      </trkpt>
      <trkpt lat="43.3558" lon="2.52038">
        <ele>357.5</ele>
        <time>2017-02-25T13:44:26Z</time>
      </trkpt>
      <trkpt lat="43.35589" lon="2.52038">
        <ele>358.9</ele>
        <time>2017-02-25T13:44:32Z</time>
      </trkpt>
      <trkpt lat="43.35596" lon="2.5204">
        <ele>361.1</ele>
        <time>2017-02-25T13:44:38Z</time>
      </trkpt>
      <trkpt lat="43.35603" lon="2.52042">
        <ele>363.6</ele>
        <time>2017-02-25T13:44:45Z</time>
      </trkpt>
      <trkpt lat="43.35611" lon="2.5204">
        <ele>365.5</ele>
        <time>2017-02-25T13:44:51Z</time>
      </trkpt>
      <trkpt lat="43.35618" lon="2.52042">
        <ele>368.1</ele>
        <time>2017-02-25T13:44:58Z</time>
      </trkpt>
      <trkpt lat="43.35625" lon="2.5204">
        <ele>367.6</ele>
        <time>2017-02-25T13:45:04Z</time>
      </trkpt>
      <trkpt lat="43.35632" lon="2.52041">
        <ele>367.7</ele>
        <time>2017-02-25T13:45:10Z</time>
      </trkpt>
      <trkpt lat="43.35639" lon="2.52044">
        <ele>370.5</ele>
        <time>2017-02-25T13:45:17Z</time>
      </trkpt>
      <trkpt lat="43.35648" lon="2.52046">
        <ele>373.6</ele>
        <time>2017-02-25T13:45:23Z</time>
      </trkpt>
      <trkpt lat="43.35655" lon="2.52045">
        <ele>375.7</ele>
        <time>2017-02-25T13:45:28Z</time>
      </trkpt>
      <trkpt lat="43.35663" lon="2.52044">
        <ele>375.9</ele>
        <time>2017-02-25T13:45:33Z</time>
      </trkpt>
      <trkpt lat="43.3567" lon="2.52041">
        <ele>375.9</ele>
        <time>2017-02-25T13:45:40Z</time>
      </trkpt>
      <trkpt lat="43.35677" lon="2.52036">
        <ele>374.7</ele>
        <time>2017-02-25T13:45:46Z</time>
      </trkpt>
      <trkpt lat="43.35685" lon="2.52038">
        <ele>379.9</ele>
        <time>2017-02-25T13:45:53Z</time>
      </trkpt>
      <trkpt lat="43.35693" lon="2.52038">
        <ele>384.1</ele>
        <time>2017-02-25T13:46:00Z</time>
      </trkpt>
      <trkpt lat="43.357" lon="2.52034">
        <ele>387.7</ele>
        <time>2017-02-25T13:46:07Z</time>
      </trkpt>
      <trkpt lat="43.35705" lon="2.52031">
        <ele>390.2</ele>
        <time>2017-02-25T13:46:14Z</time>
      </trkpt>
      <trkpt lat="43.35712" lon="2.52026">
        <ele>392.1</ele>
        <time>2017-02-25T13:46:21Z</time>
      </trkpt>
      <trkpt lat="43.35717" lon="2.52019">
        <ele>392.5</ele>
        <time>2017-02-25T13:46:28Z</time>
      </trkpt>
      <trkpt lat="43.35723" lon="2.52018">
        <ele>393</ele>
        <time>2017-02-25T13:46:35Z</time>
      </trkpt>
      <trkpt lat="43.35731" lon="2.52015">
        <ele>395.2</ele>
        <time>2017-02-25T13:46:42Z</time>
      </trkpt>
      <trkpt lat="43.35739" lon="2.52011">
        <ele>400.3</ele>
        <time>2017-02-25T13:46:47Z</time>
      </trkpt>
      <trkpt lat="43.35747" lon="2.52007">
        <ele>400.6</ele>
        <time>2017-02-25T13:46:52Z</time>
      </trkpt>
      <trkpt lat="43.35754" lon="2.52003">
        <ele>399.7</ele>
        <time>2017-02-25T13:46:59Z</time>
      </trkpt>
      <trkpt lat="43.35759" lon="2.51998">
        <ele>397.7</ele>
        <time>2017-02-25T13:47:06Z</time>
      </trkpt>
      <trkpt lat="43.35765" lon="2.51992">
        <ele>396.8</ele>
        <time>2017-02-25T13:47:11Z</time>
      </trkpt>
      <trkpt lat="43.35772" lon="2.51983">
        <ele>399.1</ele>
        <time>2017-02-25T13:47:18Z</time>
      </trkpt>
      <trkpt lat="43.35778" lon="2.51977">
        <ele>401.4</ele>
        <time>2017-02-25T13:47:22Z</time>
      </trkpt>
      <trkpt lat="43.35786" lon="2.51972">
        <ele>406.6</ele>
        <time>2017-02-25T13:47:28Z</time>
      </trkpt>
      <trkpt lat="43.35792" lon="2.51967">
        <ele>408.3</ele>
        <time>2017-02-25T13:47:32Z</time>
      </trkpt>
      <trkpt lat="43.358" lon="2.51962">
        <ele>408</ele>
        <time>2017-02-25T13:47:39Z</time>
      </trkpt>
      <trkpt lat="43.35806" lon="2.51955">
        <ele>408.1</ele>
        <time>2017-02-25T13:47:45Z</time>
      </trkpt>
      <trkpt lat="43.35809" lon="2.51948">
        <ele>406.6</ele>
        <time>2017-02-25T13:47:52Z</time>
      </trkpt>
      <trkpt lat="43.35815" lon="2.51946">
        <ele>406.2</ele>
        <time>2017-02-25T13:47:59Z</time>
      </trkpt>
      <trkpt lat="43.35822" lon="2.5194">
        <ele>407.4</ele>
        <time>2017-02-25T13:48:05Z</time>
      </trkpt>
      <trkpt lat="43.35828" lon="2.51936">
        <ele>407.9</ele>
        <time>2017-02-25T13:48:11Z</time>
      </trkpt>
      <trkpt lat="43.35835" lon="2.51933">
        <ele>409</ele>
        <time>2017-02-25T13:48:17Z</time>
      </trkpt>
      <trkpt lat="43.35843" lon="2.51931">
        <ele>410.1</ele>
        <time>2017-02-25T13:48:24Z</time>
      </trkpt>
      <trkpt lat="43.3585" lon="2.51931">
        <ele>410.6</ele>
        <time>2017-02-25T13:48:31Z</time>
      </trkpt>
      <trkpt lat="43.35857" lon="2.51932">
        <ele>412.5</ele>
        <time>2017-02-25T13:48:38Z</time>
      </trkpt>
      <trkpt lat="43.35867" lon="2.51933">
        <ele>416.1</ele>
        <time>2017-02-25T13:48:42Z</time>
      </trkpt>
      <trkpt lat="43.35874" lon="2.51932">
        <ele>419.5</ele>
        <time>2017-02-25T13:48:47Z</time>
      </trkpt>
      <trkpt lat="43.35882" lon="2.51935">
        <ele>421.9</ele>
        <time>2017-02-25T13:48:53Z</time>
      </trkpt>
      <trkpt lat="43.35891" lon="2.51936">
        <ele>424.2</ele>
        <time>2017-02-25T13:49:00Z</time>
      </trkpt>
      <trkpt lat="43.35898" lon="2.51938">
        <ele>426.4</ele>
        <time>2017-02-25T13:49:06Z</time>
      </trkpt>
      <trkpt lat="43.35905" lon="2.51939">
        <ele>429.1</ele>
        <time>2017-02-25T13:49:11Z</time>
      </trkpt>
      <trkpt lat="43.35911" lon="2.51939">
        <ele>430.9</ele>
        <time>2017-02-25T13:49:18Z</time>
      </trkpt>
      <trkpt lat="43.35918" lon="2.51936">
        <ele>431.7</ele>
        <time>2017-02-25T13:49:25Z</time>
      </trkpt>
      <trkpt lat="43.35926" lon="2.51937">
        <ele>432.6</ele>
        <time>2017-02-25T13:49:31Z</time>
      </trkpt>
      <trkpt lat="43.35932" lon="2.51936">
        <ele>433.5</ele>
        <time>2017-02-25T13:49:38Z</time>
      </trkpt>
      <trkpt lat="43.35938" lon="2.51938">
        <ele>433.5</ele>
        <time>2017-02-25T13:49:45Z</time>
      </trkpt>
      <trkpt lat="43.35944" lon="2.51938">
        <ele>431.9</ele>
        <time>2017-02-25T13:49:52Z</time>
      </trkpt>
      <trkpt lat="43.35951" lon="2.51937">
        <ele>430.9</ele>
        <time>2017-02-25T13:49:59Z</time>
      </trkpt>
      <trkpt lat="43.35958" lon="2.51937">
        <ele>430.3</ele>
        <time>2017-02-25T13:50:06Z</time>
      </trkpt>
      <trkpt lat="43.35965" lon="2.51936">
        <ele>429.5</ele>
        <time>2017-02-25T13:50:11Z</time>
      </trkpt>
      <trkpt lat="43.35972" lon="2.51937">
        <ele>428.9</ele>
        <time>2017-02-25T13:50:18Z</time>
      </trkpt>
      <trkpt lat="43.35979" lon="2.51933">
        <ele>428.7</ele>
        <time>2017-02-25T13:50:24Z</time>
      </trkpt>
      <trkpt lat="43.35984" lon="2.51934">
        <ele>428.1</ele>
        <time>2017-02-25T13:50:31Z</time>
      </trkpt>
      <trkpt lat="43.35992" lon="2.51936">
        <ele>427.4</ele>
        <time>2017-02-25T13:50:47Z</time>
      </trkpt>
      <trkpt lat="43.35999" lon="2.51939">
        <ele>429.2</ele>
        <time>2017-02-25T13:50:52Z</time>
      </trkpt>
      <trkpt lat="43.36007" lon="2.51943">
        <ele>432.1</ele>
        <time>2017-02-25T13:50:59Z</time>
      </trkpt>
      <trkpt lat="43.36013" lon="2.51951">
        <ele>435.4</ele>
        <time>2017-02-25T13:51:05Z</time>
      </trkpt>
      <trkpt lat="43.36021" lon="2.51954">
        <ele>437.8</ele>
        <time>2017-02-25T13:51:10Z</time>
      </trkpt>
      <trkpt lat="43.36029" lon="2.51953">
        <ele>440.4</ele>
        <time>2017-02-25T13:51:15Z</time>
      </trkpt>
      <trkpt lat="43.36037" lon="2.51951">
        <ele>442.8</ele>
        <time>2017-02-25T13:51:21Z</time>
      </trkpt>
      <trkpt lat="43.36045" lon="2.51949">
        <ele>445.8</ele>
        <time>2017-02-25T13:51:28Z</time>
      </trkpt>
      <trkpt lat="43.36052" lon="2.51944">
        <ele>448.6</ele>
        <time>2017-02-25T13:51:35Z</time>
      </trkpt>
      <trkpt lat="43.36056" lon="2.51937">
        <ele>451.4</ele>
        <time>2017-02-25T13:51:42Z</time>
      </trkpt>
      <trkpt lat="43.36063" lon="2.51931">
        <ele>453.1</ele>
        <time>2017-02-25T13:51:49Z</time>
      </trkpt>
      <trkpt lat="43.36065" lon="2.51929">
        <ele>454.7</ele>
        <time>2017-02-25T13:51:56Z</time>
      </trkpt>
      <trkpt lat="43.36065" lon="2.51929">
        <ele>455.3</ele>
        <time>2017-02-25T13:52:03Z</time>
      </trkpt>
      <trkpt lat="43.36072" lon="2.51925">
        <ele>456.8</ele>
        <time>2017-02-25T13:52:08Z</time>
      </trkpt>
      <trkpt lat="43.36075" lon="2.51922">
        <ele>456.2</ele>
        <time>2017-02-25T13:52:15Z</time>
      </trkpt>
      <trkpt lat="43.3608" lon="2.51917">
        <ele>455.3</ele>
        <time>2017-02-25T13:52:22Z</time>
      </trkpt>
      <trkpt lat="43.36086" lon="2.5191">
        <ele>453.7</ele>
        <time>2017-02-25T13:52:29Z</time>
      </trkpt>
      <trkpt lat="43.36087" lon="2.51909">
        <ele>454.2</ele>
        <time>2017-02-25T13:52:36Z</time>
      </trkpt>
      <trkpt lat="43.36093" lon="2.51904">
        <ele>453.4</ele>
        <time>2017-02-25T13:52:41Z</time>
      </trkpt>
      <trkpt lat="43.361" lon="2.519">
        <ele>452</ele>
        <time>2017-02-25T13:52:47Z</time>
      </trkpt>
      <trkpt lat="43.36103" lon="2.51894">
        <ele>450.3</ele>
        <time>2017-02-25T13:52:54Z</time>
      </trkpt>
      <trkpt lat="43.36106" lon="2.51888">
        <ele>446.3</ele>
        <time>2017-02-25T13:53:01Z</time>
      </trkpt>
      <trkpt lat="43.36113" lon="2.51882">
        <ele>444.1</ele>
        <time>2017-02-25T13:53:07Z</time>
      </trkpt>
      <trkpt lat="43.36118" lon="2.51874">
        <ele>443.6</ele>
        <time>2017-02-25T13:53:13Z</time>
      </trkpt>
      <trkpt lat="43.36123" lon="2.51867">
        <ele>442.6</ele>
        <time>2017-02-25T13:53:19Z</time>
      </trkpt>
      <trkpt lat="43.3613" lon="2.51861">
        <ele>442.1</ele>
        <time>2017-02-25T13:53:26Z</time>
      </trkpt>
      <trkpt lat="43.36133" lon="2.51854">
        <ele>440.6</ele>
        <time>2017-02-25T13:53:33Z</time>
      </trkpt>
      <trkpt lat="43.36138" lon="2.51846">
        <ele>439.2</ele>
        <time>2017-02-25T13:53:40Z</time>
      </trkpt>
      <trkpt lat="43.36142" lon="2.51836">
        <ele>438.3</ele>
        <time>2017-02-25T13:53:47Z</time>
      </trkpt>
      <trkpt lat="43.36145" lon="2.51824">
        <ele>442.2</ele>
        <time>2017-02-25T13:53:53Z</time>
      </trkpt>
      <trkpt lat="43.36146" lon="2.51815">
        <ele>443.7</ele>
        <time>2017-02-25T13:54:00Z</time>
      </trkpt>
      <trkpt lat="43.36149" lon="2.51808">
        <ele>444.4</ele>
        <time>2017-02-25T13:54:07Z</time>
      </trkpt>
      <trkpt lat="43.36154" lon="2.51801">
        <ele>444.1</ele>
        <time>2017-02-25T13:54:14Z</time>
      </trkpt>
      <trkpt lat="43.36157" lon="2.51796">
        <ele>445.9</ele>
        <time>2017-02-25T13:54:21Z</time>
      </trkpt>
      <trkpt lat="43.36162" lon="2.51788">
        <ele>448.3</ele>
        <time>2017-02-25T13:54:35Z</time>
      </trkpt>
      <trkpt lat="43.36167" lon="2.51781">
        <ele>448.3</ele>
        <time>2017-02-25T13:54:41Z</time>
      </trkpt>
      <trkpt lat="43.36173" lon="2.51775">
        <ele>448.6</ele>
        <time>2017-02-25T13:54:48Z</time>
      </trkpt>
      <trkpt lat="43.36175" lon="2.51765">
        <ele>449.8</ele>
        <time>2017-02-25T13:54:55Z</time>
      </trkpt>
      <trkpt lat="43.36178" lon="2.51755">
        <ele>450.6</ele>
        <time>2017-02-25T13:55:02Z</time>
      </trkpt>
      <trkpt lat="43.36183" lon="2.51747">
        <ele>451.1</ele>
        <time>2017-02-25T13:55:08Z</time>
      </trkpt>
      <trkpt lat="43.36187" lon="2.51739">
        <ele>451.4</ele>
        <time>2017-02-25T13:55:14Z</time>
      </trkpt>
      <trkpt lat="43.36191" lon="2.51732">
        <ele>451.1</ele>
        <time>2017-02-25T13:55:21Z</time>
      </trkpt>
      <trkpt lat="43.36197" lon="2.51724">
        <ele>449.9</ele>
        <time>2017-02-25T13:55:27Z</time>
      </trkpt>
      <trkpt lat="43.36203" lon="2.51718">
        <ele>449.4</ele>
        <time>2017-02-25T13:55:34Z</time>
      </trkpt>
      <trkpt lat="43.36207" lon="2.51712">
        <ele>449.7</ele>
        <time>2017-02-25T13:55:41Z</time>
      </trkpt>
      <trkpt lat="43.36212" lon="2.51704">
        <ele>449.9</ele>
        <time>2017-02-25T13:55:48Z</time>
      </trkpt>
      <trkpt lat="43.36218" lon="2.51697">
        <ele>450.5</ele>
        <time>2017-02-25T13:55:53Z</time>
      </trkpt>
      <trkpt lat="43.36224" lon="2.51692">
        <ele>450.8</ele>
        <time>2017-02-25T13:55:59Z</time>
      </trkpt>
      <trkpt lat="43.36232" lon="2.51688">
        <ele>452.7</ele>
        <time>2017-02-25T13:56:04Z</time>
      </trkpt>
      <trkpt lat="43.36239" lon="2.51685">
        <ele>455.7</ele>
        <time>2017-02-25T13:56:10Z</time>
      </trkpt>
      <trkpt lat="43.36247" lon="2.51683">
        <ele>457.9</ele>
        <time>2017-02-25T13:56:17Z</time>
      </trkpt>
      <trkpt lat="43.36255" lon="2.51678">
        <ele>459.2</ele>
        <time>2017-02-25T13:56:24Z</time>
      </trkpt>
      <trkpt lat="43.36261" lon="2.51676">
        <ele>460.2</ele>
        <time>2017-02-25T13:56:31Z</time>
      </trkpt>
      <trkpt lat="43.36269" lon="2.51677">
        <ele>462.4</ele>
        <time>2017-02-25T13:56:38Z</time>
      </trkpt>
      <trkpt lat="43.36277" lon="2.51675">
        <ele>464.3</ele>
        <time>2017-02-25T13:56:45Z</time>
      </trkpt>
      <trkpt lat="43.36283" lon="2.51673">
        <ele>466.6</ele>
        <time>2017-02-25T13:56:52Z</time>
      </trkpt>
      <trkpt lat="43.36289" lon="2.51669">
        <ele>468.4</ele>
        <time>2017-02-25T13:56:59Z</time>
      </trkpt>
      <trkpt lat="43.36296" lon="2.51664">
        <ele>469.5</ele>
        <time>2017-02-25T13:57:05Z</time>
      </trkpt>
      <trkpt lat="43.36303" lon="2.51658">
        <ele>470.3</ele>
        <time>2017-02-25T13:57:10Z</time>
      </trkpt>
      <trkpt lat="43.36308" lon="2.51655">
        <ele>471.8</ele>
        <time>2017-02-25T13:57:17Z</time>
      </trkpt>
      <trkpt lat="43.36311" lon="2.5165">
        <ele>472.1</ele>
        <time>2017-02-25T13:57:24Z</time>
      </trkpt>
      <trkpt lat="43.3632" lon="2.51649">
        <ele>473.1</ele>
        <time>2017-02-25T13:57:34Z</time>
      </trkpt>
      <trkpt lat="43.36322" lon="2.51648">
        <ele>472.9</ele>
        <time>2017-02-25T13:57:41Z</time>
      </trkpt>
      <trkpt lat="43.36328" lon="2.51636">
        <ele>487.1</ele>
        <time>2017-02-25T13:58:55Z</time>
      </trkpt>
      <trkpt lat="43.36334" lon="2.51632">
        <ele>487.8</ele>
        <time>2017-02-25T13:59:02Z</time>
      </trkpt>
      <trkpt lat="43.3634" lon="2.51628">
        <ele>487.4</ele>
        <time>2017-02-25T13:59:09Z</time>
      </trkpt>
      <trkpt lat="43.3635" lon="2.51626">
        <ele>487.2</ele>
        <time>2017-02-25T13:59:16Z</time>
      </trkpt>
      <trkpt lat="43.36356" lon="2.51622">
        <ele>487.3</ele>
        <time>2017-02-25T13:59:21Z</time>
      </trkpt>
      <trkpt lat="43.36365" lon="2.51618">
        <ele>486.3</ele>
        <time>2017-02-25T13:59:25Z</time>
      </trkpt>
      <trkpt lat="43.36366" lon="2.51615">
        <ele>485.1</ele>
        <time>2017-02-25T13:59:32Z</time>
      </trkpt>
      <trkpt lat="43.36363" lon="2.51606">
        <ele>484.4</ele>
        <time>2017-02-25T13:59:39Z</time>
      </trkpt>
      <trkpt lat="43.36361" lon="2.51601">
        <ele>484.5</ele>
        <time>2017-02-25T13:59:46Z</time>
      </trkpt>
      <trkpt lat="43.36365" lon="2.51593">
        <ele>485.2</ele>
        <time>2017-02-25T13:59:53Z</time>
      </trkpt>
      <trkpt lat="43.3637" lon="2.51585">
        <ele>484.9</ele>
        <time>2017-02-25T14:00:00Z</time>
      </trkpt>
      <trkpt lat="43.36383" lon="2.51585">
        <ele>485.6</ele>
        <time>2017-02-25T14:00:04Z</time>
      </trkpt>
      <trkpt lat="43.3639" lon="2.51586">
        <ele>486.2</ele>
        <time>2017-02-25T14:00:06Z</time>
      </trkpt>
      <trkpt lat="43.36398" lon="2.51587">
        <ele>485.9</ele>
        <time>2017-02-25T14:00:08Z</time>
      </trkpt>
      <trkpt lat="43.36407" lon="2.51589">
        <ele>487</ele>
        <time>2017-02-25T14:00:14Z</time>
      </trkpt>
      <trkpt lat="43.36417" lon="2.5159">
        <ele>486.8</ele>
        <time>2017-02-25T14:00:17Z</time>
      </trkpt>
      <trkpt lat="43.36425" lon="2.51591">
        <ele>487.9</ele>
        <time>2017-02-25T14:00:19Z</time>
      </trkpt>
      <trkpt lat="43.36433" lon="2.51593">
        <ele>488.9</ele>
        <time>2017-02-25T14:00:22Z</time>
      </trkpt>
      <trkpt lat="43.36447" lon="2.51595">
        <ele>489.6</ele>
        <time>2017-02-25T14:00:25Z</time>
      </trkpt>
      <trkpt lat="43.36453" lon="2.5159">
        <ele>492.7</ele>
        <time>2017-02-25T14:00:28Z</time>
      </trkpt>
      <trkpt lat="43.36462" lon="2.51591">
        <ele>494.9</ele>
        <time>2017-02-25T14:00:35Z</time>
      </trkpt>
      <trkpt lat="43.36457" lon="2.51584">
        <ele>499.9</ele>
        <time>2017-02-25T14:00:42Z</time>
      </trkpt>
      <trkpt lat="43.36462" lon="2.51576">
        <ele>502.2</ele>
        <time>2017-02-25T14:00:48Z</time>
      </trkpt>
      <trkpt lat="43.36471" lon="2.51575">
        <ele>502.6</ele>
        <time>2017-02-25T14:00:50Z</time>
      </trkpt>
      <trkpt lat="43.36478" lon="2.51574">
        <ele>502.9</ele>
        <time>2017-02-25T14:00:53Z</time>
      </trkpt>
      <trkpt lat="43.3647" lon="2.5156">
        <ele>507</ele>
        <time>2017-02-25T14:01:00Z</time>
      </trkpt>
      <trkpt lat="43.36469" lon="2.51553">
        <ele>509.7</ele>
        <time>2017-02-25T14:01:07Z</time>
      </trkpt>
      <trkpt lat="43.36467" lon="2.51544">
        <ele>511.2</ele>
        <time>2017-02-25T14:01:13Z</time>
      </trkpt>
      <trkpt lat="43.3646" lon="2.51539">
        <ele>512.1</ele>
        <time>2017-02-25T14:01:15Z</time>
      </trkpt>
      <trkpt lat="43.36461" lon="2.51534">
        <ele>514.2</ele>
        <time>2017-02-25T14:01:22Z</time>
      </trkpt>
      <trkpt lat="43.36459" lon="2.51533">
        <ele>514.1</ele>
        <time>2017-02-25T14:01:29Z</time>
      </trkpt>
      <trkpt lat="43.36467" lon="2.51533">
        <ele>517.4</ele>
        <time>2017-02-25T14:01:36Z</time>
      </trkpt>
      <trkpt lat="43.36475" lon="2.51534">
        <ele>518.7</ele>
        <time>2017-02-25T14:01:40Z</time>
      </trkpt>
      <trkpt lat="43.36481" lon="2.51531">
        <ele>520.4</ele>
        <time>2017-02-25T14:01:47Z</time>
      </trkpt>
      <trkpt lat="43.36492" lon="2.51533">
        <ele>522.7</ele>
        <time>2017-02-25T14:01:52Z</time>
      </trkpt>
      <trkpt lat="43.36499" lon="2.51528">
        <ele>522.1</ele>
        <time>2017-02-25T14:01:57Z</time>
      </trkpt>
      <trkpt lat="43.36507" lon="2.51529">
        <ele>522.6</ele>
        <time>2017-02-25T14:02:00Z</time>
      </trkpt>
      <trkpt lat="43.36516" lon="2.51528">
        <ele>522.2</ele>
        <time>2017-02-25T14:02:04Z</time>
      </trkpt>
      <trkpt lat="43.36524" lon="2.5153">
        <ele>522.4</ele>
        <time>2017-02-25T14:02:06Z</time>
      </trkpt>
      <trkpt lat="43.36516" lon="2.51525">
        <ele>522.6</ele>
        <time>2017-02-25T14:02:07Z</time>
      </trkpt>
      <trkpt lat="43.36508" lon="2.51518">
        <ele>523.2</ele>
        <time>2017-02-25T14:02:08Z</time>
      </trkpt>
      <trkpt lat="43.365" lon="2.51514">
        <ele>523.7</ele>
        <time>2017-02-25T14:02:09Z</time>
      </trkpt>
      <trkpt lat="43.36495" lon="2.51505">
        <ele>523.8</ele>
        <time>2017-02-25T14:02:13Z</time>
      </trkpt>
      <trkpt lat="43.36483" lon="2.51494">
        <ele>524.3</ele>
        <time>2017-02-25T14:02:21Z</time>
      </trkpt>
      <trkpt lat="43.36491" lon="2.51487">
        <ele>523.7</ele>
        <time>2017-02-25T14:02:28Z</time>
      </trkpt>
      <trkpt lat="43.36499" lon="2.51483">
        <ele>523.1</ele>
        <time>2017-02-25T14:02:35Z</time>
      </trkpt>
      <trkpt lat="43.36507" lon="2.51484">
        <ele>523.1</ele>
        <time>2017-02-25T14:02:38Z</time>
      </trkpt>
      <trkpt lat="43.36515" lon="2.51487">
        <ele>522.4</ele>
        <time>2017-02-25T14:02:41Z</time>
      </trkpt>
      <trkpt lat="43.36508" lon="2.5148">
        <ele>522.5</ele>
        <time>2017-02-25T14:02:43Z</time>
      </trkpt>
      <trkpt lat="43.36519" lon="2.51479">
        <ele>524.2</ele>
        <time>2017-02-25T14:02:49Z</time>
      </trkpt>
      <trkpt lat="43.36525" lon="2.51472">
        <ele>528.6</ele>
        <time>2017-02-25T14:02:55Z</time>
      </trkpt>
      <trkpt lat="43.36529" lon="2.51468">
        <ele>531.7</ele>
        <time>2017-02-25T14:03:02Z</time>
      </trkpt>
      <trkpt lat="43.36529" lon="2.51463">
        <ele>531.3</ele>
        <time>2017-02-25T14:03:09Z</time>
      </trkpt>
      <trkpt lat="43.36535" lon="2.51456">
        <ele>532.2</ele>
        <time>2017-02-25T14:03:29Z</time>
      </trkpt>
      <trkpt lat="43.36546" lon="2.51456">
        <ele>533.9</ele>
        <time>2017-02-25T14:03:32Z</time>
      </trkpt>
      <trkpt lat="43.36558" lon="2.51459">
        <ele>536.2</ele>
        <time>2017-02-25T14:03:34Z</time>
      </trkpt>
      <trkpt lat="43.3657" lon="2.51461">
        <ele>538.4</ele>
        <time>2017-02-25T14:03:36Z</time>
      </trkpt>
      <trkpt lat="43.36578" lon="2.5146">
        <ele>540.7</ele>
        <time>2017-02-25T14:03:39Z</time>
      </trkpt>
      <trkpt lat="43.36587" lon="2.5146">
        <ele>543</ele>
        <time>2017-02-25T14:03:42Z</time>
      </trkpt>
      <trkpt lat="43.36594" lon="2.51456">
        <ele>546.6</ele>
        <time>2017-02-25T14:03:47Z</time>
      </trkpt>
      <trkpt lat="43.36595" lon="2.51452">
        <ele>549.9</ele>
        <time>2017-02-25T14:03:54Z</time>
      </trkpt>
      <trkpt lat="43.36603" lon="2.51453">
        <ele>551.2</ele>
        <time>2017-02-25T14:03:56Z</time>
      </trkpt>
      <trkpt lat="43.36612" lon="2.51453">
        <ele>551.5</ele>
        <time>2017-02-25T14:04:00Z</time>
      </trkpt>
      <trkpt lat="43.36619" lon="2.51453">
        <ele>552.4</ele>
        <time>2017-02-25T14:04:04Z</time>
      </trkpt>
      <trkpt lat="43.36627" lon="2.51452">
        <ele>552.6</ele>
        <time>2017-02-25T14:04:11Z</time>
      </trkpt>
      <trkpt lat="43.36632" lon="2.51452">
        <ele>552.7</ele>
        <time>2017-02-25T14:04:18Z</time>
      </trkpt>
      <trkpt lat="43.36639" lon="2.51447">
        <ele>551.7</ele>
        <time>2017-02-25T14:04:25Z</time>
      </trkpt>
      <trkpt lat="43.36649" lon="2.51447">
        <ele>551.5</ele>
        <time>2017-02-25T14:04:30Z</time>
      </trkpt>
      <trkpt lat="43.36657" lon="2.51445">
        <ele>551.2</ele>
        <time>2017-02-25T14:04:37Z</time>
      </trkpt>
      <trkpt lat="43.36664" lon="2.51445">
        <ele>551.6</ele>
        <time>2017-02-25T14:04:40Z</time>
      </trkpt>
      <trkpt lat="43.3667" lon="2.51446">
        <ele>548.6</ele>
        <time>2017-02-25T14:04:47Z</time>
      </trkpt>
      <trkpt lat="43.36671" lon="2.51441">
        <ele>547</ele>
        <time>2017-02-25T14:04:54Z</time>
      </trkpt>
      <trkpt lat="43.36675" lon="2.51439">
        <ele>545.4</ele>
        <time>2017-02-25T14:05:01Z</time>
      </trkpt>
      <trkpt lat="43.36677" lon="2.51432">
        <ele>544.6</ele>
        <time>2017-02-25T14:05:08Z</time>
      </trkpt>
      <trkpt lat="43.36679" lon="2.51426">
        <ele>543.5</ele>
        <time>2017-02-25T14:05:15Z</time>
      </trkpt>
      <trkpt lat="43.36683" lon="2.51427">
        <ele>542.6</ele>
        <time>2017-02-25T14:05:22Z</time>
      </trkpt>
      <trkpt lat="43.36689" lon="2.51427">
        <ele>541.7</ele>
        <time>2017-02-25T14:05:29Z</time>
      </trkpt>
      <trkpt lat="43.36697" lon="2.51422">
        <ele>542</ele>
        <time>2017-02-25T14:05:36Z</time>
      </trkpt>
      <trkpt lat="43.36704" lon="2.51418">
        <ele>541.1</ele>
        <time>2017-02-25T14:05:42Z</time>
      </trkpt>
      <trkpt lat="43.36711" lon="2.51415">
        <ele>537.8</ele>
        <time>2017-02-25T14:05:49Z</time>
      </trkpt>
      <trkpt lat="43.36717" lon="2.51409">
        <ele>536.4</ele>
        <time>2017-02-25T14:05:56Z</time>
      </trkpt>
      <trkpt lat="43.36723" lon="2.51404">
        <ele>534.5</ele>
        <time>2017-02-25T14:06:03Z</time>
      </trkpt>
      <trkpt lat="43.36729" lon="2.51398">
        <ele>533.2</ele>
        <time>2017-02-25T14:06:09Z</time>
      </trkpt>
      <trkpt lat="43.36735" lon="2.51391">
        <ele>532.4</ele>
        <time>2017-02-25T14:06:15Z</time>
      </trkpt>
      <trkpt lat="43.3674" lon="2.51386">
        <ele>531.2</ele>
        <time>2017-02-25T14:06:22Z</time>
      </trkpt>
      <trkpt lat="43.36748" lon="2.5138">
        <ele>529.4</ele>
        <time>2017-02-25T14:06:28Z</time>
      </trkpt>
      <trkpt lat="43.36754" lon="2.51375">
        <ele>527.4</ele>
        <time>2017-02-25T14:06:35Z</time>
      </trkpt>
      <trkpt lat="43.36762" lon="2.5137">
        <ele>525.9</ele>
        <time>2017-02-25T14:06:41Z</time>
      </trkpt>
      <trkpt lat="43.36783" lon="2.51372">
        <ele>532.4</ele>
        <time>2017-02-25T14:06:49Z</time>
      </trkpt>
      <trkpt lat="43.36786" lon="2.51366">
        <ele>532.8</ele>
        <time>2017-02-25T14:06:56Z</time>
      </trkpt>
      <trkpt lat="43.36793" lon="2.51359">
        <ele>532.9</ele>
        <time>2017-02-25T14:07:03Z</time>
      </trkpt>
      <trkpt lat="43.36799" lon="2.51351">
        <ele>533.9</ele>
        <time>2017-02-25T14:07:10Z</time>
      </trkpt>
      <trkpt lat="43.36806" lon="2.51345">
        <ele>533.8</ele>
        <time>2017-02-25T14:07:16Z</time>
      </trkpt>
      <trkpt lat="43.36813" lon="2.5134">
        <ele>532.1</ele>
        <time>2017-02-25T14:07:21Z</time>
      </trkpt>
      <trkpt lat="43.36819" lon="2.51333">
        <ele>530.6</ele>
        <time>2017-02-25T14:07:26Z</time>
      </trkpt>
      <trkpt lat="43.36825" lon="2.51328">
        <ele>529.7</ele>
        <time>2017-02-25T14:07:31Z</time>
      </trkpt>
      <trkpt lat="43.36828" lon="2.51317">
        <ele>530</ele>
        <time>2017-02-25T14:07:37Z</time>
      </trkpt>
      <trkpt lat="43.36831" lon="2.51307">
        <ele>530</ele>
        <time>2017-02-25T14:07:42Z</time>
      </trkpt>
      <trkpt lat="43.36837" lon="2.51299">
        <ele>530.2</ele>
        <time>2017-02-25T14:07:49Z</time>
      </trkpt>
      <trkpt lat="43.36843" lon="2.51295">
        <ele>529.2</ele>
        <time>2017-02-25T14:07:56Z</time>
      </trkpt>
      <trkpt lat="43.3685" lon="2.51286">
        <ele>528.7</ele>
        <time>2017-02-25T14:08:03Z</time>
      </trkpt>
      <trkpt lat="43.36854" lon="2.51277">
        <ele>528.2</ele>
        <time>2017-02-25T14:08:08Z</time>
      </trkpt>
      <trkpt lat="43.36857" lon="2.51269">
        <ele>528.6</ele>
        <time>2017-02-25T14:08:14Z</time>
      </trkpt>
      <trkpt lat="43.36861" lon="2.51258">
        <ele>527.2</ele>
        <time>2017-02-25T14:08:20Z</time>
      </trkpt>
      <trkpt lat="43.36866" lon="2.51248">
        <ele>526.3</ele>
        <time>2017-02-25T14:08:27Z</time>
      </trkpt>
      <trkpt lat="43.3687" lon="2.51239">
        <ele>526.5</ele>
        <time>2017-02-25T14:08:33Z</time>
      </trkpt>
      <trkpt lat="43.36874" lon="2.5123">
        <ele>526.8</ele>
        <time>2017-02-25T14:08:39Z</time>
      </trkpt>
      <trkpt lat="43.36878" lon="2.5122">
        <ele>526</ele>
        <time>2017-02-25T14:08:46Z</time>
      </trkpt>
      <trkpt lat="43.36881" lon="2.5121">
        <ele>525.1</ele>
        <time>2017-02-25T14:08:51Z</time>
      </trkpt>
      <trkpt lat="43.36883" lon="2.512">
        <ele>524.8</ele>
        <time>2017-02-25T14:08:57Z</time>
      </trkpt>
      <trkpt lat="43.36887" lon="2.51191">
        <ele>524</ele>
        <time>2017-02-25T14:09:03Z</time>
      </trkpt>
      <trkpt lat="43.36891" lon="2.51182">
        <ele>523</ele>
        <time>2017-02-25T14:09:08Z</time>
      </trkpt>
      <trkpt lat="43.36895" lon="2.51173">
        <ele>522</ele>
        <time>2017-02-25T14:09:13Z</time>
      </trkpt>
      <trkpt lat="43.36899" lon="2.51163">
        <ele>521.6</ele>
        <time>2017-02-25T14:09:18Z</time>
      </trkpt>
      <trkpt lat="43.36902" lon="2.51153">
        <ele>521.5</ele>
        <time>2017-02-25T14:09:24Z</time>
      </trkpt>
      <trkpt lat="43.36905" lon="2.51142">
        <ele>521.8</ele>
        <time>2017-02-25T14:09:29Z</time>
      </trkpt>
      <trkpt lat="43.36907" lon="2.51131">
        <ele>522.1</ele>
        <time>2017-02-25T14:09:34Z</time>
      </trkpt>
      <trkpt lat="43.36909" lon="2.51122">
        <ele>523.1</ele>
        <time>2017-02-25T14:09:39Z</time>
      </trkpt>
      <trkpt lat="43.3691" lon="2.51111">
        <ele>524</ele>
        <time>2017-02-25T14:09:45Z</time>
      </trkpt>
      <trkpt lat="43.36912" lon="2.511">
        <ele>525.2</ele>
        <time>2017-02-25T14:09:51Z</time>
      </trkpt>
      <trkpt lat="43.36914" lon="2.51089">
        <ele>526</ele>
        <time>2017-02-25T14:09:57Z</time>
      </trkpt>
      <trkpt lat="43.36916" lon="2.51079">
        <ele>526.6</ele>
        <time>2017-02-25T14:10:03Z</time>
      </trkpt>
      <trkpt lat="43.36921" lon="2.51069">
        <ele>527.1</ele>
        <time>2017-02-25T14:10:10Z</time>
      </trkpt>
      <trkpt lat="43.36925" lon="2.5106">
        <ele>526.6</ele>
        <time>2017-02-25T14:10:16Z</time>
      </trkpt>
      <trkpt lat="43.36927" lon="2.51057">
        <ele>527.2</ele>
        <time>2017-02-25T14:10:23Z</time>
      </trkpt>
      <trkpt lat="43.36945" lon="2.51055">
        <ele>545.2</ele>
        <time>2017-02-25T14:10:56Z</time>
      </trkpt>
      <trkpt lat="43.36948" lon="2.51053">
        <ele>548.6</ele>
        <time>2017-02-25T14:11:03Z</time>
      </trkpt>
      <trkpt lat="43.36949" lon="2.51043">
        <ele>553.2</ele>
        <time>2017-02-25T14:11:37Z</time>
      </trkpt>
      <trkpt lat="43.36956" lon="2.51039">
        <ele>553.5</ele>
        <time>2017-02-25T14:11:44Z</time>
      </trkpt>
      <trkpt lat="43.36961" lon="2.51034">
        <ele>554.5</ele>
        <time>2017-02-25T14:11:51Z</time>
      </trkpt>
      <trkpt lat="43.36956" lon="2.51039">
        <ele>561.7</ele>
        <time>2017-02-25T14:13:28Z</time>
      </trkpt>
      <trkpt lat="43.36952" lon="2.51048">
        <ele>560.9</ele>
        <time>2017-02-25T14:13:35Z</time>
      </trkpt>
      <trkpt lat="43.36952" lon="2.5105">
        <ele>561</ele>
        <time>2017-02-25T14:13:42Z</time>
      </trkpt>
      <trkpt lat="43.36948" lon="2.51058">
        <ele>560.3</ele>
        <time>2017-02-25T14:13:56Z</time>
      </trkpt>
      <trkpt lat="43.36945" lon="2.51067">
        <ele>558.8</ele>
        <time>2017-02-25T14:14:03Z</time>
      </trkpt>
      <trkpt lat="43.36942" lon="2.51077">
        <ele>557.5</ele>
        <time>2017-02-25T14:14:09Z</time>
      </trkpt>
      <trkpt lat="43.36939" lon="2.51088">
        <ele>555.6</ele>
        <time>2017-02-25T14:14:15Z</time>
      </trkpt>
      <trkpt lat="43.36936" lon="2.51097">
        <ele>554.3</ele>
        <time>2017-02-25T14:14:20Z</time>
      </trkpt>
      <trkpt lat="43.36933" lon="2.51107">
        <ele>553.6</ele>
        <time>2017-02-25T14:14:25Z</time>
      </trkpt>
      <trkpt lat="43.36931" lon="2.51117">
        <ele>552.9</ele>
        <time>2017-02-25T14:14:30Z</time>
      </trkpt>
      <trkpt lat="43.36929" lon="2.51128">
        <ele>551.8</ele>
        <time>2017-02-25T14:14:36Z</time>
      </trkpt>
      <trkpt lat="43.36928" lon="2.51138">
        <ele>550.9</ele>
        <time>2017-02-25T14:14:42Z</time>
      </trkpt>
      <trkpt lat="43.36925" lon="2.51148">
        <ele>550.3</ele>
        <time>2017-02-25T14:14:48Z</time>
      </trkpt>
      <trkpt lat="43.36922" lon="2.51157">
        <ele>550.2</ele>
        <time>2017-02-25T14:14:53Z</time>
      </trkpt>
      <trkpt lat="43.36917" lon="2.51167">
        <ele>550.5</ele>
        <time>2017-02-25T14:15:00Z</time>
      </trkpt>
      <trkpt lat="43.36913" lon="2.51177">
        <ele>550.7</ele>
        <time>2017-02-25T14:15:07Z</time>
      </trkpt>
      <trkpt lat="43.3691" lon="2.51186">
        <ele>550.5</ele>
        <time>2017-02-25T14:15:13Z</time>
      </trkpt>
      <trkpt lat="43.36905" lon="2.51194">
        <ele>550.1</ele>
        <time>2017-02-25T14:15:20Z</time>
      </trkpt>
      <trkpt lat="43.36905" lon="2.51205">
        <ele>551.1</ele>
        <time>2017-02-25T14:15:26Z</time>
      </trkpt>
      <trkpt lat="43.36901" lon="2.51216">
        <ele>552.4</ele>
        <time>2017-02-25T14:15:33Z</time>
      </trkpt>
      <trkpt lat="43.36899" lon="2.51225">
        <ele>553.7</ele>
        <time>2017-02-25T14:15:39Z</time>
      </trkpt>
      <trkpt lat="43.36894" lon="2.51234">
        <ele>554.1</ele>
        <time>2017-02-25T14:15:45Z</time>
      </trkpt>
      <trkpt lat="43.36892" lon="2.51244">
        <ele>554.5</ele>
        <time>2017-02-25T14:15:51Z</time>
      </trkpt>
      <trkpt lat="43.3689" lon="2.51254">
        <ele>554.3</ele>
        <time>2017-02-25T14:15:57Z</time>
      </trkpt>
      <trkpt lat="43.36885" lon="2.51264">
        <ele>554</ele>
        <time>2017-02-25T14:16:03Z</time>
      </trkpt>
      <trkpt lat="43.36883" lon="2.51274">
        <ele>554.7</ele>
        <time>2017-02-25T14:16:09Z</time>
      </trkpt>
      <trkpt lat="43.36881" lon="2.51283">
        <ele>554.6</ele>
        <time>2017-02-25T14:16:14Z</time>
      </trkpt>
      <trkpt lat="43.36884" lon="2.51286">
        <ele>555.5</ele>
        <time>2017-02-25T14:16:21Z</time>
      </trkpt>
      <trkpt lat="43.36877" lon="2.51296">
        <ele>563.8</ele>
        <time>2017-02-25T14:18:20Z</time>
      </trkpt>
      <trkpt lat="43.36872" lon="2.51302">
        <ele>561.5</ele>
        <time>2017-02-25T14:18:27Z</time>
      </trkpt>
      <trkpt lat="43.36866" lon="2.51309">
        <ele>560</ele>
        <time>2017-02-25T14:18:33Z</time>
      </trkpt>
      <trkpt lat="43.36864" lon="2.51319">
        <ele>557.6</ele>
        <time>2017-02-25T14:18:40Z</time>
      </trkpt>
      <trkpt lat="43.3686" lon="2.51329">
        <ele>555.2</ele>
        <time>2017-02-25T14:18:46Z</time>
      </trkpt>
      <trkpt lat="43.36854" lon="2.51337">
        <ele>551.6</ele>
        <time>2017-02-25T14:18:53Z</time>
      </trkpt>
      <trkpt lat="43.36851" lon="2.51345">
        <ele>547.8</ele>
        <time>2017-02-25T14:19:00Z</time>
      </trkpt>
      <trkpt lat="43.36847" lon="2.51353">
        <ele>544.2</ele>
        <time>2017-02-25T14:19:07Z</time>
      </trkpt>
      <trkpt lat="43.36846" lon="2.51363">
        <ele>541</ele>
        <time>2017-02-25T14:19:14Z</time>
      </trkpt>
      <trkpt lat="43.36842" lon="2.51373">
        <ele>537.9</ele>
        <time>2017-02-25T14:19:21Z</time>
      </trkpt>
      <trkpt lat="43.36838" lon="2.51382">
        <ele>535.6</ele>
        <time>2017-02-25T14:19:27Z</time>
      </trkpt>
      <trkpt lat="43.36835" lon="2.51391">
        <ele>533.1</ele>
        <time>2017-02-25T14:19:33Z</time>
      </trkpt>
      <trkpt lat="43.36834" lon="2.51401">
        <ele>530.9</ele>
        <time>2017-02-25T14:19:40Z</time>
      </trkpt>
      <trkpt lat="43.3683" lon="2.51408">
        <ele>528.3</ele>
        <time>2017-02-25T14:19:47Z</time>
      </trkpt>
      <trkpt lat="43.36824" lon="2.51414">
        <ele>526.4</ele>
        <time>2017-02-25T14:19:53Z</time>
      </trkpt>
      <trkpt lat="43.36818" lon="2.51422">
        <ele>524</ele>
        <time>2017-02-25T14:20:00Z</time>
      </trkpt>
      <trkpt lat="43.36811" lon="2.51426">
        <ele>522.5</ele>
        <time>2017-02-25T14:20:04Z</time>
      </trkpt>
      <trkpt lat="43.36806" lon="2.51434">
        <ele>521</ele>
        <time>2017-02-25T14:20:11Z</time>
      </trkpt>
      <trkpt lat="43.36799" lon="2.51439">
        <ele>519.1</ele>
        <time>2017-02-25T14:20:16Z</time>
      </trkpt>
      <trkpt lat="43.36797" lon="2.5144">
        <ele>518.9</ele>
        <time>2017-02-25T14:20:23Z</time>
      </trkpt>
      <trkpt lat="43.36789" lon="2.51447">
        <ele>519.6</ele>
        <time>2017-02-25T14:20:27Z</time>
      </trkpt>
      <trkpt lat="43.36787" lon="2.51448">
        <ele>519.6</ele>
        <time>2017-02-25T14:20:34Z</time>
      </trkpt>
      <trkpt lat="43.36779" lon="2.51453">
        <ele>522</ele>
        <time>2017-02-25T14:20:37Z</time>
      </trkpt>
      <trkpt lat="43.36775" lon="2.51456">
        <ele>522.7</ele>
        <time>2017-02-25T14:20:44Z</time>
      </trkpt>
      <trkpt lat="43.36768" lon="2.51457">
        <ele>524.2</ele>
        <time>2017-02-25T14:20:51Z</time>
      </trkpt>
      <trkpt lat="43.36761" lon="2.51455">
        <ele>524</ele>
        <time>2017-02-25T14:20:58Z</time>
      </trkpt>
      <trkpt lat="43.36754" lon="2.51457">
        <ele>524.2</ele>
        <time>2017-02-25T14:21:05Z</time>
      </trkpt>
      <trkpt lat="43.36746" lon="2.51459">
        <ele>524.5</ele>
        <time>2017-02-25T14:21:12Z</time>
      </trkpt>
      <trkpt lat="43.36739" lon="2.51458">
        <ele>525</ele>
        <time>2017-02-25T14:21:17Z</time>
      </trkpt>
      <trkpt lat="43.36731" lon="2.5146">
        <ele>525.4</ele>
        <time>2017-02-25T14:21:21Z</time>
      </trkpt>
      <trkpt lat="43.36724" lon="2.51462">
        <ele>525.8</ele>
        <time>2017-02-25T14:21:26Z</time>
      </trkpt>
      <trkpt lat="43.36716" lon="2.51463">
        <ele>526.5</ele>
        <time>2017-02-25T14:21:31Z</time>
      </trkpt>
      <trkpt lat="43.36708" lon="2.51463">
        <ele>526.7</ele>
        <time>2017-02-25T14:21:37Z</time>
      </trkpt>
      <trkpt lat="43.367" lon="2.51466">
        <ele>526.5</ele>
        <time>2017-02-25T14:21:42Z</time>
      </trkpt>
      <trkpt lat="43.36693" lon="2.51464">
        <ele>527.7</ele>
        <time>2017-02-25T14:21:49Z</time>
      </trkpt>
      <trkpt lat="43.36685" lon="2.51463">
        <ele>527.4</ele>
        <time>2017-02-25T14:21:54Z</time>
      </trkpt>
      <trkpt lat="43.36678" lon="2.51462">
        <ele>527.5</ele>
        <time>2017-02-25T14:22:00Z</time>
      </trkpt>
      <trkpt lat="43.3667" lon="2.51461">
        <ele>527.2</ele>
        <time>2017-02-25T14:22:07Z</time>
      </trkpt>
      <trkpt lat="43.36664" lon="2.51463">
        <ele>527.5</ele>
        <time>2017-02-25T14:22:14Z</time>
      </trkpt>
      <trkpt lat="43.3666" lon="2.51464">
        <ele>528.4</ele>
        <time>2017-02-25T14:22:21Z</time>
      </trkpt>
      <trkpt lat="43.36655" lon="2.51467">
        <ele>528.8</ele>
        <time>2017-02-25T14:22:28Z</time>
      </trkpt>
      <trkpt lat="43.36647" lon="2.51472">
        <ele>528.5</ele>
        <time>2017-02-25T14:22:35Z</time>
      </trkpt>
      <trkpt lat="43.36641" lon="2.51476">
        <ele>527.6</ele>
        <time>2017-02-25T14:22:39Z</time>
      </trkpt>
      <trkpt lat="43.36634" lon="2.51482">
        <ele>526.8</ele>
        <time>2017-02-25T14:22:45Z</time>
      </trkpt>
      <trkpt lat="43.36626" lon="2.51485">
        <ele>525.5</ele>
        <time>2017-02-25T14:22:51Z</time>
      </trkpt>
      <trkpt lat="43.36619" lon="2.51486">
        <ele>524.8</ele>
        <time>2017-02-25T14:22:56Z</time>
      </trkpt>
      <trkpt lat="43.36614" lon="2.51486">
        <ele>524.2</ele>
        <time>2017-02-25T14:23:03Z</time>
      </trkpt>
      <trkpt lat="43.36608" lon="2.51488">
        <ele>523.7</ele>
        <time>2017-02-25T14:23:10Z</time>
      </trkpt>
      <trkpt lat="43.36605" lon="2.5149">
        <ele>523.8</ele>
        <time>2017-02-25T14:23:17Z</time>
      </trkpt>
      <trkpt lat="43.36599" lon="2.5149">
        <ele>523.4</ele>
        <time>2017-02-25T14:23:24Z</time>
      </trkpt>
      <trkpt lat="43.36595" lon="2.51493">
        <ele>523.2</ele>
        <time>2017-02-25T14:23:31Z</time>
      </trkpt>
      <trkpt lat="43.36591" lon="2.51496">
        <ele>523.5</ele>
        <time>2017-02-25T14:23:38Z</time>
      </trkpt>
      <trkpt lat="43.36583" lon="2.51498">
        <ele>523.4</ele>
        <time>2017-02-25T14:23:41Z</time>
      </trkpt>
      <trkpt lat="43.36575" lon="2.51501">
        <ele>523.6</ele>
        <time>2017-02-25T14:23:47Z</time>
      </trkpt>
      <trkpt lat="43.36567" lon="2.51505">
        <ele>523.9</ele>
        <time>2017-02-25T14:23:53Z</time>
      </trkpt>
      <trkpt lat="43.3656" lon="2.51509">
        <ele>523.8</ele>
        <time>2017-02-25T14:23:58Z</time>
      </trkpt>
      <trkpt lat="43.36552" lon="2.51514">
        <ele>524.4</ele>
        <time>2017-02-25T14:24:04Z</time>
      </trkpt>
      <trkpt lat="43.36544" lon="2.51516">
        <ele>523.9</ele>
        <time>2017-02-25T14:24:08Z</time>
      </trkpt>
      <trkpt lat="43.3654" lon="2.51519">
        <ele>522.8</ele>
        <time>2017-02-25T14:24:15Z</time>
      </trkpt>
      <trkpt lat="43.36533" lon="2.51518">
        <ele>522.8</ele>
        <time>2017-02-25T14:24:21Z</time>
      </trkpt>
      <trkpt lat="43.36525" lon="2.5152">
        <ele>523.5</ele>
        <time>2017-02-25T14:24:28Z</time>
      </trkpt>
      <trkpt lat="43.36523" lon="2.51528">
        <ele>523.7</ele>
        <time>2017-02-25T14:24:35Z</time>
      </trkpt>
      <trkpt lat="43.36522" lon="2.51536">
        <ele>523</ele>
        <time>2017-02-25T14:24:42Z</time>
      </trkpt>
      <trkpt lat="43.36522" lon="2.51539">
        <ele>521.9</ele>
        <time>2017-02-25T14:24:49Z</time>
      </trkpt>
      <trkpt lat="43.36517" lon="2.51538">
        <ele>521.6</ele>
        <time>2017-02-25T14:24:56Z</time>
      </trkpt>
      <trkpt lat="43.36512" lon="2.51539">
        <ele>522.2</ele>
        <time>2017-02-25T14:25:03Z</time>
      </trkpt>
      <trkpt lat="43.36507" lon="2.51539">
        <ele>523.3</ele>
        <time>2017-02-25T14:25:10Z</time>
      </trkpt>
      <trkpt lat="43.36501" lon="2.51543">
        <ele>523.9</ele>
        <time>2017-02-25T14:25:17Z</time>
      </trkpt>
      <trkpt lat="43.36498" lon="2.51542">
        <ele>524.2</ele>
        <time>2017-02-25T14:25:24Z</time>
      </trkpt>
      <trkpt lat="43.36485" lon="2.51539">
        <ele>526.8</ele>
        <time>2017-02-25T14:25:27Z</time>
      </trkpt>
      <trkpt lat="43.36475" lon="2.51542">
        <ele>527.4</ele>
        <time>2017-02-25T14:25:32Z</time>
      </trkpt>
      <trkpt lat="43.36469" lon="2.51544">
        <ele>527.8</ele>
        <time>2017-02-25T14:25:36Z</time>
      </trkpt>
      <trkpt lat="43.36464" lon="2.51548">
        <ele>527.8</ele>
        <time>2017-02-25T14:25:43Z</time>
      </trkpt>
      <trkpt lat="43.36458" lon="2.51554">
        <ele>526.7</ele>
        <time>2017-02-25T14:25:50Z</time>
      </trkpt>
      <trkpt lat="43.36454" lon="2.51562">
        <ele>525.3</ele>
        <time>2017-02-25T14:25:57Z</time>
      </trkpt>
      <trkpt lat="43.36446" lon="2.51565">
        <ele>525.8</ele>
        <time>2017-02-25T14:26:02Z</time>
      </trkpt>
      <trkpt lat="43.36443" lon="2.51574">
        <ele>527</ele>
        <time>2017-02-25T14:26:09Z</time>
      </trkpt>
      <trkpt lat="43.36437" lon="2.5158">
        <ele>527.2</ele>
        <time>2017-02-25T14:26:16Z</time>
      </trkpt>
      <trkpt lat="43.36429" lon="2.51582">
        <ele>526.5</ele>
        <time>2017-02-25T14:26:20Z</time>
      </trkpt>
      <trkpt lat="43.36422" lon="2.51584">
        <ele>525.9</ele>
        <time>2017-02-25T14:26:27Z</time>
      </trkpt>
      <trkpt lat="43.36414" lon="2.51585">
        <ele>525.7</ele>
        <time>2017-02-25T14:26:33Z</time>
      </trkpt>
      <trkpt lat="43.36406" lon="2.51587">
        <ele>525.8</ele>
        <time>2017-02-25T14:26:39Z</time>
      </trkpt>
      <trkpt lat="43.36403" lon="2.51592">
        <ele>526.9</ele>
        <time>2017-02-25T14:26:46Z</time>
      </trkpt>
      <trkpt lat="43.36397" lon="2.51597">
        <ele>526.7</ele>
        <time>2017-02-25T14:26:53Z</time>
      </trkpt>
      <trkpt lat="43.36392" lon="2.516">
        <ele>527</ele>
        <time>2017-02-25T14:27:00Z</time>
      </trkpt>
      <trkpt lat="43.36387" lon="2.51605">
        <ele>526.7</ele>
        <time>2017-02-25T14:27:07Z</time>
      </trkpt>
      <trkpt lat="43.36384" lon="2.51611">
        <ele>526.3</ele>
        <time>2017-02-25T14:27:14Z</time>
      </trkpt>
      <trkpt lat="43.36382" lon="2.5162">
        <ele>525.8</ele>
        <time>2017-02-25T14:27:21Z</time>
      </trkpt>
      <trkpt lat="43.36375" lon="2.51625">
        <ele>525.5</ele>
        <time>2017-02-25T14:27:28Z</time>
      </trkpt>
      <trkpt lat="43.36367" lon="2.51626">
        <ele>525</ele>
        <time>2017-02-25T14:27:33Z</time>
      </trkpt>
      <trkpt lat="43.3636" lon="2.51632">
        <ele>524.7</ele>
        <time>2017-02-25T14:27:40Z</time>
      </trkpt>
      <trkpt lat="43.36353" lon="2.51638">
        <ele>524.7</ele>
        <time>2017-02-25T14:27:45Z</time>
      </trkpt>
      <trkpt lat="43.36346" lon="2.51645">
        <ele>524.3</ele>
        <time>2017-02-25T14:27:51Z</time>
      </trkpt>
      <trkpt lat="43.36339" lon="2.5165">
        <ele>523.7</ele>
        <time>2017-02-25T14:27:57Z</time>
      </trkpt>
      <trkpt lat="43.36332" lon="2.51653">
        <ele>521.9</ele>
        <time>2017-02-25T14:28:02Z</time>
      </trkpt>
      <trkpt lat="43.36326" lon="2.51659">
        <ele>519.7</ele>
        <time>2017-02-25T14:28:09Z</time>
      </trkpt>
      <trkpt lat="43.3632" lon="2.51666">
        <ele>517.6</ele>
        <time>2017-02-25T14:28:16Z</time>
      </trkpt>
      <trkpt lat="43.36312" lon="2.51671">
        <ele>515.6</ele>
        <time>2017-02-25T14:28:22Z</time>
      </trkpt>
      <trkpt lat="43.36303" lon="2.51672">
        <ele>513.6</ele>
        <time>2017-02-25T14:28:28Z</time>
      </trkpt>
      <trkpt lat="43.36296" lon="2.51673">
        <ele>510.8</ele>
        <time>2017-02-25T14:28:34Z</time>
      </trkpt>
      <trkpt lat="43.36288" lon="2.51673">
        <ele>507.8</ele>
        <time>2017-02-25T14:28:41Z</time>
      </trkpt>
      <trkpt lat="43.36281" lon="2.51675">
        <ele>506.2</ele>
        <time>2017-02-25T14:28:48Z</time>
      </trkpt>
      <trkpt lat="43.36273" lon="2.51678">
        <ele>504.9</ele>
        <time>2017-02-25T14:28:54Z</time>
      </trkpt>
      <trkpt lat="43.36265" lon="2.5168">
        <ele>503.1</ele>
        <time>2017-02-25T14:29:00Z</time>
      </trkpt>
      <trkpt lat="43.36257" lon="2.51684">
        <ele>501.2</ele>
        <time>2017-02-25T14:29:07Z</time>
      </trkpt>
      <trkpt lat="43.36251" lon="2.51691">
        <ele>499.4</ele>
        <time>2017-02-25T14:29:12Z</time>
      </trkpt>
      <trkpt lat="43.36245" lon="2.51696">
        <ele>497.1</ele>
        <time>2017-02-25T14:29:17Z</time>
      </trkpt>
      <trkpt lat="43.36238" lon="2.51703">
        <ele>494.2</ele>
        <time>2017-02-25T14:29:23Z</time>
      </trkpt>
      <trkpt lat="43.36232" lon="2.51708">
        <ele>492.1</ele>
        <time>2017-02-25T14:29:30Z</time>
      </trkpt>
      <trkpt lat="43.36225" lon="2.51715">
        <ele>489.8</ele>
        <time>2017-02-25T14:29:35Z</time>
      </trkpt>
      <trkpt lat="43.3622" lon="2.51723">
        <ele>487.9</ele>
        <time>2017-02-25T14:29:41Z</time>
      </trkpt>
      <trkpt lat="43.36213" lon="2.51729">
        <ele>485.3</ele>
        <time>2017-02-25T14:29:47Z</time>
      </trkpt>
      <trkpt lat="43.36208" lon="2.51738">
        <ele>483.2</ele>
        <time>2017-02-25T14:29:53Z</time>
      </trkpt>
      <trkpt lat="43.36203" lon="2.51745">
        <ele>481.2</ele>
        <time>2017-02-25T14:29:59Z</time>
      </trkpt>
      <trkpt lat="43.36198" lon="2.51754">
        <ele>478</ele>
        <time>2017-02-25T14:30:06Z</time>
      </trkpt>
      <trkpt lat="43.36193" lon="2.51762">
        <ele>475.5</ele>
        <time>2017-02-25T14:30:11Z</time>
      </trkpt>
      <trkpt lat="43.36189" lon="2.51771">
        <ele>474</ele>
        <time>2017-02-25T14:30:16Z</time>
      </trkpt>
      <trkpt lat="43.36184" lon="2.51777">
        <ele>471.3</ele>
        <time>2017-02-25T14:30:23Z</time>
      </trkpt>
      <trkpt lat="43.36179" lon="2.51783">
        <ele>468.1</ele>
        <time>2017-02-25T14:30:30Z</time>
      </trkpt>
      <trkpt lat="43.36175" lon="2.51792">
        <ele>464.5</ele>
        <time>2017-02-25T14:30:36Z</time>
      </trkpt>
      <trkpt lat="43.3617" lon="2.518">
        <ele>461.8</ele>
        <time>2017-02-25T14:30:43Z</time>
      </trkpt>
      <trkpt lat="43.36166" lon="2.51809">
        <ele>459.9</ele>
        <time>2017-02-25T14:30:48Z</time>
      </trkpt>
      <trkpt lat="43.36163" lon="2.51819">
        <ele>457.5</ele>
        <time>2017-02-25T14:30:55Z</time>
      </trkpt>
      <trkpt lat="43.36159" lon="2.51827">
        <ele>455.3</ele>
        <time>2017-02-25T14:31:01Z</time>
      </trkpt>
      <trkpt lat="43.36153" lon="2.51834">
        <ele>453.2</ele>
        <time>2017-02-25T14:31:08Z</time>
      </trkpt>
      <trkpt lat="43.36147" lon="2.51842">
        <ele>450.3</ele>
        <time>2017-02-25T14:31:14Z</time>
      </trkpt>
      <trkpt lat="43.36142" lon="2.51848">
        <ele>448.4</ele>
        <time>2017-02-25T14:31:19Z</time>
      </trkpt>
      <trkpt lat="43.36137" lon="2.51857">
        <ele>446.8</ele>
        <time>2017-02-25T14:31:25Z</time>
      </trkpt>
      <trkpt lat="43.36133" lon="2.51866">
        <ele>446.4</ele>
        <time>2017-02-25T14:31:31Z</time>
      </trkpt>
      <trkpt lat="43.36129" lon="2.51874">
        <ele>446.1</ele>
        <time>2017-02-25T14:31:38Z</time>
      </trkpt>
      <trkpt lat="43.36123" lon="2.51881">
        <ele>446</ele>
        <time>2017-02-25T14:31:45Z</time>
      </trkpt>
      <trkpt lat="43.36118" lon="2.51888">
        <ele>445.9</ele>
        <time>2017-02-25T14:31:51Z</time>
      </trkpt>
      <trkpt lat="43.36111" lon="2.51894">
        <ele>446</ele>
        <time>2017-02-25T14:31:58Z</time>
      </trkpt>
      <trkpt lat="43.36104" lon="2.519">
        <ele>446.1</ele>
        <time>2017-02-25T14:32:04Z</time>
      </trkpt>
      <trkpt lat="43.36099" lon="2.51905">
        <ele>446.1</ele>
        <time>2017-02-25T14:32:10Z</time>
      </trkpt>
      <trkpt lat="43.36092" lon="2.5191">
        <ele>445.7</ele>
        <time>2017-02-25T14:32:17Z</time>
      </trkpt>
      <trkpt lat="43.36085" lon="2.51914">
        <ele>445.2</ele>
        <time>2017-02-25T14:32:24Z</time>
      </trkpt>
      <trkpt lat="43.36078" lon="2.51918">
        <ele>444</ele>
        <time>2017-02-25T14:32:29Z</time>
      </trkpt>
      <trkpt lat="43.36071" lon="2.51924">
        <ele>442.9</ele>
        <time>2017-02-25T14:32:35Z</time>
      </trkpt>
      <trkpt lat="43.36066" lon="2.51932">
        <ele>442.8</ele>
        <time>2017-02-25T14:32:40Z</time>
      </trkpt>
      <trkpt lat="43.36061" lon="2.51938">
        <ele>442.9</ele>
        <time>2017-02-25T14:32:45Z</time>
      </trkpt>
      <trkpt lat="43.36054" lon="2.51943">
        <ele>443.1</ele>
        <time>2017-02-25T14:32:51Z</time>
      </trkpt>
      <trkpt lat="43.36046" lon="2.51946">
        <ele>443.8</ele>
        <time>2017-02-25T14:32:57Z</time>
      </trkpt>
      <trkpt lat="43.36038" lon="2.51947">
        <ele>443.3</ele>
        <time>2017-02-25T14:33:03Z</time>
      </trkpt>
      <trkpt lat="43.36029" lon="2.51945">
        <ele>442.4</ele>
        <time>2017-02-25T14:33:09Z</time>
      </trkpt>
      <trkpt lat="43.36021" lon="2.51942">
        <ele>441.9</ele>
        <time>2017-02-25T14:33:15Z</time>
      </trkpt>
      <trkpt lat="43.36014" lon="2.51938">
        <ele>440.4</ele>
        <time>2017-02-25T14:33:22Z</time>
      </trkpt>
      <trkpt lat="43.36007" lon="2.51936">
        <ele>438.2</ele>
        <time>2017-02-25T14:33:29Z</time>
      </trkpt>
      <trkpt lat="43.36002" lon="2.51933">
        <ele>435.9</ele>
        <time>2017-02-25T14:33:36Z</time>
      </trkpt>
      <trkpt lat="43.35995" lon="2.51934">
        <ele>434.1</ele>
        <time>2017-02-25T14:33:43Z</time>
      </trkpt>
      <trkpt lat="43.35987" lon="2.51934">
        <ele>433.1</ele>
        <time>2017-02-25T14:33:49Z</time>
      </trkpt>
      <trkpt lat="43.35978" lon="2.51934">
        <ele>430.6</ele>
        <time>2017-02-25T14:33:56Z</time>
      </trkpt>
      <trkpt lat="43.35969" lon="2.51935">
        <ele>428.6</ele>
        <time>2017-02-25T14:34:01Z</time>
      </trkpt>
      <trkpt lat="43.35962" lon="2.51935">
        <ele>427.2</ele>
        <time>2017-02-25T14:34:08Z</time>
      </trkpt>
      <trkpt lat="43.35954" lon="2.51937">
        <ele>425.6</ele>
        <time>2017-02-25T14:34:14Z</time>
      </trkpt>
      <trkpt lat="43.35945" lon="2.51938">
        <ele>423.6</ele>
        <time>2017-02-25T14:34:21Z</time>
      </trkpt>
      <trkpt lat="43.35936" lon="2.51938">
        <ele>421.8</ele>
        <time>2017-02-25T14:34:26Z</time>
      </trkpt>
      <trkpt lat="43.35929" lon="2.51937">
        <ele>421.5</ele>
        <time>2017-02-25T14:34:31Z</time>
      </trkpt>
      <trkpt lat="43.35921" lon="2.51937">
        <ele>421</ele>
        <time>2017-02-25T14:34:38Z</time>
      </trkpt>
      <trkpt lat="43.35914" lon="2.51935">
        <ele>421</ele>
        <time>2017-02-25T14:34:44Z</time>
      </trkpt>
      <trkpt lat="43.35907" lon="2.51931">
        <ele>420.6</ele>
        <time>2017-02-25T14:34:49Z</time>
      </trkpt>
      <trkpt lat="43.35899" lon="2.5193">
        <ele>418.9</ele>
        <time>2017-02-25T14:34:55Z</time>
      </trkpt>
      <trkpt lat="43.35891" lon="2.51924">
        <ele>418.1</ele>
        <time>2017-02-25T14:35:01Z</time>
      </trkpt>
      <trkpt lat="43.35884" lon="2.51924">
        <ele>417.6</ele>
        <time>2017-02-25T14:35:06Z</time>
      </trkpt>
      <trkpt lat="43.35876" lon="2.51924">
        <ele>417.2</ele>
        <time>2017-02-25T14:35:12Z</time>
      </trkpt>
      <trkpt lat="43.35868" lon="2.51925">
        <ele>417.7</ele>
        <time>2017-02-25T14:35:18Z</time>
      </trkpt>
      <trkpt lat="43.3586" lon="2.51925">
        <ele>417.7</ele>
        <time>2017-02-25T14:35:25Z</time>
      </trkpt>
      <trkpt lat="43.35853" lon="2.51927">
        <ele>416.8</ele>
        <time>2017-02-25T14:35:32Z</time>
      </trkpt>
      <trkpt lat="43.35845" lon="2.5193">
        <ele>415.9</ele>
        <time>2017-02-25T14:35:39Z</time>
      </trkpt>
      <trkpt lat="43.35837" lon="2.51934">
        <ele>414.7</ele>
        <time>2017-02-25T14:35:46Z</time>
      </trkpt>
      <trkpt lat="43.3583" lon="2.51938">
        <ele>413.9</ele>
        <time>2017-02-25T14:35:52Z</time>
      </trkpt>
      <trkpt lat="43.35823" lon="2.51942">
        <ele>413.5</ele>
        <time>2017-02-25T14:35:58Z</time>
      </trkpt>
      <trkpt lat="43.35817" lon="2.51947">
        <ele>413</ele>
        <time>2017-02-25T14:36:03Z</time>
      </trkpt>
      <trkpt lat="43.3581" lon="2.51953">
        <ele>412.2</ele>
        <time>2017-02-25T14:36:08Z</time>
      </trkpt>
      <trkpt lat="43.35805" lon="2.5196">
        <ele>411.4</ele>
        <time>2017-02-25T14:36:13Z</time>
      </trkpt>
      <trkpt lat="43.35799" lon="2.51968">
        <ele>410.5</ele>
        <time>2017-02-25T14:36:20Z</time>
      </trkpt>
      <trkpt lat="43.35793" lon="2.51976">
        <ele>410.2</ele>
        <time>2017-02-25T14:36:26Z</time>
      </trkpt>
      <trkpt lat="43.35786" lon="2.51982">
        <ele>409.9</ele>
        <time>2017-02-25T14:36:32Z</time>
      </trkpt>
      <trkpt lat="43.35781" lon="2.51988">
        <ele>410</ele>
        <time>2017-02-25T14:36:37Z</time>
      </trkpt>
      <trkpt lat="43.35774" lon="2.51992">
        <ele>409.4</ele>
        <time>2017-02-25T14:36:43Z</time>
      </trkpt>
      <trkpt lat="43.35767" lon="2.51999">
        <ele>409.5</ele>
        <time>2017-02-25T14:36:49Z</time>
      </trkpt>
      <trkpt lat="43.35761" lon="2.52004">
        <ele>409.7</ele>
        <time>2017-02-25T14:36:54Z</time>
      </trkpt>
      <trkpt lat="43.35753" lon="2.52007">
        <ele>409.9</ele>
        <time>2017-02-25T14:37:00Z</time>
      </trkpt>
      <trkpt lat="43.35746" lon="2.52012">
        <ele>409.5</ele>
        <time>2017-02-25T14:37:07Z</time>
      </trkpt>
      <trkpt lat="43.35739" lon="2.52017">
        <ele>409.8</ele>
        <time>2017-02-25T14:37:13Z</time>
      </trkpt>
      <trkpt lat="43.35732" lon="2.52022">
        <ele>409.4</ele>
        <time>2017-02-25T14:37:19Z</time>
      </trkpt>
      <trkpt lat="43.35725" lon="2.52027">
        <ele>408.4</ele>
        <time>2017-02-25T14:37:25Z</time>
      </trkpt>
      <trkpt lat="43.35718" lon="2.52032">
        <ele>407.7</ele>
        <time>2017-02-25T14:37:31Z</time>
      </trkpt>
      <trkpt lat="43.35713" lon="2.52038">
        <ele>406</ele>
        <time>2017-02-25T14:37:38Z</time>
      </trkpt>
      <trkpt lat="43.35707" lon="2.52045">
        <ele>404.8</ele>
        <time>2017-02-25T14:37:42Z</time>
      </trkpt>
      <trkpt lat="43.35701" lon="2.52049">
        <ele>404.6</ele>
        <time>2017-02-25T14:37:49Z</time>
      </trkpt>
      <trkpt lat="43.35693" lon="2.52051">
        <ele>404</ele>
        <time>2017-02-25T14:37:55Z</time>
      </trkpt>
      <trkpt lat="43.35685" lon="2.52052">
        <ele>403.3</ele>
        <time>2017-02-25T14:38:01Z</time>
      </trkpt>
      <trkpt lat="43.35678" lon="2.52053">
        <ele>401.5</ele>
        <time>2017-02-25T14:38:06Z</time>
      </trkpt>
      <trkpt lat="43.3567" lon="2.52053">
        <ele>399.5</ele>
        <time>2017-02-25T14:38:12Z</time>
      </trkpt>
      <trkpt lat="43.35661" lon="2.52052">
        <ele>398.2</ele>
        <time>2017-02-25T14:38:17Z</time>
      </trkpt>
      <trkpt lat="43.35654" lon="2.52051">
        <ele>397.9</ele>
        <time>2017-02-25T14:38:22Z</time>
      </trkpt>
      <trkpt lat="43.35646" lon="2.52048">
        <ele>397.6</ele>
        <time>2017-02-25T14:38:27Z</time>
      </trkpt>
      <trkpt lat="43.35638" lon="2.5205">
        <ele>396.6</ele>
        <time>2017-02-25T14:38:32Z</time>
      </trkpt>
      <trkpt lat="43.3563" lon="2.52051">
        <ele>396.1</ele>
        <time>2017-02-25T14:38:38Z</time>
      </trkpt>
      <trkpt lat="43.35623" lon="2.52052">
        <ele>395.9</ele>
        <time>2017-02-25T14:38:44Z</time>
      </trkpt>
      <trkpt lat="43.35615" lon="2.52053">
        <ele>395.5</ele>
        <time>2017-02-25T14:38:51Z</time>
      </trkpt>
      <trkpt lat="43.35608" lon="2.52052">
        <ele>395.3</ele>
        <time>2017-02-25T14:38:57Z</time>
      </trkpt>
      <trkpt lat="43.356" lon="2.52051">
        <ele>395.2</ele>
        <time>2017-02-25T14:39:04Z</time>
      </trkpt>
      <trkpt lat="43.35591" lon="2.52051">
        <ele>394.9</ele>
        <time>2017-02-25T14:39:10Z</time>
      </trkpt>
      <trkpt lat="43.35584" lon="2.5205">
        <ele>394.9</ele>
        <time>2017-02-25T14:39:15Z</time>
      </trkpt>
      <trkpt lat="43.35576" lon="2.52047">
        <ele>394.5</ele>
        <time>2017-02-25T14:39:21Z</time>
      </trkpt>
      <trkpt lat="43.35569" lon="2.52045">
        <ele>392.9</ele>
        <time>2017-02-25T14:39:28Z</time>
      </trkpt>
      <trkpt lat="43.35562" lon="2.52045">
        <ele>391.7</ele>
        <time>2017-02-25T14:39:35Z</time>
      </trkpt>
      <trkpt lat="43.35558" lon="2.52053">
        <ele>391.3</ele>
        <time>2017-02-25T14:39:42Z</time>
      </trkpt>
      <trkpt lat="43.35554" lon="2.52061">
        <ele>390.7</ele>
        <time>2017-02-25T14:39:46Z</time>
      </trkpt>
      <trkpt lat="43.3555" lon="2.5207">
        <ele>389.8</ele>
        <time>2017-02-25T14:39:51Z</time>
      </trkpt>
      <trkpt lat="43.35545" lon="2.52078">
        <ele>388.7</ele>
        <time>2017-02-25T14:39:58Z</time>
      </trkpt>
      <trkpt lat="43.35541" lon="2.52089">
        <ele>387.2</ele>
        <time>2017-02-25T14:40:05Z</time>
      </trkpt>
      <trkpt lat="43.35536" lon="2.52096">
        <ele>386.7</ele>
        <time>2017-02-25T14:40:10Z</time>
      </trkpt>
      <trkpt lat="43.35533" lon="2.52105">
        <ele>386.3</ele>
        <time>2017-02-25T14:40:16Z</time>
      </trkpt>
      <trkpt lat="43.35529" lon="2.52114">
        <ele>385.5</ele>
        <time>2017-02-25T14:40:23Z</time>
      </trkpt>
      <trkpt lat="43.35524" lon="2.52124">
        <ele>384.3</ele>
        <time>2017-02-25T14:40:29Z</time>
      </trkpt>
      <trkpt lat="43.35518" lon="2.52129">
        <ele>382.9</ele>
        <time>2017-02-25T14:40:36Z</time>
      </trkpt>
      <trkpt lat="43.35512" lon="2.52134">
        <ele>380.9</ele>
        <time>2017-02-25T14:40:43Z</time>
      </trkpt>
      <trkpt lat="43.35505" lon="2.52133">
        <ele>377.9</ele>
        <time>2017-02-25T14:40:50Z</time>
      </trkpt>
      <trkpt lat="43.35497" lon="2.52136">
        <ele>374.8</ele>
        <time>2017-02-25T14:40:57Z</time>
      </trkpt>
      <trkpt lat="43.35491" lon="2.5214">
        <ele>371.3</ele>
        <time>2017-02-25T14:41:04Z</time>
      </trkpt>
      <trkpt lat="43.35484" lon="2.52143">
        <ele>369</ele>
        <time>2017-02-25T14:41:10Z</time>
      </trkpt>
      <trkpt lat="43.35476" lon="2.52144">
        <ele>367.5</ele>
        <time>2017-02-25T14:41:16Z</time>
      </trkpt>
      <trkpt lat="43.35468" lon="2.52144">
        <ele>366.5</ele>
        <time>2017-02-25T14:41:20Z</time>
      </trkpt>
      <trkpt lat="43.3546" lon="2.52145">
        <ele>365.6</ele>
        <time>2017-02-25T14:41:25Z</time>
      </trkpt>
      <trkpt lat="43.35451" lon="2.52145">
        <ele>364.5</ele>
        <time>2017-02-25T14:41:30Z</time>
      </trkpt>
      <trkpt lat="43.35443" lon="2.52145">
        <ele>363.8</ele>
        <time>2017-02-25T14:41:35Z</time>
      </trkpt>
      <trkpt lat="43.35434" lon="2.52144">
        <ele>364.3</ele>
        <time>2017-02-25T14:41:41Z</time>
      </trkpt>
      <trkpt lat="43.35428" lon="2.52141">
        <ele>364.8</ele>
        <time>2017-02-25T14:41:48Z</time>
      </trkpt>
      <trkpt lat="43.35427" lon="2.5214">
        <ele>365.6</ele>
        <time>2017-02-25T14:41:55Z</time>
      </trkpt>
      <trkpt lat="43.35423" lon="2.52137">
        <ele>367.2</ele>
        <time>2017-02-25T14:42:02Z</time>
      </trkpt>
      <trkpt lat="43.35417" lon="2.52134">
        <ele>367</ele>
        <time>2017-02-25T14:42:09Z</time>
      </trkpt>
      <trkpt lat="43.35412" lon="2.52128">
        <ele>365.1</ele>
        <time>2017-02-25T14:42:16Z</time>
      </trkpt>
      <trkpt lat="43.35404" lon="2.52123">
        <ele>362.7</ele>
        <time>2017-02-25T14:42:23Z</time>
      </trkpt>
      <trkpt lat="43.35402" lon="2.52122">
        <ele>361.7</ele>
        <time>2017-02-25T14:42:30Z</time>
      </trkpt>
      <trkpt lat="43.35394" lon="2.52119">
        <ele>360.2</ele>
        <time>2017-02-25T14:42:44Z</time>
      </trkpt>
      <trkpt lat="43.35388" lon="2.52114">
        <ele>358.1</ele>
        <time>2017-02-25T14:42:51Z</time>
      </trkpt>
      <trkpt lat="43.3538" lon="2.52114">
        <ele>356.6</ele>
        <time>2017-02-25T14:42:57Z</time>
      </trkpt>
      <trkpt lat="43.35372" lon="2.52113">
        <ele>356.1</ele>
        <time>2017-02-25T14:43:04Z</time>
      </trkpt>
      <trkpt lat="43.35364" lon="2.52116">
        <ele>355.7</ele>
        <time>2017-02-25T14:43:10Z</time>
      </trkpt>
      <trkpt lat="43.35354" lon="2.52114">
        <ele>355.4</ele>
        <time>2017-02-25T14:43:16Z</time>
      </trkpt>
      <trkpt lat="43.35347" lon="2.52113">
        <ele>355.6</ele>
        <time>2017-02-25T14:43:22Z</time>
      </trkpt>
      <trkpt lat="43.3534" lon="2.52112">
        <ele>355.1</ele>
        <time>2017-02-25T14:43:27Z</time>
      </trkpt>
      <trkpt lat="43.35333" lon="2.52109">
        <ele>354.3</ele>
        <time>2017-02-25T14:43:34Z</time>
      </trkpt>
      <trkpt lat="43.35327" lon="2.52103">
        <ele>353.4</ele>
        <time>2017-02-25T14:43:41Z</time>
      </trkpt>
      <trkpt lat="43.3532" lon="2.52097">
        <ele>352</ele>
        <time>2017-02-25T14:43:48Z</time>
      </trkpt>
      <trkpt lat="43.35315" lon="2.5209">
        <ele>350.6</ele>
        <time>2017-02-25T14:43:54Z</time>
      </trkpt>
      <trkpt lat="43.35308" lon="2.52085">
        <ele>349.1</ele>
        <time>2017-02-25T14:44:00Z</time>
      </trkpt>
      <trkpt lat="43.35306" lon="2.52074">
        <ele>346.1</ele>
        <time>2017-02-25T14:44:06Z</time>
      </trkpt>
      <trkpt lat="43.35302" lon="2.52066">
        <ele>343.5</ele>
        <time>2017-02-25T14:44:13Z</time>
      </trkpt>
      <trkpt lat="43.35298" lon="2.5207">
        <ele>341.5</ele>
        <time>2017-02-25T14:44:20Z</time>
      </trkpt>
      <trkpt lat="43.35298" lon="2.52079">
        <ele>339.1</ele>
        <time>2017-02-25T14:44:27Z</time>
      </trkpt>
      <trkpt lat="43.35299" lon="2.5209">
        <ele>335.3</ele>
        <time>2017-02-25T14:44:34Z</time>
      </trkpt>
      <trkpt lat="43.353" lon="2.521">
        <ele>331</ele>
        <time>2017-02-25T14:44:41Z</time>
      </trkpt>
      <trkpt lat="43.35304" lon="2.52108">
        <ele>328</ele>
        <time>2017-02-25T14:44:48Z</time>
      </trkpt>
      <trkpt lat="43.3531" lon="2.52114">
        <ele>324.2</ele>
        <time>2017-02-25T14:44:55Z</time>
      </trkpt>
      <trkpt lat="43.35313" lon="2.52123">
        <ele>319.2</ele>
        <time>2017-02-25T14:45:02Z</time>
      </trkpt>
      <trkpt lat="43.35317" lon="2.5213">
        <ele>315.4</ele>
        <time>2017-02-25T14:45:09Z</time>
      </trkpt>
      <trkpt lat="43.35315" lon="2.52135">
        <ele>315.8</ele>
        <time>2017-02-25T14:45:16Z</time>
      </trkpt>
      <trkpt lat="43.35312" lon="2.52135">
        <ele>314.3</ele>
        <time>2017-02-25T14:45:23Z</time>
      </trkpt>
      <trkpt lat="43.35309" lon="2.52141">
        <ele>313.5</ele>
        <time>2017-02-25T14:45:36Z</time>
      </trkpt>
      <trkpt lat="43.35302" lon="2.52143">
        <ele>313.7</ele>
        <time>2017-02-25T14:45:38Z</time>
      </trkpt>
      <trkpt lat="43.35294" lon="2.52141">
        <ele>314.1</ele>
        <time>2017-02-25T14:45:45Z</time>
      </trkpt>
      <trkpt lat="43.35292" lon="2.52142">
        <ele>314.9</ele>
        <time>2017-02-25T14:45:52Z</time>
      </trkpt>
      <trkpt lat="43.35288" lon="2.52144">
        <ele>316.2</ele>
        <time>2017-02-25T14:45:59Z</time>
      </trkpt>
      <trkpt lat="43.35284" lon="2.52143">
        <ele>317.5</ele>
        <time>2017-02-25T14:46:06Z</time>
      </trkpt>
      <trkpt lat="43.35277" lon="2.5214">
        <ele>318.7</ele>
        <time>2017-02-25T14:46:13Z</time>
      </trkpt>
      <trkpt lat="43.35272" lon="2.52135">
        <ele>320.3</ele>
        <time>2017-02-25T14:46:20Z</time>
      </trkpt>
      <trkpt lat="43.35266" lon="2.52128">
        <ele>322.5</ele>
        <time>2017-02-25T14:46:27Z</time>
      </trkpt>
      <trkpt lat="43.35259" lon="2.52125">
        <ele>325</ele>
        <time>2017-02-25T14:46:34Z</time>
      </trkpt>
      <trkpt lat="43.35251" lon="2.52126">
        <ele>326.6</ele>
        <time>2017-02-25T14:46:41Z</time>
      </trkpt>
      <trkpt lat="43.35244" lon="2.52128">
        <ele>327</ele>
        <time>2017-02-25T14:46:47Z</time>
      </trkpt>
      <trkpt lat="43.35236" lon="2.52131">
        <ele>325.5</ele>
        <time>2017-02-25T14:46:54Z</time>
      </trkpt>
      <trkpt lat="43.3523" lon="2.52134">
        <ele>324.3</ele>
        <time>2017-02-25T14:47:01Z</time>
      </trkpt>
      <trkpt lat="43.35223" lon="2.52138">
        <ele>323.2</ele>
        <time>2017-02-25T14:47:08Z</time>
      </trkpt>
      <trkpt lat="43.35217" lon="2.52139">
        <ele>321.9</ele>
        <time>2017-02-25T14:47:15Z</time>
      </trkpt>
      <trkpt lat="43.3521" lon="2.52139">
        <ele>320.3</ele>
        <time>2017-02-25T14:47:22Z</time>
      </trkpt>
      <trkpt lat="43.35202" lon="2.52141">
        <ele>318.5</ele>
        <time>2017-02-25T14:47:28Z</time>
      </trkpt>
      <trkpt lat="43.35196" lon="2.52144">
        <ele>317.2</ele>
        <time>2017-02-25T14:47:35Z</time>
      </trkpt>
      <trkpt lat="43.35188" lon="2.52147">
        <ele>315.4</ele>
        <time>2017-02-25T14:47:42Z</time>
      </trkpt>
      <trkpt lat="43.35181" lon="2.52151">
        <ele>314</ele>
        <time>2017-02-25T14:47:48Z</time>
      </trkpt>
      <trkpt lat="43.35176" lon="2.52153">
        <ele>313</ele>
        <time>2017-02-25T14:47:55Z</time>
      </trkpt>
      <trkpt lat="43.35168" lon="2.52151">
        <ele>312.8</ele>
        <time>2017-02-25T14:48:06Z</time>
      </trkpt>
      <trkpt lat="43.35161" lon="2.52151">
        <ele>311.4</ele>
        <time>2017-02-25T14:48:13Z</time>
      </trkpt>
      <trkpt lat="43.35153" lon="2.52152">
        <ele>309.7</ele>
        <time>2017-02-25T14:48:19Z</time>
      </trkpt>
      <trkpt lat="43.35146" lon="2.52153">
        <ele>309.3</ele>
        <time>2017-02-25T14:48:26Z</time>
      </trkpt>
      <trkpt lat="43.35138" lon="2.52156">
        <ele>308.8</ele>
        <time>2017-02-25T14:48:33Z</time>
      </trkpt>
      <trkpt lat="43.35131" lon="2.52159">
        <ele>308.1</ele>
        <time>2017-02-25T14:48:40Z</time>
      </trkpt>
      <trkpt lat="43.35125" lon="2.52163">
        <ele>306.4</ele>
        <time>2017-02-25T14:48:47Z</time>
      </trkpt>
      <trkpt lat="43.35118" lon="2.52169">
        <ele>304.1</ele>
        <time>2017-02-25T14:48:54Z</time>
      </trkpt>
      <trkpt lat="43.3511" lon="2.52175">
        <ele>302.5</ele>
        <time>2017-02-25T14:49:00Z</time>
      </trkpt>
      <trkpt lat="43.35106" lon="2.52181">
        <ele>300.4</ele>
        <time>2017-02-25T14:49:07Z</time>
      </trkpt>
      <trkpt lat="43.35104" lon="2.52181">
        <ele>300.3</ele>
        <time>2017-02-25T14:49:14Z</time>
      </trkpt>
      <trkpt lat="43.35099" lon="2.52188">
        <ele>297.6</ele>
        <time>2017-02-25T14:49:45Z</time>
      </trkpt>
      <trkpt lat="43.35095" lon="2.52193">
        <ele>296.5</ele>
        <time>2017-02-25T14:49:52Z</time>
      </trkpt>
      <trkpt lat="43.35091" lon="2.522">
        <ele>296</ele>
        <time>2017-02-25T14:49:59Z</time>
      </trkpt>
      <trkpt lat="43.35084" lon="2.52207">
        <ele>295</ele>
        <time>2017-02-25T14:50:05Z</time>
      </trkpt>
      <trkpt lat="43.35077" lon="2.52212">
        <ele>293.3</ele>
        <time>2017-02-25T14:50:11Z</time>
      </trkpt>
      <trkpt lat="43.3507" lon="2.52215">
        <ele>292.2</ele>
        <time>2017-02-25T14:50:17Z</time>
      </trkpt>
      <trkpt lat="43.35063" lon="2.52217">
        <ele>291.6</ele>
        <time>2017-02-25T14:50:24Z</time>
      </trkpt>
      <trkpt lat="43.35056" lon="2.52221">
        <ele>291.1</ele>
        <time>2017-02-25T14:50:31Z</time>
      </trkpt>
      <trkpt lat="43.35049" lon="2.52223">
        <ele>290</ele>
        <time>2017-02-25T14:50:38Z</time>
      </trkpt>
      <trkpt lat="43.35041" lon="2.52225">
        <ele>287.9</ele>
        <time>2017-02-25T14:50:45Z</time>
      </trkpt>
      <trkpt lat="43.35033" lon="2.52224">
        <ele>285.7</ele>
        <time>2017-02-25T14:50:49Z</time>
      </trkpt>
      <trkpt lat="43.35026" lon="2.52221">
        <ele>283.1</ele>
        <time>2017-02-25T14:50:54Z</time>
      </trkpt>
      <trkpt lat="43.35019" lon="2.52217">
        <ele>282.2</ele>
        <time>2017-02-25T14:51:00Z</time>
      </trkpt>
      <trkpt lat="43.35012" lon="2.52215">
        <ele>280.9</ele>
        <time>2017-02-25T14:51:07Z</time>
      </trkpt>
      <trkpt lat="43.35005" lon="2.52213">
        <ele>280.2</ele>
        <time>2017-02-25T14:51:13Z</time>
      </trkpt>
      <trkpt lat="43.34996" lon="2.52211">
        <ele>279.4</ele>
        <time>2017-02-25T14:51:20Z</time>
      </trkpt>
      <trkpt lat="43.34988" lon="2.52209">
        <ele>279.6</ele>
        <time>2017-02-25T14:51:26Z</time>
      </trkpt>
      <trkpt lat="43.34981" lon="2.52205">
        <ele>279.6</ele>
        <time>2017-02-25T14:51:32Z</time>
      </trkpt>
      <trkpt lat="43.34973" lon="2.52199">
        <ele>278.9</ele>
        <time>2017-02-25T14:51:39Z</time>
      </trkpt>
      <trkpt lat="43.34966" lon="2.52196">
        <ele>278.9</ele>
        <time>2017-02-25T14:51:46Z</time>
      </trkpt>
      <trkpt lat="43.3496" lon="2.52193">
        <ele>278.8</ele>
        <time>2017-02-25T14:51:53Z</time>
      </trkpt>
      <trkpt lat="43.34955" lon="2.52188">
        <ele>278.9</ele>
        <time>2017-02-25T14:52:00Z</time>
      </trkpt>
      <trkpt lat="43.3495" lon="2.5218">
        <ele>278.7</ele>
        <time>2017-02-25T14:52:05Z</time>
      </trkpt>
      <trkpt lat="43.34944" lon="2.52174">
        <ele>278.8</ele>
        <time>2017-02-25T14:52:12Z</time>
      </trkpt>
      <trkpt lat="43.34941" lon="2.52167">
        <ele>278.3</ele>
        <time>2017-02-25T14:52:19Z</time>
      </trkpt>
      <trkpt lat="43.34936" lon="2.5216">
        <ele>278.1</ele>
        <time>2017-02-25T14:52:26Z</time>
      </trkpt>
      <trkpt lat="43.34933" lon="2.52153">
        <ele>277.6</ele>
        <time>2017-02-25T14:52:33Z</time>
      </trkpt>
      <trkpt lat="43.34926" lon="2.52147">
        <ele>277.5</ele>
        <time>2017-02-25T14:52:40Z</time>
      </trkpt>
      <trkpt lat="43.34922" lon="2.52142">
        <ele>275.8</ele>
        <time>2017-02-25T14:52:47Z</time>
      </trkpt>
      <trkpt lat="43.34917" lon="2.52139">
        <ele>275.1</ele>
        <time>2017-02-25T14:52:54Z</time>
      </trkpt>
      <trkpt lat="43.3491" lon="2.52138">
        <ele>271.8</ele>
        <time>2017-02-25T14:53:01Z</time>
      </trkpt>
      <trkpt lat="43.34901" lon="2.52137">
        <ele>269.7</ele>
        <time>2017-02-25T14:53:08Z</time>
      </trkpt>
      <trkpt lat="43.34893" lon="2.52138">
        <ele>267.9</ele>
        <time>2017-02-25T14:53:13Z</time>
      </trkpt>
      <trkpt lat="43.34886" lon="2.52139">
        <ele>266.5</ele>
        <time>2017-02-25T14:53:18Z</time>
      </trkpt>
      <trkpt lat="43.34877" lon="2.5214">
        <ele>264.4</ele>
        <time>2017-02-25T14:53:25Z</time>
      </trkpt>
      <trkpt lat="43.34868" lon="2.52138">
        <ele>264.4</ele>
        <time>2017-02-25T14:53:31Z</time>
      </trkpt>
      <trkpt lat="43.34861" lon="2.5214">
        <ele>262.6</ele>
        <time>2017-02-25T14:53:38Z</time>
      </trkpt>
      <trkpt lat="43.34859" lon="2.52142">
        <ele>260.8</ele>
        <time>2017-02-25T14:53:45Z</time>
      </trkpt>
      <trkpt lat="43.34852" lon="2.52146">
        <ele>256.8</ele>
        <time>2017-02-25T14:53:59Z</time>
      </trkpt>
      <trkpt lat="43.34845" lon="2.52147">
        <ele>254.5</ele>
        <time>2017-02-25T14:54:06Z</time>
      </trkpt>
      <trkpt lat="43.34841" lon="2.5215">
        <ele>252.8</ele>
        <time>2017-02-25T14:54:13Z</time>
      </trkpt>
      <trkpt lat="43.34835" lon="2.52154">
        <ele>250.3</ele>
        <time>2017-02-25T14:54:20Z</time>
      </trkpt>
      <trkpt lat="43.34828" lon="2.52158">
        <ele>248.6</ele>
        <time>2017-02-25T14:54:27Z</time>
      </trkpt>
      <trkpt lat="43.34822" lon="2.52165">
        <ele>247.2</ele>
        <time>2017-02-25T14:54:34Z</time>
      </trkpt>
      <trkpt lat="43.34815" lon="2.52171">
        <ele>245.8</ele>
        <time>2017-02-25T14:54:38Z</time>
      </trkpt>
      <trkpt lat="43.34809" lon="2.52174">
        <ele>244.2</ele>
        <time>2017-02-25T14:54:42Z</time>
      </trkpt>
      <trkpt lat="43.34803" lon="2.52182">
        <ele>242.7</ele>
        <time>2017-02-25T14:54:47Z</time>
      </trkpt>
      <trkpt lat="43.34798" lon="2.52189">
        <ele>241.8</ele>
        <time>2017-02-25T14:54:54Z</time>
      </trkpt>
      <trkpt lat="43.34793" lon="2.52197">
        <ele>239.9</ele>
        <time>2017-02-25T14:55:01Z</time>
      </trkpt>
      <trkpt lat="43.34788" lon="2.52204">
        <ele>236.5</ele>
        <time>2017-02-25T14:55:08Z</time>
      </trkpt>
      <trkpt lat="43.34783" lon="2.52211">
        <ele>233</ele>
        <time>2017-02-25T14:55:14Z</time>
      </trkpt>
      <trkpt lat="43.34778" lon="2.52221">
        <ele>229.8</ele>
        <time>2017-02-25T14:55:20Z</time>
      </trkpt>
      <trkpt lat="43.34773" lon="2.52229">
        <ele>227.5</ele>
        <time>2017-02-25T14:55:26Z</time>
      </trkpt>
      <trkpt lat="43.34767" lon="2.52235">
        <ele>225.9</ele>
        <time>2017-02-25T14:55:32Z</time>
      </trkpt>
      <trkpt lat="43.34762" lon="2.52242">
        <ele>225.5</ele>
        <time>2017-02-25T14:55:38Z</time>
      </trkpt>
      <trkpt lat="43.34758" lon="2.52251">
        <ele>225</ele>
        <time>2017-02-25T14:55:44Z</time>
      </trkpt>
      <trkpt lat="43.34755" lon="2.52261">
        <ele>224.1</ele>
        <time>2017-02-25T14:55:51Z</time>
      </trkpt>
      <trkpt lat="43.34752" lon="2.5227">
        <ele>222.6</ele>
        <time>2017-02-25T14:55:56Z</time>
      </trkpt>
      <trkpt lat="43.34749" lon="2.5228">
        <ele>218.7</ele>
        <time>2017-02-25T14:56:03Z</time>
      </trkpt>
      <trkpt lat="43.34747" lon="2.5229">
        <ele>215.7</ele>
        <time>2017-02-25T14:56:10Z</time>
      </trkpt>
      <trkpt lat="43.34746" lon="2.52297">
        <ele>212</ele>
        <time>2017-02-25T14:56:17Z</time>
      </trkpt>
      <trkpt lat="43.34749" lon="2.52306">
        <ele>209.4</ele>
        <time>2017-02-25T14:56:24Z</time>
      </trkpt>
      <trkpt lat="43.34744" lon="2.52316">
        <ele>207.7</ele>
        <time>2017-02-25T14:56:31Z</time>
      </trkpt>
      <trkpt lat="43.34739" lon="2.52323">
        <ele>207.3</ele>
        <time>2017-02-25T14:56:36Z</time>
      </trkpt>
      <trkpt lat="43.34732" lon="2.52329">
        <ele>206.8</ele>
        <time>2017-02-25T14:56:41Z</time>
      </trkpt>
      <trkpt lat="43.34725" lon="2.52333">
        <ele>207.6</ele>
        <time>2017-02-25T14:56:48Z</time>
      </trkpt>
      <trkpt lat="43.3472" lon="2.52339">
        <ele>207.8</ele>
        <time>2017-02-25T14:56:55Z</time>
      </trkpt>
      <trkpt lat="43.34714" lon="2.52343">
        <ele>207.3</ele>
        <time>2017-02-25T14:57:02Z</time>
      </trkpt>
      <trkpt lat="43.34709" lon="2.52345">
        <ele>206.9</ele>
        <time>2017-02-25T14:57:09Z</time>
      </trkpt>
      <trkpt lat="43.34702" lon="2.52347">
        <ele>206</ele>
        <time>2017-02-25T14:57:16Z</time>
      </trkpt>
      <trkpt lat="43.34696" lon="2.52349">
        <ele>204.2</ele>
        <time>2017-02-25T14:57:23Z</time>
      </trkpt>
      <trkpt lat="43.34689" lon="2.52353">
        <ele>202.2</ele>
        <time>2017-02-25T14:57:30Z</time>
      </trkpt>
      <trkpt lat="43.34682" lon="2.52357">
        <ele>200.3</ele>
        <time>2017-02-25T14:57:37Z</time>
      </trkpt>
      <trkpt lat="43.34675" lon="2.5236">
        <ele>198.9</ele>
        <time>2017-02-25T14:57:44Z</time>
      </trkpt>
      <trkpt lat="43.34668" lon="2.52365">
        <ele>198.7</ele>
        <time>2017-02-25T14:57:50Z</time>
      </trkpt>
      <trkpt lat="43.34662" lon="2.52368">
        <ele>198.2</ele>
        <time>2017-02-25T14:57:57Z</time>
      </trkpt>
      <trkpt lat="43.34654" lon="2.52373">
        <ele>197.4</ele>
        <time>2017-02-25T14:58:03Z</time>
      </trkpt>
      <trkpt lat="43.34647" lon="2.52377">
        <ele>196.8</ele>
        <time>2017-02-25T14:58:10Z</time>
      </trkpt>
      <trkpt lat="43.3464" lon="2.52383">
        <ele>196.9</ele>
        <time>2017-02-25T14:58:16Z</time>
      </trkpt>
      <trkpt lat="43.34633" lon="2.52389">
        <ele>196.6</ele>
        <time>2017-02-25T14:58:23Z</time>
      </trkpt>
      <trkpt lat="43.34626" lon="2.52394">
        <ele>197.7</ele>
        <time>2017-02-25T14:58:30Z</time>
      </trkpt>
      <trkpt lat="43.3462" lon="2.52398">
        <ele>197.7</ele>
        <time>2017-02-25T14:58:37Z</time>
      </trkpt>
      <trkpt lat="43.34614" lon="2.52402">
        <ele>198.5</ele>
        <time>2017-02-25T14:58:44Z</time>
      </trkpt>
      <trkpt lat="43.34607" lon="2.52405">
        <ele>198.4</ele>
        <time>2017-02-25T14:58:49Z</time>
      </trkpt>
      <trkpt lat="43.34599" lon="2.52405">
        <ele>198.1</ele>
        <time>2017-02-25T14:58:55Z</time>
      </trkpt>
      <trkpt lat="43.34592" lon="2.52408">
        <ele>197.9</ele>
        <time>2017-02-25T14:59:02Z</time>
      </trkpt>
      <trkpt lat="43.34585" lon="2.5241">
        <ele>198.3</ele>
        <time>2017-02-25T14:59:08Z</time>
      </trkpt>
      <trkpt lat="43.34578" lon="2.52414">
        <ele>198</ele>
        <time>2017-02-25T14:59:14Z</time>
      </trkpt>
      <trkpt lat="43.3457" lon="2.52418">
        <ele>198.5</ele>
        <time>2017-02-25T14:59:19Z</time>
      </trkpt>
      <trkpt lat="43.34563" lon="2.52419">
        <ele>196.9</ele>
        <time>2017-02-25T14:59:24Z</time>
      </trkpt>
      <trkpt lat="43.34556" lon="2.52417">
        <ele>196.2</ele>
        <time>2017-02-25T14:59:29Z</time>
      </trkpt>
      <trkpt lat="43.34548" lon="2.52414">
        <ele>194.2</ele>
        <time>2017-02-25T14:59:36Z</time>
      </trkpt>
      <trkpt lat="43.34541" lon="2.52412">
        <ele>192.4</ele>
        <time>2017-02-25T14:59:42Z</time>
      </trkpt>
      <trkpt lat="43.34538" lon="2.52409">
        <ele>190.7</ele>
        <time>2017-02-25T14:59:49Z</time>
      </trkpt>
      <trkpt lat="43.34535" lon="2.52406">
        <ele>191.8</ele>
        <time>2017-02-25T14:59:56Z</time>
      </trkpt>
      <trkpt lat="43.3453" lon="2.52399">
        <ele>191.8</ele>
        <time>2017-02-25T15:00:02Z</time>
      </trkpt>
      <trkpt lat="43.34525" lon="2.52392">
        <ele>191.1</ele>
        <time>2017-02-25T15:00:07Z</time>
      </trkpt>
      <trkpt lat="43.34519" lon="2.52387">
        <ele>190.9</ele>
        <time>2017-02-25T15:00:12Z</time>
      </trkpt>
      <trkpt lat="43.34513" lon="2.52379">
        <ele>191.8</ele>
        <time>2017-02-25T15:00:17Z</time>
      </trkpt>
      <trkpt lat="43.34508" lon="2.52372">
        <ele>193.3</ele>
        <time>2017-02-25T15:00:24Z</time>
      </trkpt>
      <trkpt lat="43.34501" lon="2.52367">
        <ele>194.2</ele>
        <time>2017-02-25T15:00:30Z</time>
      </trkpt>
      <trkpt lat="43.34493" lon="2.52365">
        <ele>195.7</ele>
        <time>2017-02-25T15:00:37Z</time>
      </trkpt>
      <trkpt lat="43.34485" lon="2.52365">
        <ele>195.4</ele>
        <time>2017-02-25T15:00:44Z</time>
      </trkpt>
      <trkpt lat="43.34478" lon="2.52368">
        <ele>195.8</ele>
        <time>2017-02-25T15:00:50Z</time>
      </trkpt>
      <trkpt lat="43.3447" lon="2.52366">
        <ele>196.6</ele>
        <time>2017-02-25T15:00:56Z</time>
      </trkpt>
      <trkpt lat="43.34464" lon="2.5237">
        <ele>198.4</ele>
        <time>2017-02-25T15:01:03Z</time>
      </trkpt>
      <trkpt lat="43.34456" lon="2.52373">
        <ele>199.6</ele>
        <time>2017-02-25T15:01:09Z</time>
      </trkpt>
      <trkpt lat="43.34448" lon="2.52376">
        <ele>200.4</ele>
        <time>2017-02-25T15:01:14Z</time>
      </trkpt>
      <trkpt lat="43.34441" lon="2.52378">
        <ele>200.4</ele>
        <time>2017-02-25T15:01:20Z</time>
      </trkpt>
      <trkpt lat="43.34433" lon="2.5238">
        <ele>201.1</ele>
        <time>2017-02-25T15:01:26Z</time>
      </trkpt>
      <trkpt lat="43.34426" lon="2.52384">
        <ele>201.9</ele>
        <time>2017-02-25T15:01:32Z</time>
      </trkpt>
      <trkpt lat="43.34419" lon="2.52386">
        <ele>201.6</ele>
        <time>2017-02-25T15:01:37Z</time>
      </trkpt>
      <trkpt lat="43.34413" lon="2.52389">
        <ele>201.8</ele>
        <time>2017-02-25T15:01:43Z</time>
      </trkpt>
      <trkpt lat="43.34405" lon="2.52393">
        <ele>202.6</ele>
        <time>2017-02-25T15:01:50Z</time>
      </trkpt>
      <trkpt lat="43.34397" lon="2.52396">
        <ele>203.7</ele>
        <time>2017-02-25T15:01:56Z</time>
      </trkpt>
      <trkpt lat="43.34389" lon="2.52399">
        <ele>204.7</ele>
        <time>2017-02-25T15:02:03Z</time>
      </trkpt>
      <trkpt lat="43.34381" lon="2.52402">
        <ele>205.3</ele>
        <time>2017-02-25T15:02:10Z</time>
      </trkpt>
      <trkpt lat="43.34375" lon="2.52407">
        <ele>205.1</ele>
        <time>2017-02-25T15:02:16Z</time>
      </trkpt>
      <trkpt lat="43.34368" lon="2.52414">
        <ele>205.7</ele>
        <time>2017-02-25T15:02:22Z</time>
      </trkpt>
      <trkpt lat="43.34362" lon="2.5242">
        <ele>205.8</ele>
        <time>2017-02-25T15:02:27Z</time>
      </trkpt>
      <trkpt lat="43.34357" lon="2.52426">
        <ele>206.4</ele>
        <time>2017-02-25T15:02:32Z</time>
      </trkpt>
      <trkpt lat="43.34351" lon="2.52434">
        <ele>207.2</ele>
        <time>2017-02-25T15:02:38Z</time>
      </trkpt>
      <trkpt lat="43.34345" lon="2.52441">
        <ele>208.6</ele>
        <time>2017-02-25T15:02:44Z</time>
      </trkpt>
      <trkpt lat="43.34338" lon="2.52449">
        <ele>210.1</ele>
        <time>2017-02-25T15:02:50Z</time>
      </trkpt>
      <trkpt lat="43.34333" lon="2.52456">
        <ele>212.3</ele>
        <time>2017-02-25T15:02:57Z</time>
      </trkpt>
      <trkpt lat="43.34326" lon="2.52463">
        <ele>214.7</ele>
        <time>2017-02-25T15:03:03Z</time>
      </trkpt>
      <trkpt lat="43.34319" lon="2.5247">
        <ele>216.8</ele>
        <time>2017-02-25T15:03:09Z</time>
      </trkpt>
      <trkpt lat="43.34313" lon="2.52476">
        <ele>218.9</ele>
        <time>2017-02-25T15:03:15Z</time>
      </trkpt>
      <trkpt lat="43.34305" lon="2.52481">
        <ele>220.7</ele>
        <time>2017-02-25T15:03:21Z</time>
      </trkpt>
      <trkpt lat="43.34302" lon="2.52483">
        <ele>222.4</ele>
        <time>2017-02-25T15:03:28Z</time>
      </trkpt>
      <trkpt lat="43.34295" lon="2.52487">
        <ele>224.4</ele>
        <time>2017-02-25T15:03:35Z</time>
      </trkpt>
      <trkpt lat="43.34288" lon="2.52489">
        <ele>226.2</ele>
        <time>2017-02-25T15:03:41Z</time>
      </trkpt>
      <trkpt lat="43.34281" lon="2.52492">
        <ele>228</ele>
        <time>2017-02-25T15:03:48Z</time>
      </trkpt>
      <trkpt lat="43.34273" lon="2.52495">
        <ele>228.9</ele>
        <time>2017-02-25T15:03:55Z</time>
      </trkpt>
      <trkpt lat="43.34265" lon="2.52496">
        <ele>229.7</ele>
        <time>2017-02-25T15:04:02Z</time>
      </trkpt>
      <trkpt lat="43.34258" lon="2.525">
        <ele>230.6</ele>
        <time>2017-02-25T15:04:07Z</time>
      </trkpt>
      <trkpt lat="43.34251" lon="2.52502">
        <ele>231.1</ele>
        <time>2017-02-25T15:04:12Z</time>
      </trkpt>
      <trkpt lat="43.34243" lon="2.52506">
        <ele>231.4</ele>
        <time>2017-02-25T15:04:17Z</time>
      </trkpt>
      <trkpt lat="43.34236" lon="2.52506">
        <ele>231.6</ele>
        <time>2017-02-25T15:04:23Z</time>
      </trkpt>
      <trkpt lat="43.3423" lon="2.52506">
        <ele>231.8</ele>
        <time>2017-02-25T15:04:30Z</time>
      </trkpt>
      <trkpt lat="43.34223" lon="2.52506">
        <ele>231.6</ele>
        <time>2017-02-25T15:04:37Z</time>
      </trkpt>
      <trkpt lat="43.34216" lon="2.52508">
        <ele>231.3</ele>
        <time>2017-02-25T15:04:42Z</time>
      </trkpt>
      <trkpt lat="43.34208" lon="2.52511">
        <ele>230.4</ele>
        <time>2017-02-25T15:04:47Z</time>
      </trkpt>
      <trkpt lat="43.342" lon="2.52513">
        <ele>230.2</ele>
        <time>2017-02-25T15:04:53Z</time>
      </trkpt>
      <trkpt lat="43.34193" lon="2.52515">
        <ele>229.9</ele>
        <time>2017-02-25T15:04:59Z</time>
      </trkpt>
      <trkpt lat="43.34185" lon="2.52516">
        <ele>229.5</ele>
        <time>2017-02-25T15:05:05Z</time>
      </trkpt>
      <trkpt lat="43.34177" lon="2.52518">
        <ele>230</ele>
        <time>2017-02-25T15:05:12Z</time>
      </trkpt>
      <trkpt lat="43.34169" lon="2.52518">
        <ele>230.3</ele>
        <time>2017-02-25T15:05:18Z</time>
      </trkpt>
      <trkpt lat="43.34162" lon="2.52519">
        <ele>230.6</ele>
        <time>2017-02-25T15:05:23Z</time>
      </trkpt>
      <trkpt lat="43.34154" lon="2.5252">
        <ele>231.6</ele>
        <time>2017-02-25T15:05:29Z</time>
      </trkpt>
      <trkpt lat="43.34146" lon="2.52521">
        <ele>232.6</ele>
        <time>2017-02-25T15:05:35Z</time>
      </trkpt>
      <trkpt lat="43.34139" lon="2.52521">
        <ele>233.9</ele>
        <time>2017-02-25T15:05:41Z</time>
      </trkpt>
      <trkpt lat="43.34131" lon="2.52521">
        <ele>234.7</ele>
        <time>2017-02-25T15:05:47Z</time>
      </trkpt>
      <trkpt lat="43.34124" lon="2.52522">
        <ele>235.3</ele>
        <time>2017-02-25T15:05:53Z</time>
      </trkpt>
      <trkpt lat="43.34116" lon="2.52522">
        <ele>235.1</ele>
        <time>2017-02-25T15:06:00Z</time>
      </trkpt>
      <trkpt lat="43.34109" lon="2.52519">
        <ele>234.7</ele>
        <time>2017-02-25T15:06:06Z</time>
      </trkpt>
      <trkpt lat="43.34102" lon="2.52513">
        <ele>234.3</ele>
        <time>2017-02-25T15:06:12Z</time>
      </trkpt>
      <trkpt lat="43.34095" lon="2.52507">
        <ele>233.6</ele>
        <time>2017-02-25T15:06:18Z</time>
      </trkpt>
      <trkpt lat="43.34087" lon="2.52504">
        <ele>233.1</ele>
        <time>2017-02-25T15:06:24Z</time>
      </trkpt>
      <trkpt lat="43.3408" lon="2.52499">
        <ele>231.3</ele>
        <time>2017-02-25T15:06:29Z</time>
      </trkpt>
      <trkpt lat="43.34073" lon="2.52493">
        <ele>229.2</ele>
        <time>2017-02-25T15:06:35Z</time>
      </trkpt>
      <trkpt lat="43.34068" lon="2.52485">
        <ele>227.1</ele>
        <time>2017-02-25T15:06:41Z</time>
      </trkpt>
      <trkpt lat="43.34062" lon="2.52477">
        <ele>224.8</ele>
        <time>2017-02-25T15:06:47Z</time>
      </trkpt>
      <trkpt lat="43.34058" lon="2.52468">
        <ele>223.9</ele>
        <time>2017-02-25T15:06:53Z</time>
      </trkpt>
      <trkpt lat="43.34054" lon="2.52458">
        <ele>222.4</ele>
        <time>2017-02-25T15:07:00Z</time>
      </trkpt>
      <trkpt lat="43.34051" lon="2.52449">
        <ele>220.5</ele>
        <time>2017-02-25T15:07:06Z</time>
      </trkpt>
      <trkpt lat="43.34046" lon="2.5244">
        <ele>217.9</ele>
        <time>2017-02-25T15:07:12Z</time>
      </trkpt>
      <trkpt lat="43.34043" lon="2.52431">
        <ele>216.1</ele>
        <time>2017-02-25T15:07:18Z</time>
      </trkpt>
      <trkpt lat="43.34037" lon="2.52423">
        <ele>214.8</ele>
        <time>2017-02-25T15:07:25Z</time>
      </trkpt>
      <trkpt lat="43.3403" lon="2.52416">
        <ele>213.4</ele>
        <time>2017-02-25T15:07:31Z</time>
      </trkpt>
      <trkpt lat="43.34023" lon="2.52411">
        <ele>212.5</ele>
        <time>2017-02-25T15:07:37Z</time>
      </trkpt>
      <trkpt lat="43.34018" lon="2.52403">
        <ele>215</ele>
        <time>2017-02-25T15:07:44Z</time>
      </trkpt>
      <trkpt lat="43.3401" lon="2.52402">
        <ele>214.6</ele>
        <time>2017-02-25T15:07:50Z</time>
      </trkpt>
      <trkpt lat="43.34002" lon="2.52405">
        <ele>213.9</ele>
        <time>2017-02-25T15:07:57Z</time>
      </trkpt>
      <trkpt lat="43.33997" lon="2.52405">
        <ele>213.6</ele>
        <time>2017-02-25T15:08:04Z</time>
      </trkpt>
      <trkpt lat="43.33994" lon="2.52406">
        <ele>213.8</ele>
        <time>2017-02-25T15:08:11Z</time>
      </trkpt>
      <trkpt lat="43.33988" lon="2.52408">
        <ele>212.9</ele>
        <time>2017-02-25T15:08:18Z</time>
      </trkpt>
      <trkpt lat="43.33982" lon="2.52413">
        <ele>211.9</ele>
        <time>2017-02-25T15:08:25Z</time>
      </trkpt>
      <trkpt lat="43.33977" lon="2.52419">
        <ele>211.5</ele>
        <time>2017-02-25T15:08:32Z</time>
      </trkpt>
      <trkpt lat="43.33977" lon="2.5242">
        <ele>211.7</ele>
        <time>2017-02-25T15:08:39Z</time>
      </trkpt>
      <trkpt lat="43.33973" lon="2.52423">
        <ele>212</ele>
        <time>2017-02-25T15:08:46Z</time>
      </trkpt>
      <trkpt lat="43.33967" lon="2.5243">
        <ele>211.7</ele>
        <time>2017-02-25T15:08:52Z</time>
      </trkpt>
      <trkpt lat="43.33961" lon="2.52438">
        <ele>211.4</ele>
        <time>2017-02-25T15:08:59Z</time>
      </trkpt>
      <trkpt lat="43.33956" lon="2.52447">
        <ele>211.9</ele>
        <time>2017-02-25T15:09:05Z</time>
      </trkpt>
      <trkpt lat="43.33951" lon="2.52455">
        <ele>212.1</ele>
        <time>2017-02-25T15:09:11Z</time>
      </trkpt>
      <trkpt lat="43.33946" lon="2.52462">
        <ele>212.4</ele>
        <time>2017-02-25T15:09:17Z</time>
      </trkpt>
      <trkpt lat="43.33941" lon="2.5247">
        <ele>212.6</ele>
        <time>2017-02-25T15:09:23Z</time>
      </trkpt>
      <trkpt lat="43.33935" lon="2.52478">
        <ele>212.8</ele>
        <time>2017-02-25T15:09:29Z</time>
      </trkpt>
      <trkpt lat="43.3393" lon="2.52485">
        <ele>213.3</ele>
        <time>2017-02-25T15:09:36Z</time>
      </trkpt>
      <trkpt lat="43.33925" lon="2.5249">
        <ele>213.3</ele>
        <time>2017-02-25T15:09:43Z</time>
      </trkpt>
      <trkpt lat="43.33929" lon="2.52482">
        <ele>212.3</ele>
        <time>2017-02-25T15:09:55Z</time>
      </trkpt>
      <trkpt lat="43.33935" lon="2.52475">
        <ele>210.5</ele>
        <time>2017-02-25T15:10:02Z</time>
      </trkpt>
      <trkpt lat="43.33941" lon="2.52468">
        <ele>209.1</ele>
        <time>2017-02-25T15:10:08Z</time>
      </trkpt>
      <trkpt lat="43.33946" lon="2.52464">
        <ele>207.6</ele>
        <time>2017-02-25T15:10:15Z</time>
      </trkpt>
      <trkpt lat="43.33951" lon="2.52457">
        <ele>205.3</ele>
        <time>2017-02-25T15:10:22Z</time>
      </trkpt>
      <trkpt lat="43.33956" lon="2.52448">
        <ele>202.1</ele>
        <time>2017-02-25T15:10:28Z</time>
      </trkpt>
      <trkpt lat="43.33959" lon="2.52439">
        <ele>200.8</ele>
        <time>2017-02-25T15:10:33Z</time>
      </trkpt>
      <trkpt lat="43.33963" lon="2.5243">
        <ele>199.7</ele>
        <time>2017-02-25T15:10:39Z</time>
      </trkpt>
      <trkpt lat="43.33967" lon="2.5242">
        <ele>198.6</ele>
        <time>2017-02-25T15:10:44Z</time>
      </trkpt>
      <trkpt lat="43.33971" lon="2.52411">
        <ele>197.2</ele>
        <time>2017-02-25T15:10:51Z</time>
      </trkpt>
      <trkpt lat="43.33974" lon="2.52406">
        <ele>197.3</ele>
        <time>2017-02-25T15:10:58Z</time>
      </trkpt>
      <trkpt lat="43.3398" lon="2.524">
        <ele>197.1</ele>
        <time>2017-02-25T15:11:05Z</time>
      </trkpt>
      <trkpt lat="43.33981" lon="2.5239">
        <ele>198.4</ele>
        <time>2017-02-25T15:11:12Z</time>
      </trkpt>
      <trkpt lat="43.3398" lon="2.5238">
        <ele>198.8</ele>
        <time>2017-02-25T15:11:19Z</time>
      </trkpt>
      <trkpt lat="43.33978" lon="2.52377">
        <ele>197.5</ele>
        <time>2017-02-25T15:11:26Z</time>
      </trkpt>
      <trkpt lat="43.33978" lon="2.52376">
        <ele>197.5</ele>
        <time>2017-02-25T15:11:33Z</time>
      </trkpt>
      <trkpt lat="43.33984" lon="2.5237">
        <ele>197.6</ele>
        <time>2017-02-25T15:11:48Z</time>
      </trkpt>
      <trkpt lat="43.3399" lon="2.52364">
        <ele>197.7</ele>
        <time>2017-02-25T15:11:55Z</time>
      </trkpt>
      <trkpt lat="43.33995" lon="2.52361">
        <ele>198</ele>
        <time>2017-02-25T15:12:02Z</time>
      </trkpt>
      <trkpt lat="43.33989" lon="2.52362">
        <ele>198.1</ele>
        <time>2017-02-25T15:12:09Z</time>
      </trkpt>
      <trkpt lat="43.33982" lon="2.52367">
        <ele>197.9</ele>
        <time>2017-02-25T15:12:15Z</time>
      </trkpt>
      <trkpt lat="43.33975" lon="2.5237">
        <ele>198</ele>
        <time>2017-02-25T15:12:22Z</time>
      </trkpt>
      <trkpt lat="43.33971" lon="2.52368">
        <ele>198.4</ele>
        <time>2017-02-25T15:12:29Z</time>
      </trkpt>
      <trkpt lat="43.33968" lon="2.52365">
        <ele>197.5</ele>
        <time>2017-02-25T15:12:36Z</time>
      </trkpt>
      <trkpt lat="43.33968" lon="2.52365">
        <ele>197.5</ele>
        <time>2017-02-25T15:12:43Z</time>
      </trkpt>
      <trkpt lat="43.3396" lon="2.5236">
        <ele>197.1</ele>
        <time>2017-02-25T15:13:09Z</time>
      </trkpt>
      <trkpt lat="43.33957" lon="2.5236">
        <ele>196.7</ele>
        <time>2017-02-25T15:13:16Z</time>
      </trkpt>
      <trkpt lat="43.33953" lon="2.52365">
        <ele>196</ele>
        <time>2017-02-25T15:13:23Z</time>
      </trkpt>
      <trkpt lat="43.33955" lon="2.52368">
        <ele>194.9</ele>
        <time>2017-02-25T15:13:30Z</time>
      </trkpt>
      <trkpt lat="43.33958" lon="2.52374">
        <ele>195</ele>
        <time>2017-02-25T15:13:37Z</time>
      </trkpt>
      <trkpt lat="43.33965" lon="2.52373">
        <ele>195.4</ele>
        <time>2017-02-25T15:13:44Z</time>
      </trkpt>
      <trkpt lat="43.33962" lon="2.52375">
        <ele>195.5</ele>
        <time>2017-02-25T15:13:51Z</time>
      </trkpt>
      <trkpt lat="43.33959" lon="2.52382">
        <ele>195.2</ele>
        <time>2017-02-25T15:13:58Z</time>
      </trkpt>
      <trkpt lat="43.33959" lon="2.52387">
        <ele>194.8</ele>
        <time>2017-02-25T15:14:05Z</time>
      </trkpt>
      <trkpt lat="43.33956" lon="2.52379">
        <ele>193.7</ele>
        <time>2017-02-25T15:15:06Z</time>
      </trkpt>
      <trkpt lat="43.33952" lon="2.52387">
        <ele>194.1</ele>
        <time>2017-02-25T15:15:22Z</time>
      </trkpt>
      <trkpt lat="43.3395" lon="2.52391">
        <ele>194.8</ele>
        <time>2017-02-25T15:15:29Z</time>
      </trkpt>
      <trkpt lat="43.33947" lon="2.52399">
        <ele>194.7</ele>
        <time>2017-02-25T15:15:35Z</time>
      </trkpt>
      <trkpt lat="43.33941" lon="2.52407">
        <ele>194.2</ele>
        <time>2017-02-25T15:15:41Z</time>
      </trkpt>
      <trkpt lat="43.33936" lon="2.52413">
        <ele>194.4</ele>
        <time>2017-02-25T15:15:47Z</time>
      </trkpt>
      <trkpt lat="43.3393" lon="2.52419">
        <ele>194.6</ele>
        <time>2017-02-25T15:15:54Z</time>
      </trkpt>
      <trkpt lat="43.33924" lon="2.52425">
        <ele>194.8</ele>
        <time>2017-02-25T15:16:01Z</time>
      </trkpt>
      <trkpt lat="43.33917" lon="2.5243">
        <ele>195.1</ele>
        <time>2017-02-25T15:16:07Z</time>
      </trkpt>
      <trkpt lat="43.33912" lon="2.52437">
        <ele>195.3</ele>
        <time>2017-02-25T15:16:13Z</time>
      </trkpt>
      <trkpt lat="43.33906" lon="2.52444">
        <ele>194.9</ele>
        <time>2017-02-25T15:16:19Z</time>
      </trkpt>
      <trkpt lat="43.33898" lon="2.52449">
        <ele>194.5</ele>
        <time>2017-02-25T15:16:26Z</time>
      </trkpt>
      <trkpt lat="43.33892" lon="2.52455">
        <ele>194.9</ele>
        <time>2017-02-25T15:16:33Z</time>
      </trkpt>
      <trkpt lat="43.33885" lon="2.52462">
        <ele>195.7</ele>
        <time>2017-02-25T15:16:40Z</time>
      </trkpt>
      <trkpt lat="43.33879" lon="2.52468">
        <ele>195.5</ele>
        <time>2017-02-25T15:16:45Z</time>
      </trkpt>
      <trkpt lat="43.33874" lon="2.52475">
        <ele>195.1</ele>
        <time>2017-02-25T15:16:51Z</time>
      </trkpt>
      <trkpt lat="43.33868" lon="2.52484">
        <ele>193.6</ele>
        <time>2017-02-25T15:16:56Z</time>
      </trkpt>
      <trkpt lat="43.33863" lon="2.52491">
        <ele>191.7</ele>
        <time>2017-02-25T15:17:01Z</time>
      </trkpt>
      <trkpt lat="43.33857" lon="2.52499">
        <ele>190.4</ele>
        <time>2017-02-25T15:17:07Z</time>
      </trkpt>
      <trkpt lat="43.33852" lon="2.52507">
        <ele>188.9</ele>
        <time>2017-02-25T15:17:12Z</time>
      </trkpt>
      <trkpt lat="43.33845" lon="2.52514">
        <ele>188.9</ele>
        <time>2017-02-25T15:17:18Z</time>
      </trkpt>
      <trkpt lat="43.33839" lon="2.52519">
        <ele>189.5</ele>
        <time>2017-02-25T15:17:23Z</time>
      </trkpt>
      <trkpt lat="43.33832" lon="2.52524">
        <ele>190.3</ele>
        <time>2017-02-25T15:17:28Z</time>
      </trkpt>
      <trkpt lat="43.33824" lon="2.52524">
        <ele>191.6</ele>
        <time>2017-02-25T15:17:35Z</time>
      </trkpt>
      <trkpt lat="43.33816" lon="2.52521">
        <ele>191.6</ele>
        <time>2017-02-25T15:17:41Z</time>
      </trkpt>
      <trkpt lat="43.3381" lon="2.52516">
        <ele>191.1</ele>
        <time>2017-02-25T15:17:47Z</time>
      </trkpt>
      <trkpt lat="43.33803" lon="2.52509">
        <ele>191.5</ele>
        <time>2017-02-25T15:17:53Z</time>
      </trkpt>
      <trkpt lat="43.33795" lon="2.52505">
        <ele>192.8</ele>
        <time>2017-02-25T15:17:59Z</time>
      </trkpt>
      <trkpt lat="43.33789" lon="2.52502">
        <ele>193.5</ele>
        <time>2017-02-25T15:18:06Z</time>
      </trkpt>
      <trkpt lat="43.33782" lon="2.525">
        <ele>193.1</ele>
        <time>2017-02-25T15:18:12Z</time>
      </trkpt>
      <trkpt lat="43.33777" lon="2.52496">
        <ele>193.8</ele>
        <time>2017-02-25T15:18:19Z</time>
      </trkpt>
      <trkpt lat="43.33771" lon="2.5249">
        <ele>194</ele>
        <time>2017-02-25T15:18:24Z</time>
      </trkpt>
      <trkpt lat="43.33766" lon="2.52483">
        <ele>194.4</ele>
        <time>2017-02-25T15:18:31Z</time>
      </trkpt>
      <trkpt lat="43.33764" lon="2.52479">
        <ele>194.1</ele>
        <time>2017-02-25T15:18:38Z</time>
      </trkpt>
      <trkpt lat="43.33757" lon="2.52475">
        <ele>191.8</ele>
        <time>2017-02-25T15:18:45Z</time>
      </trkpt>
      <trkpt lat="43.33749" lon="2.52475">
        <ele>189.8</ele>
        <time>2017-02-25T15:18:51Z</time>
      </trkpt>
      <trkpt lat="43.33743" lon="2.52471">
        <ele>188.1</ele>
        <time>2017-02-25T15:18:56Z</time>
      </trkpt>
      <trkpt lat="43.33737" lon="2.52463">
        <ele>187.7</ele>
        <time>2017-02-25T15:19:02Z</time>
      </trkpt>
      <trkpt lat="43.33735" lon="2.52452">
        <ele>188.1</ele>
        <time>2017-02-25T15:19:08Z</time>
      </trkpt>
      <trkpt lat="43.33733" lon="2.52441">
        <ele>188.4</ele>
        <time>2017-02-25T15:19:15Z</time>
      </trkpt>
      <trkpt lat="43.33732" lon="2.52433">
        <ele>189</ele>
        <time>2017-02-25T15:19:22Z</time>
      </trkpt>
      <trkpt lat="43.33732" lon="2.52431">
        <ele>189.2</ele>
        <time>2017-02-25T15:19:29Z</time>
      </trkpt>
      <trkpt lat="43.33733" lon="2.52421">
        <ele>192.1</ele>
        <time>2017-02-25T15:20:00Z</time>
      </trkpt>
      <trkpt lat="43.33729" lon="2.52412">
        <ele>191.9</ele>
        <time>2017-02-25T15:20:06Z</time>
      </trkpt>
      <trkpt lat="43.33725" lon="2.52402">
        <ele>192.1</ele>
        <time>2017-02-25T15:20:13Z</time>
      </trkpt>
      <trkpt lat="43.3372" lon="2.52394">
        <ele>191.9</ele>
        <time>2017-02-25T15:20:19Z</time>
      </trkpt>
      <trkpt lat="43.33712" lon="2.52395">
        <ele>192.1</ele>
        <time>2017-02-25T15:20:26Z</time>
      </trkpt>
      <trkpt lat="43.33704" lon="2.52398">
        <ele>192.1</ele>
        <time>2017-02-25T15:20:32Z</time>
      </trkpt>
      <trkpt lat="43.33695" lon="2.52402">
        <ele>192</ele>
        <time>2017-02-25T15:20:38Z</time>
      </trkpt>
      <trkpt lat="43.33687" lon="2.52401">
        <ele>192.4</ele>
        <time>2017-02-25T15:20:44Z</time>
      </trkpt>
      <trkpt lat="43.33682" lon="2.52394">
        <ele>192.2</ele>
        <time>2017-02-25T15:20:50Z</time>
      </trkpt>
      <trkpt lat="43.33676" lon="2.52387">
        <ele>192.6</ele>
        <time>2017-02-25T15:20:56Z</time>
      </trkpt>
      <trkpt lat="43.33668" lon="2.52381">
        <ele>193.1</ele>
        <time>2017-02-25T15:21:02Z</time>
      </trkpt>
      <trkpt lat="43.33662" lon="2.52374">
        <ele>194.4</ele>
        <time>2017-02-25T15:21:09Z</time>
      </trkpt>
      <trkpt lat="43.33654" lon="2.52375">
        <ele>193.4</ele>
        <time>2017-02-25T15:21:16Z</time>
      </trkpt>
      <trkpt lat="43.33646" lon="2.52377">
        <ele>192.9</ele>
        <time>2017-02-25T15:21:23Z</time>
      </trkpt>
      <trkpt lat="43.33639" lon="2.52378">
        <ele>192.7</ele>
        <time>2017-02-25T15:21:28Z</time>
      </trkpt>
      <trkpt lat="43.33632" lon="2.52382">
        <ele>191.6</ele>
        <time>2017-02-25T15:21:33Z</time>
      </trkpt>
      <trkpt lat="43.33626" lon="2.52389">
        <ele>190.2</ele>
        <time>2017-02-25T15:21:38Z</time>
      </trkpt>
      <trkpt lat="43.33619" lon="2.52396">
        <ele>189</ele>
        <time>2017-02-25T15:21:44Z</time>
      </trkpt>
      <trkpt lat="43.33614" lon="2.52404">
        <ele>188.3</ele>
        <time>2017-02-25T15:21:49Z</time>
      </trkpt>
      <trkpt lat="43.33611" lon="2.52412">
        <ele>186.9</ele>
        <time>2017-02-25T15:21:55Z</time>
      </trkpt>
      <trkpt lat="43.33606" lon="2.52422">
        <ele>185.2</ele>
        <time>2017-02-25T15:22:01Z</time>
      </trkpt>
      <trkpt lat="43.33603" lon="2.52431">
        <ele>183.7</ele>
        <time>2017-02-25T15:22:07Z</time>
      </trkpt>
      <trkpt lat="43.33598" lon="2.5244">
        <ele>182.8</ele>
        <time>2017-02-25T15:22:13Z</time>
      </trkpt>
      <trkpt lat="43.33593" lon="2.52448">
        <ele>182.9</ele>
        <time>2017-02-25T15:22:20Z</time>
      </trkpt>
      <trkpt lat="43.33588" lon="2.52455">
        <ele>182.9</ele>
        <time>2017-02-25T15:22:26Z</time>
      </trkpt>
      <trkpt lat="43.33582" lon="2.52463">
        <ele>182.6</ele>
        <time>2017-02-25T15:22:31Z</time>
      </trkpt>
      <trkpt lat="43.33577" lon="2.5247">
        <ele>182.2</ele>
        <time>2017-02-25T15:22:37Z</time>
      </trkpt>
      <trkpt lat="43.3357" lon="2.52477">
        <ele>181.9</ele>
        <time>2017-02-25T15:22:43Z</time>
      </trkpt>
      <trkpt lat="43.33564" lon="2.52484">
        <ele>182.4</ele>
        <time>2017-02-25T15:22:48Z</time>
      </trkpt>
      <trkpt lat="43.33557" lon="2.5249">
        <ele>183.6</ele>
        <time>2017-02-25T15:22:55Z</time>
      </trkpt>
      <trkpt lat="43.33552" lon="2.52497">
        <ele>185.4</ele>
        <time>2017-02-25T15:23:01Z</time>
      </trkpt>
      <trkpt lat="43.33546" lon="2.52504">
        <ele>188</ele>
        <time>2017-02-25T15:23:07Z</time>
      </trkpt>
      <trkpt lat="43.33541" lon="2.52513">
        <ele>189.9</ele>
        <time>2017-02-25T15:23:13Z</time>
      </trkpt>
      <trkpt lat="43.33535" lon="2.52521">
        <ele>191</ele>
        <time>2017-02-25T15:23:18Z</time>
      </trkpt>
      <trkpt lat="43.33529" lon="2.52528">
        <ele>191.4</ele>
        <time>2017-02-25T15:23:23Z</time>
      </trkpt>
      <trkpt lat="43.33524" lon="2.52534">
        <ele>191.7</ele>
        <time>2017-02-25T15:23:29Z</time>
      </trkpt>
      <trkpt lat="43.33518" lon="2.5254">
        <ele>191.1</ele>
        <time>2017-02-25T15:23:35Z</time>
      </trkpt>
      <trkpt lat="43.33511" lon="2.52546">
        <ele>188.7</ele>
        <time>2017-02-25T15:23:42Z</time>
      </trkpt>
      <trkpt lat="43.33505" lon="2.52553">
        <ele>186.2</ele>
        <time>2017-02-25T15:23:49Z</time>
      </trkpt>
      <trkpt lat="43.33502" lon="2.52557">
        <ele>183.6</ele>
        <time>2017-02-25T15:23:56Z</time>
      </trkpt>
      <trkpt lat="43.33496" lon="2.52565">
        <ele>181.1</ele>
        <time>2017-02-25T15:24:02Z</time>
      </trkpt>
      <trkpt lat="43.33489" lon="2.52571">
        <ele>179.2</ele>
        <time>2017-02-25T15:24:08Z</time>
      </trkpt>
      <trkpt lat="43.33482" lon="2.52574">
        <ele>177.7</ele>
        <time>2017-02-25T15:24:13Z</time>
      </trkpt>
      <trkpt lat="43.33474" lon="2.52576">
        <ele>176.4</ele>
        <time>2017-02-25T15:24:19Z</time>
      </trkpt>
      <trkpt lat="43.33467" lon="2.52579">
        <ele>176.1</ele>
        <time>2017-02-25T15:24:24Z</time>
      </trkpt>
      <trkpt lat="43.33459" lon="2.52578">
        <ele>175.6</ele>
        <time>2017-02-25T15:24:29Z</time>
      </trkpt>
      <trkpt lat="43.33451" lon="2.52576">
        <ele>175.3</ele>
        <time>2017-02-25T15:24:36Z</time>
      </trkpt>
      <trkpt lat="43.33443" lon="2.52576">
        <ele>173.3</ele>
        <time>2017-02-25T15:24:43Z</time>
      </trkpt>
      <trkpt lat="43.33435" lon="2.52573">
        <ele>172.8</ele>
        <time>2017-02-25T15:24:50Z</time>
      </trkpt>
      <trkpt lat="43.33428" lon="2.52568">
        <ele>171.5</ele>
        <time>2017-02-25T15:24:55Z</time>
      </trkpt>
      <trkpt lat="43.33422" lon="2.52563">
        <ele>172.8</ele>
        <time>2017-02-25T15:24:59Z</time>
      </trkpt>
      <trkpt lat="43.33416" lon="2.52555">
        <ele>173.1</ele>
        <time>2017-02-25T15:25:05Z</time>
      </trkpt>
      <trkpt lat="43.33415" lon="2.52553">
        <ele>173.2</ele>
        <time>2017-02-25T15:25:12Z</time>
      </trkpt>
      <trkpt lat="43.33413" lon="2.52549">
        <ele>182.9</ele>
        <time>2017-02-25T15:25:24Z</time>
      </trkpt>
      <trkpt lat="43.3341" lon="2.5254">
        <ele>181.8</ele>
        <time>2017-02-25T15:25:30Z</time>
      </trkpt>
      <trkpt lat="43.33407" lon="2.5253">
        <ele>180.5</ele>
        <time>2017-02-25T15:25:36Z</time>
      </trkpt>
      <trkpt lat="43.33406" lon="2.52519">
        <ele>177.6</ele>
        <time>2017-02-25T15:25:43Z</time>
      </trkpt>
      <trkpt lat="43.33408" lon="2.52508">
        <ele>175.7</ele>
        <time>2017-02-25T15:25:48Z</time>
      </trkpt>
      <trkpt lat="43.33409" lon="2.52498">
        <ele>173.5</ele>
        <time>2017-02-25T15:25:54Z</time>
      </trkpt>
      <trkpt lat="43.3341" lon="2.52487">
        <ele>169.8</ele>
        <time>2017-02-25T15:26:01Z</time>
      </trkpt>
      <trkpt lat="43.3341" lon="2.52485">
        <ele>168.9</ele>
        <time>2017-02-25T15:26:08Z</time>
      </trkpt>
      <trkpt lat="43.3341" lon="2.52488">
        <ele>172.8</ele>
        <time>2017-02-25T15:26:15Z</time>
      </trkpt>
      <trkpt lat="43.3341" lon="2.52483">
        <ele>171.7</ele>
        <time>2017-02-25T15:26:27Z</time>
      </trkpt>
      <trkpt lat="43.33406" lon="2.52472">
        <ele>167.5</ele>
        <time>2017-02-25T15:26:04Z</time>
      </trkpt>
      <trkpt lat="43.33405" lon="2.52463">
        <ele>163.4</ele>
        <time>2017-02-25T15:27:17Z</time>
      </trkpt>
      <trkpt lat="43.33403" lon="2.52457">
        <ele>161.4</ele>
        <time>2017-02-25T15:27:24Z</time>
      </trkpt>
      <trkpt lat="43.334" lon="2.52455">
        <ele>167.4</ele>
        <time>2017-02-25T15:27:31Z</time>
      </trkpt>
      <trkpt lat="43.33394" lon="2.5245">
        <ele>171.2</ele>
        <time>2017-02-25T15:27:38Z</time>
      </trkpt>
      <trkpt lat="43.33388" lon="2.52441">
        <ele>172.9</ele>
        <time>2017-02-25T15:27:44Z</time>
      </trkpt>
      <trkpt lat="43.33381" lon="2.52436">
        <ele>172.6</ele>
        <time>2017-02-25T15:27:50Z</time>
      </trkpt>
      <trkpt lat="43.33374" lon="2.52431">
        <ele>172.4</ele>
        <time>2017-02-25T15:27:56Z</time>
      </trkpt>
      <trkpt lat="43.33367" lon="2.52425">
        <ele>173</ele>
        <time>2017-02-25T15:28:02Z</time>
      </trkpt>
      <trkpt lat="43.33359" lon="2.52425">
        <ele>175.8</ele>
        <time>2017-02-25T15:28:08Z</time>
      </trkpt>
      <trkpt lat="43.33352" lon="2.52421">
        <ele>176.8</ele>
        <time>2017-02-25T15:28:13Z</time>
      </trkpt>
      <trkpt lat="43.33346" lon="2.52416">
        <ele>177.9</ele>
        <time>2017-02-25T15:28:19Z</time>
      </trkpt>
      <trkpt lat="43.33339" lon="2.52409">
        <ele>178.9</ele>
        <time>2017-02-25T15:28:25Z</time>
      </trkpt>
      <trkpt lat="43.33332" lon="2.52403">
        <ele>179.8</ele>
        <time>2017-02-25T15:28:30Z</time>
      </trkpt>
      <trkpt lat="43.33327" lon="2.52398">
        <ele>180.4</ele>
        <time>2017-02-25T15:28:36Z</time>
      </trkpt>
      <trkpt lat="43.3332" lon="2.52393">
        <ele>182.3</ele>
        <time>2017-02-25T15:28:43Z</time>
      </trkpt>
      <trkpt lat="43.33313" lon="2.52387">
        <ele>182.8</ele>
        <time>2017-02-25T15:28:49Z</time>
      </trkpt>
      <trkpt lat="43.33306" lon="2.52381">
        <ele>182.8</ele>
        <time>2017-02-25T15:28:56Z</time>
      </trkpt>
      <trkpt lat="43.33298" lon="2.52379">
        <ele>181.5</ele>
        <time>2017-02-25T15:29:02Z</time>
      </trkpt>
      <trkpt lat="43.3329" lon="2.52378">
        <ele>180.5</ele>
        <time>2017-02-25T15:29:08Z</time>
      </trkpt>
      <trkpt lat="43.33282" lon="2.52376">
        <ele>178.4</ele>
        <time>2017-02-25T15:29:15Z</time>
      </trkpt>
      <trkpt lat="43.33273" lon="2.52375">
        <ele>176</ele>
        <time>2017-02-25T15:29:22Z</time>
      </trkpt>
      <trkpt lat="43.33266" lon="2.52373">
        <ele>174.3</ele>
        <time>2017-02-25T15:29:27Z</time>
      </trkpt>
      <trkpt lat="43.33261" lon="2.52374">
        <ele>175.6</ele>
        <time>2017-02-25T15:29:34Z</time>
      </trkpt>
      <trkpt lat="43.33258" lon="2.52378">
        <ele>179.7</ele>
        <time>2017-02-25T15:30:10Z</time>
      </trkpt>
      <trkpt lat="43.3325" lon="2.52373">
        <ele>185.2</ele>
        <time>2017-02-25T15:30:38Z</time>
      </trkpt>
      <trkpt lat="43.33245" lon="2.52365">
        <ele>185.3</ele>
        <time>2017-02-25T15:30:45Z</time>
      </trkpt>
      <trkpt lat="43.33242" lon="2.52359">
        <ele>185.4</ele>
        <time>2017-02-25T15:30:52Z</time>
      </trkpt>
      <trkpt lat="43.33236" lon="2.52354">
        <ele>185.8</ele>
        <time>2017-02-25T15:30:58Z</time>
      </trkpt>
      <trkpt lat="43.33233" lon="2.52344">
        <ele>186.3</ele>
        <time>2017-02-25T15:31:05Z</time>
      </trkpt>
      <trkpt lat="43.33231" lon="2.52339">
        <ele>186.5</ele>
        <time>2017-02-25T15:31:12Z</time>
      </trkpt>
      <trkpt lat="43.33226" lon="2.52335">
        <ele>186.5</ele>
        <time>2017-02-25T15:31:19Z</time>
      </trkpt>
      <trkpt lat="43.33222" lon="2.52329">
        <ele>186.2</ele>
        <time>2017-02-25T15:31:26Z</time>
      </trkpt>
      <trkpt lat="43.33222" lon="2.52327">
        <ele>186.3</ele>
        <time>2017-02-25T15:31:33Z</time>
      </trkpt>
      <trkpt lat="43.33219" lon="2.5232">
        <ele>186.8</ele>
        <time>2017-02-25T15:31:40Z</time>
      </trkpt>
      <trkpt lat="43.33217" lon="2.52317">
        <ele>186.4</ele>
        <time>2017-02-25T15:31:47Z</time>
      </trkpt>
      <trkpt lat="43.33211" lon="2.52316">
        <ele>185.2</ele>
        <time>2017-02-25T15:31:54Z</time>
      </trkpt>
      <trkpt lat="43.33205" lon="2.52315">
        <ele>185.2</ele>
        <time>2017-02-25T15:32:01Z</time>
      </trkpt>
      <trkpt lat="43.33199" lon="2.52314">
        <ele>184.3</ele>
        <time>2017-02-25T15:32:08Z</time>
      </trkpt>
      <trkpt lat="43.33191" lon="2.52312">
        <ele>183.7</ele>
        <time>2017-02-25T15:32:15Z</time>
      </trkpt>
      <trkpt lat="43.33188" lon="2.52311">
        <ele>183.8</ele>
        <time>2017-02-25T15:32:22Z</time>
      </trkpt>
      <trkpt lat="43.33182" lon="2.52306">
        <ele>183.2</ele>
        <time>2017-02-25T15:32:46Z</time>
      </trkpt>
      <trkpt lat="43.33175" lon="2.52302">
        <ele>183.6</ele>
        <time>2017-02-25T15:32:51Z</time>
      </trkpt>
      <trkpt lat="43.33168" lon="2.52299">
        <ele>183.7</ele>
        <time>2017-02-25T15:32:56Z</time>
      </trkpt>
      <trkpt lat="43.3316" lon="2.52295">
        <ele>183.7</ele>
        <time>2017-02-25T15:33:01Z</time>
      </trkpt>
      <trkpt lat="43.33154" lon="2.52289">
        <ele>183.9</ele>
        <time>2017-02-25T15:33:07Z</time>
      </trkpt>
      <trkpt lat="43.33147" lon="2.52284">
        <ele>184.6</ele>
        <time>2017-02-25T15:33:14Z</time>
      </trkpt>
      <trkpt lat="43.33141" lon="2.52279">
        <ele>184.6</ele>
        <time>2017-02-25T15:33:20Z</time>
      </trkpt>
      <trkpt lat="43.33134" lon="2.52275">
        <ele>185.7</ele>
        <time>2017-02-25T15:33:26Z</time>
      </trkpt>
      <trkpt lat="43.33126" lon="2.5227">
        <ele>186.7</ele>
        <time>2017-02-25T15:33:32Z</time>
      </trkpt>
      <trkpt lat="43.33121" lon="2.52265">
        <ele>187.3</ele>
        <time>2017-02-25T15:33:39Z</time>
      </trkpt>
      <trkpt lat="43.33116" lon="2.52257">
        <ele>185.6</ele>
        <time>2017-02-25T15:33:46Z</time>
      </trkpt>
      <trkpt lat="43.3311" lon="2.5225">
        <ele>184.5</ele>
        <time>2017-02-25T15:33:52Z</time>
      </trkpt>
      <trkpt lat="43.33104" lon="2.52244">
        <ele>185.1</ele>
        <time>2017-02-25T15:33:58Z</time>
      </trkpt>
      <trkpt lat="43.33098" lon="2.52236">
        <ele>185.4</ele>
        <time>2017-02-25T15:34:05Z</time>
      </trkpt>
      <trkpt lat="43.33093" lon="2.5223">
        <ele>185.3</ele>
        <time>2017-02-25T15:34:12Z</time>
      </trkpt>
      <trkpt lat="43.33087" lon="2.52224">
        <ele>184.8</ele>
        <time>2017-02-25T15:34:19Z</time>
      </trkpt>
      <trkpt lat="43.3308" lon="2.52219">
        <ele>183.6</ele>
        <time>2017-02-25T15:34:25Z</time>
      </trkpt>
      <trkpt lat="43.33074" lon="2.52213">
        <ele>181.3</ele>
        <time>2017-02-25T15:34:30Z</time>
      </trkpt>
      <trkpt lat="43.33068" lon="2.52207">
        <ele>179.4</ele>
        <time>2017-02-25T15:34:35Z</time>
      </trkpt>
      <trkpt lat="43.33059" lon="2.52203">
        <ele>178</ele>
        <time>2017-02-25T15:34:41Z</time>
      </trkpt>
      <trkpt lat="43.33052" lon="2.522">
        <ele>179.1</ele>
        <time>2017-02-25T15:34:47Z</time>
      </trkpt>
      <trkpt lat="43.33045" lon="2.52202">
        <ele>179</ele>
        <time>2017-02-25T15:34:54Z</time>
      </trkpt>
      <trkpt lat="43.33038" lon="2.52207">
        <ele>177.1</ele>
        <time>2017-02-25T15:35:01Z</time>
      </trkpt>
      <trkpt lat="43.33031" lon="2.52211">
        <ele>175.3</ele>
        <time>2017-02-25T15:35:07Z</time>
      </trkpt>
      <trkpt lat="43.33024" lon="2.52216">
        <ele>172.5</ele>
        <time>2017-02-25T15:35:14Z</time>
      </trkpt>
      <trkpt lat="43.33018" lon="2.52222">
        <ele>170.3</ele>
        <time>2017-02-25T15:35:21Z</time>
      </trkpt>
      <trkpt lat="43.33014" lon="2.52228">
        <ele>168.1</ele>
        <time>2017-02-25T15:35:28Z</time>
      </trkpt>
      <trkpt lat="43.33009" lon="2.52235">
        <ele>164.7</ele>
        <time>2017-02-25T15:35:35Z</time>
      </trkpt>
      <trkpt lat="43.33006" lon="2.52242">
        <ele>161.7</ele>
        <time>2017-02-25T15:35:42Z</time>
      </trkpt>
      <trkpt lat="43.33001" lon="2.52251">
        <ele>159.7</ele>
        <time>2017-02-25T15:35:49Z</time>
      </trkpt>
      <trkpt lat="43.32996" lon="2.52259">
        <ele>157.8</ele>
        <time>2017-02-25T15:35:55Z</time>
      </trkpt>
      <trkpt lat="43.32992" lon="2.52266">
        <ele>155.9</ele>
        <time>2017-02-25T15:36:00Z</time>
      </trkpt>
      <trkpt lat="43.32987" lon="2.52274">
        <ele>154.7</ele>
        <time>2017-02-25T15:36:05Z</time>
      </trkpt>
      <trkpt lat="43.32981" lon="2.52282">
        <ele>153.2</ele>
        <time>2017-02-25T15:36:11Z</time>
      </trkpt>
      <trkpt lat="43.32976" lon="2.52289">
        <ele>152.7</ele>
        <time>2017-02-25T15:36:17Z</time>
      </trkpt>
      <trkpt lat="43.32972" lon="2.52297">
        <ele>150.8</ele>
        <time>2017-02-25T15:36:24Z</time>
      </trkpt>
      <trkpt lat="43.32967" lon="2.52303">
        <ele>148.8</ele>
        <time>2017-02-25T15:36:31Z</time>
      </trkpt>
      <trkpt lat="43.32962" lon="2.52308">
        <ele>146.8</ele>
        <time>2017-02-25T15:36:38Z</time>
      </trkpt>
      <trkpt lat="43.32957" lon="2.52316">
        <ele>145.7</ele>
        <time>2017-02-25T15:36:45Z</time>
      </trkpt>
      <trkpt lat="43.32951" lon="2.52324">
        <ele>144.3</ele>
        <time>2017-02-25T15:36:51Z</time>
      </trkpt>
      <trkpt lat="43.32945" lon="2.52332">
        <ele>142.9</ele>
        <time>2017-02-25T15:36:57Z</time>
      </trkpt>
      <trkpt lat="43.32941" lon="2.52338">
        <ele>141.6</ele>
        <time>2017-02-25T15:37:04Z</time>
      </trkpt>
      <trkpt lat="43.32935" lon="2.52344">
        <ele>139.5</ele>
        <time>2017-02-25T15:37:11Z</time>
      </trkpt>
      <trkpt lat="43.32929" lon="2.52351">
        <ele>136.9</ele>
        <time>2017-02-25T15:37:18Z</time>
      </trkpt>
      <trkpt lat="43.32925" lon="2.52359">
        <ele>134.8</ele>
        <time>2017-02-25T15:37:25Z</time>
      </trkpt>
      <trkpt lat="43.32921" lon="2.52369">
        <ele>133.3</ele>
        <time>2017-02-25T15:37:32Z</time>
      </trkpt>
      <trkpt lat="43.32916" lon="2.52377">
        <ele>131.3</ele>
        <time>2017-02-25T15:37:39Z</time>
      </trkpt>
      <trkpt lat="43.32912" lon="2.52385">
        <ele>129.2</ele>
        <time>2017-02-25T15:37:46Z</time>
      </trkpt>
      <trkpt lat="43.32907" lon="2.52392">
        <ele>129</ele>
        <time>2017-02-25T15:37:52Z</time>
      </trkpt>
      <trkpt lat="43.32904" lon="2.52394">
        <ele>130.7</ele>
        <time>2017-02-25T15:37:59Z</time>
      </trkpt>
      <trkpt lat="43.329" lon="2.52403">
        <ele>136.2</ele>
        <time>2017-02-25T15:38:15Z</time>
      </trkpt>
      <trkpt lat="43.32899" lon="2.52413">
        <ele>136.3</ele>
        <time>2017-02-25T15:38:22Z</time>
      </trkpt>
      <trkpt lat="43.32897" lon="2.52422">
        <ele>136.4</ele>
        <time>2017-02-25T15:38:29Z</time>
      </trkpt>
      <trkpt lat="43.32899" lon="2.52432">
        <ele>136.1</ele>
        <time>2017-02-25T15:38:36Z</time>
      </trkpt>
      <trkpt lat="43.32894" lon="2.5244">
        <ele>136.2</ele>
        <time>2017-02-25T15:38:42Z</time>
      </trkpt>
      <trkpt lat="43.32888" lon="2.52448">
        <ele>135.3</ele>
        <time>2017-02-25T15:38:48Z</time>
      </trkpt>
      <trkpt lat="43.32882" lon="2.52455">
        <ele>134.8</ele>
        <time>2017-02-25T15:38:55Z</time>
      </trkpt>
      <trkpt lat="43.32876" lon="2.52462">
        <ele>133.1</ele>
        <time>2017-02-25T15:39:02Z</time>
      </trkpt>
      <trkpt lat="43.3287" lon="2.52468">
        <ele>132.4</ele>
        <time>2017-02-25T15:39:09Z</time>
      </trkpt>
      <trkpt lat="43.32864" lon="2.52475">
        <ele>132.1</ele>
        <time>2017-02-25T15:39:16Z</time>
      </trkpt>
      <trkpt lat="43.32858" lon="2.52483">
        <ele>132.1</ele>
        <time>2017-02-25T15:39:22Z</time>
      </trkpt>
      <trkpt lat="43.3285" lon="2.52489">
        <ele>132.9</ele>
        <time>2017-02-25T15:39:28Z</time>
      </trkpt>
      <trkpt lat="43.32845" lon="2.52495">
        <ele>132.3</ele>
        <time>2017-02-25T15:39:35Z</time>
      </trkpt>
      <trkpt lat="43.32839" lon="2.52504">
        <ele>131.3</ele>
        <time>2017-02-25T15:39:41Z</time>
      </trkpt>
      <trkpt lat="43.32832" lon="2.52509">
        <ele>129.5</ele>
        <time>2017-02-25T15:39:48Z</time>
      </trkpt>
      <trkpt lat="43.32826" lon="2.52514">
        <ele>127.9</ele>
        <time>2017-02-25T15:39:55Z</time>
      </trkpt>
      <trkpt lat="43.3282" lon="2.52522">
        <ele>126.7</ele>
        <time>2017-02-25T15:40:01Z</time>
      </trkpt>
      <trkpt lat="43.32813" lon="2.52529">
        <ele>126.9</ele>
        <time>2017-02-25T15:40:06Z</time>
      </trkpt>
      <trkpt lat="43.32805" lon="2.52535">
        <ele>127.8</ele>
        <time>2017-02-25T15:40:12Z</time>
      </trkpt>
      <trkpt lat="43.328" lon="2.52541">
        <ele>130.1</ele>
        <time>2017-02-25T15:40:17Z</time>
      </trkpt>
      <trkpt lat="43.32792" lon="2.52547">
        <ele>131</ele>
        <time>2017-02-25T15:40:24Z</time>
      </trkpt>
      <trkpt lat="43.32784" lon="2.52551">
        <ele>132.6</ele>
        <time>2017-02-25T15:40:29Z</time>
      </trkpt>
      <trkpt lat="43.32777" lon="2.52555">
        <ele>134.5</ele>
        <time>2017-02-25T15:40:35Z</time>
      </trkpt>
      <trkpt lat="43.32771" lon="2.5256">
        <ele>134.9</ele>
        <time>2017-02-25T15:40:42Z</time>
      </trkpt>
      <trkpt lat="43.32764" lon="2.52563">
        <ele>135.5</ele>
        <time>2017-02-25T15:40:48Z</time>
      </trkpt>
      <trkpt lat="43.32757" lon="2.52567">
        <ele>135.5</ele>
        <time>2017-02-25T15:40:55Z</time>
      </trkpt>
      <trkpt lat="43.32751" lon="2.52572">
        <ele>136</ele>
        <time>2017-02-25T15:41:02Z</time>
      </trkpt>
      <trkpt lat="43.32746" lon="2.52577">
        <ele>134.6</ele>
        <time>2017-02-25T15:41:09Z</time>
      </trkpt>
      <trkpt lat="43.32741" lon="2.52584">
        <ele>133.3</ele>
        <time>2017-02-25T15:41:15Z</time>
      </trkpt>
      <trkpt lat="43.32734" lon="2.5259">
        <ele>131.7</ele>
        <time>2017-02-25T15:41:22Z</time>
      </trkpt>
      <trkpt lat="43.32726" lon="2.52586">
        <ele>131.8</ele>
        <time>2017-02-25T15:41:27Z</time>
      </trkpt>
      <trkpt lat="43.32721" lon="2.52595">
        <ele>131.1</ele>
        <time>2017-02-25T15:41:33Z</time>
      </trkpt>
      <trkpt lat="43.32717" lon="2.52604">
        <ele>129.4</ele>
        <time>2017-02-25T15:41:40Z</time>
      </trkpt>
      <trkpt lat="43.32716" lon="2.52615">
        <ele>128.6</ele>
        <time>2017-02-25T15:41:44Z</time>
      </trkpt>
      <trkpt lat="43.32713" lon="2.52625">
        <ele>127.3</ele>
        <time>2017-02-25T15:41:49Z</time>
      </trkpt>
      <trkpt lat="43.32708" lon="2.52633">
        <ele>126</ele>
        <time>2017-02-25T15:41:56Z</time>
      </trkpt>
      <trkpt lat="43.32704" lon="2.52643">
        <ele>125.2</ele>
        <time>2017-02-25T15:42:02Z</time>
      </trkpt>
      <trkpt lat="43.32707" lon="2.52655">
        <ele>125</ele>
        <time>2017-02-25T15:42:09Z</time>
      </trkpt>
      <trkpt lat="43.3271" lon="2.52664">
        <ele>126.6</ele>
        <time>2017-02-25T15:42:16Z</time>
      </trkpt>
      <trkpt lat="43.32712" lon="2.52668">
        <ele>128.3</ele>
        <time>2017-02-25T15:42:23Z</time>
      </trkpt>
      <trkpt lat="43.32712" lon="2.52679">
        <ele>129.1</ele>
        <time>2017-02-25T15:42:29Z</time>
      </trkpt>
      <trkpt lat="43.32713" lon="2.52691">
        <ele>130.6</ele>
        <time>2017-02-25T15:42:35Z</time>
      </trkpt>
      <trkpt lat="43.32715" lon="2.52702">
        <ele>133.2</ele>
        <time>2017-02-25T15:42:42Z</time>
      </trkpt>
      <trkpt lat="43.3272" lon="2.5271">
        <ele>134.6</ele>
        <time>2017-02-25T15:42:49Z</time>
      </trkpt>
      <trkpt lat="43.32721" lon="2.52722">
        <ele>135.2</ele>
        <time>2017-02-25T15:42:55Z</time>
      </trkpt>
      <trkpt lat="43.32724" lon="2.52731">
        <ele>135.1</ele>
        <time>2017-02-25T15:43:01Z</time>
      </trkpt>
      <trkpt lat="43.3273" lon="2.52739">
        <ele>135</ele>
        <time>2017-02-25T15:43:08Z</time>
      </trkpt>
      <trkpt lat="43.32733" lon="2.52744">
        <ele>134.5</ele>
        <time>2017-02-25T15:43:15Z</time>
      </trkpt>
      <trkpt lat="43.32736" lon="2.52748">
        <ele>134.2</ele>
        <time>2017-02-25T15:43:22Z</time>
      </trkpt>
      <trkpt lat="43.32735" lon="2.52752">
        <ele>132.6</ele>
        <time>2017-02-25T15:43:29Z</time>
      </trkpt>
      <trkpt lat="43.32732" lon="2.5276">
        <ele>131.2</ele>
        <time>2017-02-25T15:43:36Z</time>
      </trkpt>
      <trkpt lat="43.32729" lon="2.52765">
        <ele>130.5</ele>
        <time>2017-02-25T15:43:43Z</time>
      </trkpt>
      <trkpt lat="43.32724" lon="2.52773">
        <ele>130</ele>
        <time>2017-02-25T15:43:47Z</time>
      </trkpt>
      <trkpt lat="43.32724" lon="2.52782">
        <ele>129.8</ele>
        <time>2017-02-25T15:43:54Z</time>
      </trkpt>
      <trkpt lat="43.32724" lon="2.52792">
        <ele>133.3</ele>
        <time>2017-02-25T15:44:01Z</time>
      </trkpt>
      <trkpt lat="43.32723" lon="2.52795">
        <ele>134.7</ele>
        <time>2017-02-25T15:44:08Z</time>
      </trkpt>
      <trkpt lat="43.32722" lon="2.52806">
        <ele>134.8</ele>
        <time>2017-02-25T15:44:13Z</time>
      </trkpt>
      <trkpt lat="43.32719" lon="2.52817">
        <ele>135.5</ele>
        <time>2017-02-25T15:44:19Z</time>
      </trkpt>
      <trkpt lat="43.32716" lon="2.52826">
        <ele>137.1</ele>
        <time>2017-02-25T15:44:23Z</time>
      </trkpt>
      <trkpt lat="43.3271" lon="2.52835">
        <ele>140.4</ele>
        <time>2017-02-25T15:44:26Z</time>
      </trkpt>
      <trkpt lat="43.32704" lon="2.52842">
        <ele>143.2</ele>
        <time>2017-02-25T15:44:29Z</time>
      </trkpt>
      <trkpt lat="43.32701" lon="2.5285">
        <ele>146.2</ele>
        <time>2017-02-25T15:44:33Z</time>
      </trkpt>
      <trkpt lat="43.32697" lon="2.52861">
        <ele>146.6</ele>
        <time>2017-02-25T15:44:39Z</time>
      </trkpt>
      <trkpt lat="43.32699" lon="2.52871">
        <ele>146.4</ele>
        <time>2017-02-25T15:44:46Z</time>
      </trkpt>
      <trkpt lat="43.32697" lon="2.5288">
        <ele>145.7</ele>
        <time>2017-02-25T15:44:51Z</time>
      </trkpt>
      <trkpt lat="43.32695" lon="2.52891">
        <ele>144.9</ele>
        <time>2017-02-25T15:44:57Z</time>
      </trkpt>
      <trkpt lat="43.32692" lon="2.52902">
        <ele>143.9</ele>
        <time>2017-02-25T15:45:04Z</time>
      </trkpt>
      <trkpt lat="43.32688" lon="2.52911">
        <ele>142.5</ele>
        <time>2017-02-25T15:45:09Z</time>
      </trkpt>
      <trkpt lat="43.32691" lon="2.52918">
        <ele>140.6</ele>
        <time>2017-02-25T15:45:16Z</time>
      </trkpt>
      <trkpt lat="43.32691" lon="2.52928">
        <ele>139.4</ele>
        <time>2017-02-25T15:45:22Z</time>
      </trkpt>
      <trkpt lat="43.32692" lon="2.52938">
        <ele>138.7</ele>
        <time>2017-02-25T15:45:27Z</time>
      </trkpt>
      <trkpt lat="43.32689" lon="2.52949">
        <ele>139.7</ele>
        <time>2017-02-25T15:45:33Z</time>
      </trkpt>
      <trkpt lat="43.32684" lon="2.52958">
        <ele>141.1</ele>
        <time>2017-02-25T15:45:39Z</time>
      </trkpt>
      <trkpt lat="43.32681" lon="2.52968">
        <ele>145.5</ele>
        <time>2017-02-25T15:45:45Z</time>
      </trkpt>
      <trkpt lat="43.32678" lon="2.52978">
        <ele>151.5</ele>
        <time>2017-02-25T15:45:50Z</time>
      </trkpt>
      <trkpt lat="43.32677" lon="2.52989">
        <ele>155.8</ele>
        <time>2017-02-25T15:45:54Z</time>
      </trkpt>
      <trkpt lat="43.32677" lon="2.53002">
        <ele>161.1</ele>
        <time>2017-02-25T15:46:00Z</time>
      </trkpt>
      <trkpt lat="43.32676" lon="2.53012">
        <ele>162.4</ele>
        <time>2017-02-25T15:46:06Z</time>
      </trkpt>
      <trkpt lat="43.32672" lon="2.53021">
        <ele>162.2</ele>
        <time>2017-02-25T15:46:12Z</time>
      </trkpt>
      <trkpt lat="43.32668" lon="2.53029">
        <ele>161.3</ele>
        <time>2017-02-25T15:46:19Z</time>
      </trkpt>
      <trkpt lat="43.32664" lon="2.53038">
        <ele>160.2</ele>
        <time>2017-02-25T15:46:26Z</time>
      </trkpt>
      <trkpt lat="43.32661" lon="2.53048">
        <ele>159.9</ele>
        <time>2017-02-25T15:46:33Z</time>
      </trkpt>
      <trkpt lat="43.32659" lon="2.53057">
        <ele>159.4</ele>
        <time>2017-02-25T15:46:39Z</time>
      </trkpt>
      <trkpt lat="43.32651" lon="2.53067">
        <ele>159.6</ele>
        <time>2017-02-25T15:46:45Z</time>
      </trkpt>
      <trkpt lat="43.32644" lon="2.53073">
        <ele>160.9</ele>
        <time>2017-02-25T15:46:49Z</time>
      </trkpt>
      <trkpt lat="43.32639" lon="2.53081">
        <ele>161.8</ele>
        <time>2017-02-25T15:46:52Z</time>
      </trkpt>
      <trkpt lat="43.32633" lon="2.5309">
        <ele>161.8</ele>
        <time>2017-02-25T15:46:57Z</time>
      </trkpt>
    </trkseg>
  </trk>
</gpx>